[[{"header":{"parameterUnit":"m.s-1","parameterCategory":1,"la1":30.6,"la2":28.766,"lo1":-90.7593,"lo2":-88.6598,"dy":0.0162,"dx":0.0183,"nx":116,"ny":114,"refTime":"2024-04-01T18:00:00:Z","depth":0,"parameterNumber":2,"parameterNumberName":"U-component_of_WINDS"},"data":[0.0,0.0,0.0,0.0,0.0,0.0,0.0,0.0,0.0,0.0,0.0,0.0,0.0,0.0,0.0,0.0,0.0,0.0,0.0,0.0,0.0,0.0,0.0,0.0,0.0,0.0,0.0,0.0,0.0,0.0,0.0,0.0,0.0,0.0,0.0,0.0,0.0,0.0,0.0,0.0,0.0,0.0,0.0,0.0,0.0,0.0,0.0,0.0,0.0,0.0,0.0,0.0,0.0,0.0,0.0,0.0,0.0,0.0,0.0,0.0,0.0,0.0,0.0,0.0,0.0,0.0,0.0,0.0,0.0,0.0,0.0,0.0,0.0,0.0,0.0,0.0,0.0,0.0,0.0,0.0,0.0,0.0,0.0,0.0,0.0,0.0,0.0,0.0,0.0,0.0,0.0,0.0,0.0,0.0,0.0,0.0,0.0,0.0,0.0,0.0,0.0,0.0,0.0,0.0,0.0,0.0,0.0,0.0,0.0,0.0,0.0,0.0,0.0,0.0,0.0,0.0,0.0,0.0,0.0,0.0,0.0,0.0,0.0,0.0,0.0,0.0,0.0,0.0,0.0,0.0,0.0,0.0,0.0,0.0,0.0,0.0,0.0,0.0,0.0,0.0,0.0,0.0,0.0,0.0,0.0,0.0,0.0,0.0,0.0,0.0,0.0,0.0,0.0,0.0,0.0,0.0,0.0,0.0,0.0,0.0,0.0,0.0,0.0,0.0,0.0,0.0,0.0,0.0,0.0,0.0,0.0,0.0,0.0,0.0,0.0,0.0,0.0,0.0,0.0,0.0,0.0,0.0,0.0,0.0,0.0,0.0,0.0,0.0,0.0,0.0,0.0,0.0,0.0,0.0,0.0,0.0,0.0,0.0,0.0,0.0,0.0,0.0,0.0,0.0,0.0,0.0,0.0,0.0,0.0,0.0,0.0,0.0,0.0,0.0,0.0,0.0,0.0,0.0,0.0,0.0,0.0,0.0,0.0,0.0,0.0,0.0,0.0,0.0,0.0,0.0,0.0,0.0,0.0,0.0,0.0,0.0,0.0,0.0,0.0,0.0,0.0,0.0,0.0,0.0,0.0,0.0,0.0,0.0,0.0,0.0,0.0,0.0,0.0,0.0,0.0,0.0,0.0,0.0,0.0,0.0,0.0,0.0,0.0,0.0,0.0,0.0,0.0,0.0,0.0,0.0,0.0,0.0,0.0,0.0,0.0,0.0,0.0,0.0,0.0,0.0,0.0,0.0,0.0,0.0,0.0,0.0,0.0,0.0,0.0,0.0,0.0,0.0,0.0,0.0,0.0,0.0,0.0,0.0,0.0,0.0,0.0,0.0,0.0,0.0,0.0,0.0,0.0,0.0,0.0,0.0,0.0,0.0,0.0,0.0,0.0,0.0,0.0,0.0,0.0,0.0,0.0,0.0,0.0,0.0,0.0,0.0,0.0,0.0,0.0,0.0,0.0,0.0,0.0,0.0,0.0,0.0,0.0,0.0,0.0,0.0,0.0,0.0,0.0,0.0,0.0,0.0,0.0,0.0,0.0,0.0,0.0,0.0,0.0,0.0,0.0,0.0,0.0,0.0,0.0,0.0,0.0,0.0,0.0,0.0,0.0,0.0,0.0,0.0,0.0,0.0,0.0,0.0,0.0,0.0,0.0,0.0,0.0,0.0,0.0,0.0,0.0,0.0,0.0,0.0,0.0,0.0,0.0,0.0,0.0,0.0,0.0,0.0,0.0,0.0,0.0,0.0,0.0,0.0,0.0,0.0,0.0,0.0,0.0,0.0,0.0,0.0,0.0,0.0,0.0,0.0,0.0,0.0,0.0,0.0,0.0,0.0,0.0,0.0,0.0,0.0,0.0,0.0,0.0,0.0,0.0,0.0,0.0,0.0,0.0,0.0,0.0,0.0,0.0,0.0,0.0,0.0,0.0,0.0,0.0,0.0,0.0,0.0,0.0,0.0,0.0,0.0,0.0,0.0,0.0,0.0,0.0,0.0,0.0,0.0,0.0,0.0,0.0,0.0,0.0,0.0,0.0,0.0,0.0,0.0,0.0,0.0,0.0,0.0,0.0,0.0,0.0,0.0,0.0,0.0,0.0,0.0,0.0,0.0,0.0,0.0,0.0,0.0,0.0,0.0,0.0,0.0,0.0,0.0,0.0,0.0,0.0,0.0,0.0,0.0,0.0,0.0,0.0,0.0,0.0,0.0,0.0,0.0,0.0,0.0,0.0,0.0,0.0,0.0,0.0,0.0,0.0,0.0,0.0,0.0,0.0,0.0,0.0,0.0,0.0,0.0,0.0,0.0,0.0,0.0,0.0,0.0,0.0,0.0,0.0,0.0,0.0,0.0,0.0,0.0,0.0,0.0,0.0,0.0,0.0,0.0,0.0,0.0,0.0,0.0,0.0,0.0,0.0,0.0,0.0,0.0,0.0,0.0,0.0,0.0,0.0,0.0,0.0,0.0,0.0,0.0,0.0,0.0,0.0,0.0,0.0,0.0,0.0,0.0,0.0,0.0,0.0,0.0,0.0,0.0,0.0,0.0,0.0,0.0,0.0,0.0,0.0,0.0,0.0,0.0,0.0,0.0,0.0,0.0,0.0,0.0,0.0,0.0,0.0,0.0,0.0,0.0,0.0,0.0,0.0,0.0,0.0,0.0,0.0,0.0,0.0,0.0,0.0,0.0,0.0,0.0,0.0,0.0,0.0,0.0,0.0,0.0,0.0,0.0,0.0,0.0,0.0,0.0,0.0,0.0,0.0,0.0,0.0,0.0,0.0,0.0,0.0,0.0,0.0,0.0,0.0,0.0,0.0,0.0,0.0,0.0,0.0,0.0,0.0,0.0,0.0,0.0,0.0,0.0,0.0,0.0,0.0,0.0,0.0,0.0,0.0,0.0,0.0,0.0,0.0,0.0,0.0,0.0,0.0,0.0,0.0,0.0,0.0,0.0,0.0,0.0,0.0,0.0,0.0,0.0,0.0,0.0,0.0,0.0,0.0,0.0,0.0,0.0,0.0,0.0,0.0,0.0,0.0,0.0,0.0,0.0,0.0,0.0,0.0,0.0,0.0,0.0,0.0,0.0,0.0,0.0,0.0,0.0,0.0,0.0,0.0,0.0,0.0,0.0,0.0,0.0,0.0,0.0,0.0,0.0,0.0,0.0,0.0,0.0,0.0,0.0,0.0,0.0,0.0,0.0,0.0,0.0,0.0,0.0,0.0,0.0,0.0,0.0,0.0,0.0,0.0,0.0,0.0,0.0,0.0,0.0,0.0,0.0,0.0,0.0,0.0,0.0,0.0,0.0,0.0,0.0,0.0,0.0,0.0,0.0,0.0,0.0,0.0,0.0,0.0,0.0,0.0,0.0,0.0,0.0,0.0,0.0,0.0,0.0,0.0,0.0,0.0,0.0,0.0,0.0,0.0,0.0,0.0,0.0,0.0,0.0,0.0,0.0,0.0,0.0,0.0,0.0,0.0,0.0,0.0,0.0,0.0,0.0,0.0,0.0,0.0,0.0,0.0,0.0,0.0,0.0,0.0,0.0,0.0,0.0,0.0,0.0,0.0,0.0,0.0,0.0,0.0,0.0,0.0,0.0,0.0,0.0,0.0,0.0,0.0,0.0,0.0,0.0,0.0,0.0,0.0,0.0,0.0,0.0,0.0,0.0,0.0,0.0,0.0,0.0,0.0,0.0,0.0,0.0,0.0,0.0,0.0,0.0,0.0,0.0,0.0,0.0,0.0,0.0,0.0,0.0,0.0,0.0,0.0,0.0,0.0,0.0,0.0,0.0,0.0,0.0,0.0,0.0,0.0,0.0,0.0,0.0,0.0,0.0,0.0,0.0,0.0,0.0,0.0,0.0,0.0,0.0,0.0,0.0,0.0,0.0,0.0,0.0,0.0,0.0,0.0,0.0,0.0,0.0,0.0,0.0,0.0,0.0,0.0,0.0,0.0,0.0,0.0,0.0,0.0,0.0,0.0,0.0,0.0,0.0,0.0,0.0,0.0,0.0,0.0,0.0,0.0,0.0,0.0,0.0,0.0,0.0,0.0,0.0,0.0,0.0,0.0,0.0,0.0,0.0,0.0,0.0,0.0,0.0,0.0,0.0,0.0,0.0,0.0,0.0,0.0,0.0,0.0,0.0,0.0,0.0,0.0,0.0,0.0,0.0,0.0,0.0,0.0,0.0,0.0,0.0,0.0,0.0,0.0,0.0,0.0,0.0,0.0,0.0,0.0,0.0,0.0,0.0,0.0,0.0,0.0,0.0,0.0,0.0,0.0,0.0,0.0,0.0,0.0,0.0,0.0,0.0,0.0,0.0,0.0,0.0,0.0,0.0,0.0,0.0,0.0,0.0,0.0,0.0,0.0,0.0,0.0,0.0,0.0,0.0,0.0,0.0,0.0,0.0,0.0,0.0,0.0,0.0,0.0,0.0,0.0,0.0,0.0,0.0,0.0,0.0,0.0,0.0,0.0,0.0,0.0,0.0,0.0,0.0,0.0,0.0,0.0,0.0,0.0,0.0,0.0,0.0,0.0,0.0,0.0,0.0,0.0,0.0,0.0,0.0,0.0,0.0,0.0,0.0,0.0,0.0,0.0,0.0,0.0,0.0,0.0,0.0,0.0,0.0,0.0,0.0,0.0,0.0,0.0,0.0,0.0,0.0,0.0,0.0,0.0,0.0,0.0,0.0,0.0,0.0,0.0,0.0,0.0,0.0,0.0,0.0,0.0,0.0,0.0,0.0,0.0,0.0,0.0,0.0,0.0,0.0,0.0,0.0,0.0,0.0,0.0,0.0,0.0,0.0,0.0,0.0,0.0,0.0,0.0,0.0,0.0,0.0,0.0,0.0,0.0,0.0,0.0,0.0,0.0,0.0,0.0,0.0,0.0,0.0,0.0,0.0,0.0,0.0,0.0,0.0,0.0,0.0,0.0,0.0,0.0,0.0,0.0,0.0,0.0,0.0,0.0,0.0,0.0,0.0,0.0,0.0,0.0,0.0,0.0,0.0,0.0,0.0,0.0,0.0,0.0,0.0,0.0,0.0,0.0,0.0,0.0,0.0,0.0,0.0,0.0,0.0,0.0,0.0,0.0,0.0,0.0,0.0,0.0,0.0,0.0,0.0,0.0,0.0,0.0,0.0,0.0,0.0,0.0,0.0,0.0,0.0,0.0,0.0,0.0,0.0,0.0,0.0,0.0,0.0,0.0,0.0,0.0,0.0,0.0,0.0,0.0,0.0,0.0,0.0,0.0,0.0,0.0,0.0,0.0,0.0,0.0,0.0,0.0,0.0,0.0,0.0,0.0,0.0,0.0,0.0,0.0,0.0,0.0,0.0,0.0,0.0,0.0,0.0,0.0,0.0,0.0,0.0,0.0,0.0,0.0,0.0,0.0,0.0,0.0,0.0,0.0,0.0,0.0,0.0,0.0,0.0,0.0,0.0,0.0,0.0,0.0,0.0,0.0,0.0,0.0,0.0,0.0,0.0,0.0,0.0,0.0,0.0,0.0,0.0,0.0,0.0,0.0,0.0,0.0,0.0,0.0,0.0,0.0,0.0,0.0,0.0,0.0,0.0,0.0,0.0,0.0,0.0,0.0,0.0,0.0,0.0,0.0,0.0,0.0,0.0,0.0,0.0,0.0,0.0,0.0,0.0,0.0,0.0,0.0,0.0,0.0,0.0,0.0,0.0,0.0,0.0,0.0,0.0,0.0,0.0,0.0,0.0,0.0,0.0,0.0,0.0,0.0,0.0,0.0,0.0,0.0,0.0,0.0,0.0,0.0,0.0,0.0,0.0,0.0,0.0,0.0,0.0,0.0,0.0,0.0,0.0,0.0,0.0,0.0,0.0,0.0,0.0,0.0,0.0,0.0,0.0,0.0,0.0,0.0,0.0,0.0,0.0,0.0,0.0,0.0,0.0,0.0,0.0,0.0,0.0,0.0,0.0,0.0,0.0,0.0,0.0,0.0,0.0,0.0,0.0,0.0,0.0,0.0,0.0,0.0,0.0,0.0,0.0,0.0,0.0,0.0,0.0,0.0,0.0,0.0,0.0,0.0,0.0,0.0,0.0,0.0,0.0,0.0,0.0,0.0,0.0,-1.6127,-1.5682,0.0,0.0,0.0,0.0,0.0,0.0,0.0,0.0,0.0,0.0,0.0,0.0,0.0,0.0,0.0,0.0,0.0,0.0,0.0,0.0,0.0,0.0,0.0,-2.2939,-2.2878,-2.2878,-2.2818,-2.288,-2.3003,-2.2872,0.0,0.0,0.0,0.0,-2.3482,-2.3846,-2.3992,-2.3893,-2.3893,-2.386,-2.3794,-2.324,-2.2975,-2.2943,0.0,0.0,0.0,0.0,0.0,0.0,0.0,0.0,0.0,0.0,0.0,0.0,0.0,0.0,0.0,0.0,0.0,0.0,0.0,0.0,0.0,0.0,0.0,0.0,0.0,0.0,0.0,0.0,0.0,0.0,0.0,0.0,0.0,0.0,0.0,0.0,0.0,0.0,0.0,0.0,0.0,0.0,0.0,0.0,0.0,0.0,0.0,0.0,0.0,0.0,0.0,0.0,0.0,0.0,0.0,0.0,0.0,0.0,0.0,0.0,0.0,0.0,0.0,0.0,0.0,0.0,0.0,0.0,0.0,0.0,-1.717,-1.6573,0.0,0.0,0.0,0.0,0.0,0.0,0.0,0.0,0.0,0.0,0.0,0.0,0.0,0.0,0.0,0.0,0.0,0.0,0.0,0.0,0.0,-2.3095,-2.3095,-2.3195,-2.3246,-2.3246,-2.3224,-2.3412,-2.3853,-2.3592,-2.3628,-2.4034,-2.4131,-2.418,-2.418,-2.4467,-2.4516,-2.4326,-2.4326,-2.4259,-2.4183,-2.4183,-2.415,0.0,0.0,0.0,0.0,0.0,0.0,0.0,0.0,0.0,0.0,0.0,0.0,0.0,0.0,0.0,0.0,0.0,0.0,0.0,0.0,0.0,0.0,0.0,0.0,0.0,0.0,0.0,0.0,0.0,0.0,0.0,0.0,0.0,0.0,0.0,0.0,0.0,0.0,0.0,0.0,0.0,0.0,0.0,0.0,0.0,0.0,0.0,0.0,0.0,0.0,0.0,0.0,0.0,0.0,0.0,0.0,0.0,0.0,0.0,0.0,0.0,0.0,0.0,0.0,0.0,-2.0296,-2.0296,-2.0296,-2.0245,-2.0246,-2.0118,-1.8163,-1.7506,-1.7751,-1.7192,0.0,0.0,0.0,0.0,0.0,0.0,0.0,0.0,0.0,0.0,0.0,0.0,0.0,0.0,0.0,0.0,0.0,0.0,0.0,-2.3095,-2.3095,-2.3577,-2.3879,-2.3879,-2.4299,-2.4536,-2.4482,-2.4442,-2.4369,-2.4255,-2.4697,-2.4967,-2.4967,-2.5468,-2.5654,-2.5654,-2.5654,-2.562,-2.562,-2.562,-2.5516,-2.5328,-2.4198,0.0,0.0,0.0,0.0,0.0,0.0,0.0,0.0,0.0,0.0,0.0,0.0,0.0,0.0,0.0,0.0,0.0,0.0,0.0,0.0,0.0,0.0,0.0,0.0,0.0,0.0,0.0,0.0,0.0,0.0,0.0,0.0,0.0,0.0,0.0,0.0,0.0,0.0,0.0,0.0,0.0,0.0,0.0,-1.961,-1.9887,0.0,0.0,0.0,0.0,0.0,0.0,0.0,0.0,0.0,0.0,0.0,0.0,0.0,-2.0598,-2.0544,-2.0598,-2.0624,-2.0624,-2.0624,-2.0624,-2.0624,-2.0498,-2.0474,-2.0423,-1.994,0.0,-1.893,-1.826,0.0,0.0,0.0,0.0,0.0,0.0,0.0,0.0,0.0,0.0,0.0,0.0,0.0,0.0,0.0,0.0,0.0,0.0,0.0,0.0,0.0,-2.413,-2.4456,-2.4456,-2.465,-2.4926,-2.5161,-2.5054,-2.5136,-2.5367,-2.558,-2.5704,-2.5704,-2.6064,-2.6188,-2.605,-2.5945,-2.591,-2.591,-2.591,-2.5805,-2.5581,-2.5178,-2.4687,-2.4169,-2.3914,0.0,0.0,0.0,0.0,0.0,0.0,0.0,0.0,0.0,0.0,0.0,0.0,0.0,0.0,0.0,0.0,0.0,0.0,0.0,0.0,0.0,0.0,0.0,0.0,0.0,0.0,0.0,0.0,0.0,0.0,0.0,0.0,0.0,0.0,0.0,0.0,0.0,0.0,0.0,-2.089,-2.0637,-2.0644,-2.0646,-2.0656,0.0,0.0,0.0,0.0,0.0,0.0,0.0,0.0,0.0,-2.0699,-2.0699,-2.0699,-2.0699,-2.0699,-2.0699,-2.0699,-2.0699,-2.0699,-2.0699,-2.0624,-2.0599,-2.0599,-2.0423,-2.0143,-1.9736,-1.9358,-1.9207,-1.9207,0.0,0.0,0.0,0.0,-1.9108,-1.9058,0.0,0.0,0.0,0.0,0.0,0.0,0.0,0.0,0.0,0.0,0.0,0.0,-2.4243,-2.4771,-2.5066,-2.5034,-2.5159,-2.541,-2.5787,-2.5845,-2.608,-2.6508,-2.6533,-2.6611,-2.6782,-2.6782,-2.6602,-2.6283,-2.6268,-2.6247,-2.6247,-2.6396,-2.623,-2.5895,-2.6037,-2.5578,-2.4699,-2.4406,-2.4165,0.0,0.0,0.0,0.0,0.0,0.0,0.0,0.0,0.0,0.0,0.0,0.0,0.0,0.0,0.0,0.0,0.0,0.0,0.0,0.0,0.0,0.0,0.0,0.0,0.0,0.0,0.0,0.0,0.0,0.0,0.0,0.0,0.0,0.0,0.0,0.0,0.0,0.0,-2.2394,-2.1997,-2.1724,-2.1699,-2.1624,0.0,0.0,0.0,0.0,0.0,0.0,-2.1246,-2.117,-2.1119,-2.1144,-2.1119,-2.1119,-2.1144,-2.1119,-2.1119,-2.1144,-2.1144,-2.1144,-2.1144,-2.1119,-2.1119,-2.1144,-2.1016,-2.0888,-2.0733,-2.022,-1.999,-1.9939,-1.9837,-1.9811,-1.9811,-1.9811,-1.9811,-1.9736,0.0,0.0,0.0,0.0,0.0,0.0,0.0,0.0,0.0,0.0,0.0,-2.4405,-2.4995,-2.5521,-2.5785,-2.5594,-2.6097,-2.6424,-2.6449,-2.7043,-2.7411,-2.7438,-2.7404,-2.7736,-2.8363,-2.7769,-2.7129,-2.6499,-2.6992,-2.7243,-2.7243,-2.7734,-2.7528,-2.6636,-2.6672,-2.6139,-2.5276,-2.5428,-2.5102,-2.4448,0.0,0.0,0.0,0.0,0.0,0.0,0.0,0.0,0.0,0.0,0.0,0.0,0.0,0.0,0.0,0.0,0.0,0.0,0.0,0.0,0.0,0.0,0.0,0.0,0.0,0.0,0.0,0.0,0.0,0.0,0.0,0.0,0.0,0.0,0.0,0.0,0.0,0.0,0.0,-2.3612,-2.3561,0.0,0.0,0.0,0.0,-2.3172,-2.2857,-2.2671,-2.2671,-2.2457,-2.2296,-2.2296,-2.2296,-2.2296,-2.2296,-2.2296,-2.2296,-2.2296,-2.2296,-2.2296,-2.2296,-2.2296,-2.2296,-2.2296,-2.2296,-2.2296,-2.2189,-2.0629,-1.9914,-1.9811,-1.9811,-1.9811,-1.9811,-1.9811,-1.9811,-1.9811,0.0,0.0,0.0,0.0,0.0,-2.3894,-2.3832,-2.4056,-2.4278,-2.4453,-2.5058,-2.5692,-2.6199,-2.6345,-2.6711,-2.7419,-2.7267,-2.733,-2.7769,-2.8032,-2.8136,-2.8136,-2.8136,-2.8454,-2.9122,-2.9302,-2.9247,-2.9008,-2.922,-2.9048,-2.8582,-2.8789,-2.8333,-2.7396,-2.7421,-2.7078,-2.6469,-2.572,-2.5274,-2.5035,-2.5035,-2.4915,0.0,0.0,0.0,0.0,0.0,0.0,0.0,0.0,0.0,0.0,0.0,0.0,0.0,0.0,0.0,0.0,0.0,0.0,0.0,0.0,0.0,0.0,0.0,0.0,0.0,0.0,0.0,0.0,0.0,0.0,0.0,0.0,0.0,0.0,0.0,0.0,0.0,-2.3721,-2.3695,0.0,-2.3332,-2.328,-2.328,-2.328,-2.3201,-2.3122,-2.3122,-2.3017,-2.2964,-2.299,-2.2778,-2.2671,-2.2671,-2.2482,-2.2401,-2.24,-2.24,-2.24,-2.24,-2.2401,-2.2401,-2.2401,-2.2401,-2.2347,-2.2212,-2.1663,-2.117,-2.0732,-2.0143,-1.9939,-1.9939,-1.9939,-1.9862,-1.9811,0.0,0.0,0.0,0.0,-2.439,-2.45,-2.4831,-2.5149,-2.5462,-2.586,-2.6511,-2.7131,-2.7669,-2.7564,-2.7802,-2.8588,-2.8136,-2.8038,-2.8583,-2.894,-2.9173,-2.9173,-2.9624,-2.9831,-2.9813,-3.0458,-3.065,-3.0412,-3.0603,-3.0296,-2.9545,-2.9755,-2.9222,-2.8114,-2.8102,-2.7792,-2.7249,-2.6324,-2.5804,-2.5564,-2.5372,-2.53,-2.5276,0.0,0.0,0.0,0.0,0.0,0.0,0.0,0.0,0.0,0.0,0.0,0.0,0.0,0.0,0.0,0.0,0.0,0.0,0.0,0.0,0.0,0.0,0.0,0.0,0.0,0.0,0.0,0.0,0.0,0.0,0.0,0.0,0.0,0.0,-2.4978,-2.4645,-2.4462,-2.4436,-2.4357,-2.4199,-2.4172,-2.4172,-2.4172,-2.4284,-2.434,-2.434,-2.445,-2.4504,-2.4504,-2.4172,-2.3978,-2.3978,-2.3695,-2.355,-2.355,-2.355,-2.355,-2.355,-2.355,-2.3553,-2.3553,-2.3369,-2.3208,-2.3098,-2.2708,-2.229,-2.1847,-2.1014,-2.0652,-2.0652,-2.06,-2.0394,-2.014,0.0,0.0,0.0,-2.4877,-2.5018,-2.5408,-2.6582,-2.6694,-2.7142,-2.8523,-2.8542,-2.8675,-2.9258,-2.9156,-2.9034,-2.9066,-2.8748,-2.8648,-2.8894,-2.9927,-3.0552,-3.058,-3.1814,-3.1899,-3.0542,-3.1238,-3.1238,-3.0535,-3.1108,-3.0985,-3.0184,-3.0708,-3.016,-2.8787,-2.8787,-2.8313,-2.757,-2.7347,-2.6808,-2.613,-2.5564,-2.5324,-2.5324,0.0,0.0,0.0,0.0,0.0,0.0,0.0,0.0,0.0,0.0,0.0,0.0,0.0,0.0,0.0,0.0,0.0,0.0,0.0,0.0,0.0,0.0,0.0,0.0,0.0,0.0,0.0,0.0,0.0,0.0,0.0,0.0,0.0,-2.5907,-2.5907,-2.5907,-2.5907,-2.5907,-2.5907,-2.5936,-2.5936,-2.5936,-2.5964,-2.6245,-2.6436,-2.6436,-2.6752,-2.693,-2.693,-2.6536,-2.6325,-2.6325,-2.6011,-2.5824,-2.5824,-2.5824,-2.5824,-2.5824,-2.5824,-2.5824,-2.5767,-2.5254,-2.5018,-2.494,-2.3759,-2.3261,-2.3182,-2.2334,-2.1992,-2.1964,-2.1799,-2.1388,-2.0829,0.0,0.0,-2.4677,-2.439,-2.5048,-2.5744,-2.6154,-2.6885,-2.7706,-2.8609,-2.8998,-2.9397,-2.9964,-2.956,-2.9563,-3.0447,-2.9964,-2.9978,-3.0898,-3.1255,-3.1604,-3.1936,-3.2764,0.0,-3.2687,-3.3279,-3.3508,-3.3311,-3.3448,-3.3127,-3.2329,-3.2494,-3.1748,-3.0312,-3.0124,-2.9631,-2.8831,-2.8246,-2.7886,-2.7591,-2.6372,-2.5877,-2.5829,0.0,0.0,0.0,0.0,0.0,0.0,0.0,0.0,0.0,0.0,0.0,0.0,0.0,0.0,0.0,0.0,0.0,0.0,0.0,0.0,0.0,0.0,0.0,0.0,0.0,0.0,0.0,0.0,0.0,0.0,0.0,-2.7397,-2.6975,-2.602,-2.5907,-2.5907,-2.5907,-2.5907,-2.6076,-2.6526,-2.6554,-2.675,-2.7257,-2.7367,-2.7422,-2.7422,-2.7502,-2.7527,-2.7527,-2.7203,-2.7053,-2.7053,-2.6749,-2.6597,-2.6597,-2.6597,-2.6444,-2.614,-2.614,-2.6042,-2.5793,-2.5636,-2.5589,-2.5563,-2.5219,-2.4857,-2.436,-2.2756,-2.2156,-2.2129,-2.2074,-2.1863,-2.1573,0.0,-2.4447,-2.4793,-2.4821,-2.5772,-2.6718,-2.7399,-2.8283,-2.9117,-2.9782,-3.0128,-3.0478,-3.0777,-3.0388,-3.0418,-3.119,-3.1011,-3.1182,-3.1955,-3.2392,-3.282,0.0,0.0,-3.3877,-3.3877,-3.4225,-3.4399,-3.4399,-3.4399,-3.3997,-3.3178,-3.3178,-3.2577,-3.1378,-3.0932,-3.0443,-2.9986,-2.9492,-2.9061,-2.868,-2.7866,-2.7115,-2.6492,-2.5961,-2.5708,-2.5612,-2.5467,-2.537,-2.53,-2.53,0.0,0.0,0.0,0.0,0.0,0.0,0.0,0.0,0.0,0.0,0.0,0.0,0.0,0.0,0.0,0.0,0.0,0.0,0.0,0.0,0.0,0.0,0.0,0.0,-2.796,-2.7538,-2.6807,-2.6722,-2.6722,-2.6722,-2.6722,-2.6807,-2.7172,-2.7228,-2.7369,-2.7763,-2.8044,-2.8185,-2.8185,-2.8408,-2.8549,-2.8549,-2.8219,-2.8066,-2.8066,-2.7759,-2.7538,-2.7413,-2.7413,-2.7288,-2.704,-2.6882,-2.6786,-2.6722,-2.6358,-2.619,-2.6164,-2.5897,-2.5615,-2.5197,0.0,0.0,0.0,0.0,-2.2409,-2.2217,-2.3802,-2.4247,-2.4823,-2.555,-2.6743,-2.8033,-2.9255,-3.0048,-3.0761,-3.1421,-3.1511,-3.1511,-3.1511,-3.1365,-3.1365,-3.1511,-3.1842,-3.2196,-3.2465,-3.3279,0.0,-3.4404,-3.4428,-3.4428,-3.4399,-3.4399,-3.4399,-3.4399,-3.4486,-3.4146,-3.3431,-3.3515,-3.3099,-3.2291,-3.1569,-3.1172,-3.1007,-3.0745,-3.0241,-2.9563,-2.9529,-2.8624,-2.7272,-2.6737,-2.6408,-2.6227,-2.5911,-2.5621,-2.5431,-2.5431,0.0,0.0,0.0,0.0,0.0,0.0,0.0,0.0,0.0,0.0,0.0,0.0,0.0,0.0,0.0,0.0,0.0,0.0,0.0,0.0,0.0,0.0,0.0,0.0,-2.8324,-2.8016,-2.8016,-2.8016,-2.796,-2.7819,-2.7819,-2.7847,-2.7904,-2.796,-2.8044,-2.8101,-2.8661,-2.8998,-2.8998,-2.9532,0.0,0.0,0.0,-2.937,-2.937,-2.9082,-2.8758,-2.8463,-2.8463,-2.8404,-2.8252,-2.7894,-2.7835,-2.7987,-2.7164,-2.6798,-2.6771,-2.6216,-2.595,-2.5876,-2.5275,-2.4753,-2.42,-2.3511,-2.3134,-2.2914,-2.3599,-2.4509,-2.5133,-2.4823,-2.6688,-2.8334,-2.8675,-2.974,-3.0761,-3.1421,-3.1511,-3.1511,-3.1511,-3.1482,-3.1482,-3.1511,-3.2049,-3.2795,-3.3773,-3.3878,-3.4126,-3.4635,-3.4631,-3.4563,-3.4399,-3.4399,-3.4399,-3.4399,-3.4922,-3.5149,-3.501,-3.5466,-3.5018,-3.3784,-3.364,-3.2937,-3.1819,-3.1119,-3.0745,-3.0557,-2.9732,-2.8883,-2.8022,-2.7496,-2.7238,-2.7238,-2.7176,-2.6748,-2.619,-2.619,-2.5768,-2.53,-2.53,0.0,0.0,0.0,0.0,0.0,0.0,0.0,0.0,0.0,0.0,0.0,0.0,0.0,0.0,0.0,0.0,0.0,0.0,0.0,0.0,-2.942,-2.9336,-2.9251,-2.9251,-2.9251,-2.8886,-2.7932,-2.7819,-2.7988,-2.8464,-2.897,-2.9448,-2.9954,-3.06,-3.0937,-3.0937,-3.105,-3.1134,-3.1134,-3.1068,-3.1035,-3.1035,-3.0969,-3.0903,-3.0837,-3.0837,0.0,-2.924,-2.914,-2.8572,-2.759,-2.7419,-2.7333,-2.7333,-2.7203,-2.6922,-2.6484,-2.5876,-2.5558,-2.5401,-2.4827,-2.4502,-2.4249,-2.375,-2.4567,-2.5245,-2.5384,-2.7275,-2.8771,-2.8789,-3.0064,-3.1122,-3.1364,-3.1482,-3.1511,-3.1511,-3.1511,-3.1511,-3.1511,-3.2108,-3.2975,-3.4129,-3.4154,-3.4289,-3.4668,-3.4698,-3.4597,-3.4399,-3.4399,-3.4399,-3.4399,-3.5072,-3.5392,-3.5421,-3.6025,-3.5754,-3.4768,-3.4376,-3.3617,-3.2613,-3.2191,-3.1636,-3.0895,-3.0782,-3.0087,-2.8996,-2.8287,-2.8014,-2.789,-2.7693,-2.7348,-2.6944,-2.6944,-2.6664,-2.6191,-2.5949,-2.578,-2.5709,0.0,0.0,0.0,0.0,0.0,0.0,0.0,0.0,0.0,0.0,0.0,0.0,0.0,0.0,-2.8939,-2.8776,0.0,-2.9775,-2.9648,-2.9617,-2.9617,-2.9617,-2.9869,-2.9729,-2.8802,-2.897,-2.9279,-2.9588,-3.0178,-3.0684,-3.0993,-3.1302,-3.1499,-3.1499,-3.1499,-3.1499,-3.1499,-3.1499,-3.1499,-3.1499,-3.1499,-3.1405,-3.1205,-3.1205,-3.0871,-3.0172,-3.0031,-2.9572,-2.8932,-2.8762,-2.8373,-2.7941,-2.762,-2.7333,-2.7079,-2.6759,-2.6289,-2.5767,-2.5511,-2.5318,-2.52,-2.416,-2.4766,-2.5411,-2.6265,-2.7868,-2.9129,-2.9247,-3.0507,-3.1424,-3.1278,-3.1424,-3.1511,-3.1482,-3.1482,-3.154,-3.169,-3.2079,-3.2825,0.0,-3.4101,-3.4238,-3.4668,-3.4765,-3.4664,-3.4399,-3.4462,-3.4462,-3.4399,-3.5072,-3.5392,-3.5421,-3.6025,-3.5967,-3.5357,-3.4732,-3.4044,-3.3416,-3.3248,-3.2506,-3.1389,-3.1892,-3.1368,-3.0165,-2.953,-2.9089,-2.8736,-2.835,-2.8064,-2.7903,-2.778,-2.7656,-2.741,-2.6785,-2.6602,-2.6566,-2.642,-2.6058,0.0,0.0,0.0,0.0,0.0,0.0,0.0,0.0,0.0,-2.7644,-2.8684,-2.9129,-2.9407,-2.9654,-2.9808,-2.9839,-2.9741,-2.9763,-2.9816,-2.9816,-3.0319,-3.0516,-3.0038,-3.0403,-3.068,-3.068,-3.1302,-3.1668,-3.1668,-3.178,-3.1836,-3.1836,-3.1836,-3.1836,-3.1836,-3.1836,-3.1836,-3.1836,-3.1836,-3.1702,-3.1369,-3.1369,-3.128,-3.1074,-3.0802,-3.0576,-3.0398,-2.9992,-2.9345,-2.8551,-2.8046,-2.7777,-2.7646,-2.7646,-2.702,-2.6106,-2.6002,-2.5981,-2.595,0.0,-2.5384,-2.5993,-2.661,-2.7964,-2.9137,-2.9723,-3.0688,-3.1248,-3.1132,-3.1336,-3.1453,-3.1336,-3.1453,-3.175,-3.2318,-3.1899,0.0,-3.407,-3.384,-3.3921,-3.4673,-3.4997,-3.4931,-3.4399,-3.4597,-3.4597,-3.4399,-3.5072,-3.5392,-3.5421,-3.6025,-3.5967,-3.5392,-3.5323,-3.4906,-3.423,-3.352,-3.3108,-3.2897,-3.2326,-3.2001,-3.1819,-3.1738,-3.1235,-3.0491,-2.9834,-2.9555,-2.9442,-2.8787,-2.8547,-2.842,-2.7606,-2.7837,-2.8246,-2.7544,0.0,-2.7275,-2.7434,-2.7512,-2.7946,-2.9444,-2.8774,-2.8065,0.0,0.0,-2.8935,-2.862,-2.9563,-3.0176,-2.9498,-2.9839,-3.0205,-3.008,-3.0381,-3.0687,-3.0687,-3.1063,-3.1359,-3.1302,-3.1331,-3.1387,-3.1387,-3.1949,-3.2314,-3.2314,-3.282,-3.3094,-3.3094,-3.3094,-3.3094,-3.3094,-3.3094,-3.3094,-3.3094,-3.3094,-3.3094,-3.3031,-3.3031,-3.2577,-3.1771,-3.1737,-3.1227,-3.0398,-2.9992,-2.9583,-2.9205,-2.9118,-2.8778,-2.8281,-2.8281,-2.7889,-2.7255,-2.6765,-2.6614,-2.6536,0.0,-2.6547,-2.7286,-2.8254,-2.8681,-2.908,-2.9638,-3.0573,-3.1132,-3.0955,-3.1132,-3.1278,-3.1278,-3.1424,-3.1571,-3.1781,-3.1631,0.0,-3.3691,-3.3511,-3.3769,-3.4743,-3.4898,-3.4765,-3.4399,-3.4496,-3.4496,-3.4399,-3.5072,-3.5392,-3.5421,-3.6025,-3.5967,-3.5392,-3.5392,-3.5043,-3.4366,-3.4031,-3.3624,-3.3178,-3.2861,-3.247,-3.211,-3.211,-3.2182,-3.2119,-3.1405,-3.0839,0.0,0.0,-2.9917,-2.9622,-2.8562,-2.8325,-2.84,-2.8063,-2.7729,0.0,-2.8228,-2.8739,-2.9451,0.0,-3.0174,-2.9717,-3.1009,-3.0913,-3.0624,-3.0789,-3.1295,-3.1459,-3.0617,-3.0688,-3.084,0.0,-3.0851,-3.1041,-3.1314,-3.1811,-3.2168,-3.2033,-3.2342,-3.2426,-3.2061,-3.2567,-3.2932,-3.2932,-3.315,-3.329,-3.329,-3.329,-3.329,-3.329,-3.329,-3.329,-3.329,-3.329,-3.329,-3.329,-3.329,-3.308,-3.2723,-3.2723,-3.2347,-3.1685,-3.0486,-3.0032,-3.0068,-2.9236,-2.8905,-2.8943,-2.8943,-2.8543,-2.7941,-2.7392,-2.7183,-2.7131,0.0,-2.7442,-2.8368,-2.9435,-2.9318,-2.9288,-2.9784,-3.0543,-3.0955,-3.0776,-3.0955,-3.1161,-3.1278,-3.1366,-3.1366,-3.1307,-3.1366,0.0,0.0,-3.3238,-3.3674,-3.4843,-3.4802,-3.4664,-3.4496,-3.4496,-3.4462,-3.4399,-3.4864,-3.5131,-3.5131,-3.5561,-3.5532,-3.5131,-3.5131,-3.4835,-3.4399,-3.4399,-3.4065,-3.352,-3.352,-3.3206,-3.272,-3.272,-3.2932,-3.3108,-3.2362,-3.1746,0.0,0.0,-3.1119,-3.0805,-2.9668,-2.9315,-2.9277,-2.8847,-2.8587,-2.8646,-2.9595,0.0,0.0,-3.1842,-3.1522,-3.1249,-3.2288,-3.2127,-3.1903,-3.2384,-3.2481,-3.2304,-3.1746,-3.1628,-3.1596,-3.1501,-3.1582,-3.1743,-3.2004,-3.2562,-3.2857,-3.2651,-3.3045,-3.3122,-3.2707,-3.3045,-3.329,-3.329,-3.329,-3.329,-3.329,-3.329,-3.329,-3.329,-3.329,-3.329,-3.329,-3.329,-3.329,-3.329,-3.329,-3.329,-3.329,-3.3086,-3.2846,-3.2605,-3.1135,-3.0576,-3.0659,-2.9803,-2.9398,-2.9366,-2.9295,-2.8896,-2.8326,-2.7877,-2.7642,-2.749,0.0,0.0,-2.8884,-2.9494,-2.9581,-2.9813,-3.0481,-3.0717,-3.0776,-3.0598,-3.0895,-3.1161,-3.1278,-3.119,-3.1161,-3.1278,-3.119,0.0,-3.293,-3.3018,-3.3579,-3.4843,-3.4902,-3.4835,-3.4698,-3.4698,-3.4597,-3.4399,-3.4428,-3.4428,-3.4428,-3.4457,-3.4457,-3.4428,-3.4428,-3.4428,-3.4399,-3.4399,-3.4366,-3.4366,-3.4366,-3.4332,-3.4332,-3.4332,-3.3859,-3.3108,-3.2362,0.0,0.0,0.0,-3.2037,-3.1928,-3.1093,-3.1352,0.0,-3.019,-3.0241,-3.0992,0.0,0.0,-3.2416,-3.3215,-3.2945,-3.2449,-3.2481,-3.2481,-3.2481,-3.2481,-3.2481,-3.2481,-3.2452,-3.2452,-3.2452,-3.2452,-3.2843,-3.3054,-3.2882,-3.3283,-3.3507,-3.3297,-3.3262,-3.3262,0.0,-3.3262,-3.329,-3.329,-3.329,-3.329,-3.329,-3.329,-3.329,-3.329,-3.329,-3.329,-3.329,-3.329,-3.329,-3.329,-3.329,-3.329,-3.329,-3.2497,-3.2354,-3.2668,-3.1819,-3.123,-3.0921,-3.1368,-3.0692,-2.946,-2.9274,-2.8845,-2.8326,-2.8301,-2.7969,-2.749,0.0,0.0,0.0,0.0,0.0,-3.0335,-3.0569,-3.0628,-3.0628,-3.0598,-3.0806,0.0,0.0,0.0,0.0,0.0,-3.1043,-3.1693,-3.3086,-3.2926,-3.3483,-3.5008,-3.4769,-3.4635,-3.4835,-3.4601,-3.453,-3.4597,-3.4496,-3.4399,-3.4399,-3.4399,-3.4399,-3.4399,-3.4399,-3.4399,-3.4399,-3.4399,-3.4399,-3.4399,-3.4399,-3.4399,-3.4399,-3.4399,-3.423,-3.3962,0.0,0.0,0.0,0.0,-3.2826,-3.2684,-3.1928,0.0,0.0,-3.1479,-3.1489,-3.1856,-3.2613,0.0,-3.3105,-3.3912,-3.3935,-3.379,-3.379,-3.379,-3.379,-3.379,-3.379,-3.3645,-3.3238,-3.3151,-3.3151,-3.3151,-3.3194,-3.3283,-3.3545,-3.3567,-3.3536,-3.3326,-3.329,0.0,0.0,0.0,0.0,-3.329,-3.329,-3.329,-3.329,-3.329,-3.329,-3.329,-3.329,-3.329,-3.329,-3.2775,-3.2775,-3.329,-3.2775,-3.2497,-3.2497,-3.2245,-3.1892,-3.1489,-3.123,-3.1156,-3.122,-3.0343,-3.0088,-3.0186,-3.0061,-2.9277,-2.8288,-2.8736,-2.8282,-2.7469,0.0,0.0,0.0,0.0,0.0,0.0,0.0,0.0,0.0,0.0,0.0,0.0,0.0,0.0,0.0,0.0,0.0,-3.1455,0.0,0.0,-3.3267,-3.4715,-3.4518,-3.4534,-3.4802,-3.4534,-3.4462,-3.4597,-3.4462,-3.4399,-3.4399,-3.4399,-3.4399,-3.4399,-3.4399,-3.4399,-3.4399,-3.4399,-3.4399,-3.4399,-3.4399,-3.4399,-3.4399,-3.4399,-3.4399,0.0,0.0,0.0,0.0,0.0,0.0,0.0,-3.2648,-3.229,-3.211,-3.211,-3.229,-3.2613,-3.3073,-3.3416,-3.3728,-3.4264,-3.4399,-3.4399,-3.4399,-3.4399,-3.4399,-3.4399,-3.4399,-3.4283,-3.3877,-3.379,-3.379,-3.379,-3.369,-3.3701,-3.3928,-3.3882,-3.3709,-3.3536,-3.3466,-3.3396,0.0,0.0,0.0,-3.329,-3.329,-3.329,-3.329,-3.329,-3.3157,-3.2881,-3.2846,-3.2739,-3.2453,-3.1955,-3.1955,-3.2453,-3.1919,-3.1673,-3.1673,-3.1378,-3.1119,-3.0895,-3.0594,-3.0632,-3.0809,-2.9922,-2.9729,-3.005,-2.9883,-2.922,-2.8358,-2.8782,-2.8169,-2.7141,0.0,0.0,0.0,0.0,0.0,0.0,0.0,0.0,0.0,0.0,0.0,0.0,0.0,0.0,0.0,0.0,0.0,0.0,0.0,0.0,0.0,-3.3932,-3.428,-3.4496,-3.4698,-3.453,-3.4399,-3.4428,-3.4399,-3.4399,-3.4399,-3.4399,-3.4399,-3.4399,-3.4399,-3.4399,-3.4399,-3.4399,-3.4399,-3.4399,-3.4399,-3.4399,-3.4399,-3.4399,0.0,0.0,0.0,0.0,0.0,0.0,0.0,0.0,0.0,-3.2791,-3.2218,-3.2218,-3.272,-3.3248,-3.3248,-3.3825,-3.4399,-3.4399,-3.4399,-3.4399,-3.4399,-3.4399,-3.4399,-3.4399,-3.4399,-3.4399,0.0,0.0,-3.4399,-3.4399,-3.4366,-3.4298,-3.4128,-3.4094,-3.4025,0.0,0.0,0.0,0.0,0.0,0.0,-3.3255,-3.3255,-3.3255,-3.3255,-3.3255,-3.2846,-3.2037,-3.2074,-3.1709,-3.0932,-3.0895,-3.0895,-3.0857,-3.0857,-3.0857,-3.082,-3.0024,-3.0063,-3.0745,-2.9986,-2.9704,-2.9742,-3.005,-2.9767,-2.9091,-2.887,-2.8657,-2.8459,-2.8483,-2.7671,-2.6625,0.0,0.0,0.0,0.0,0.0,0.0,0.0,0.0,0.0,0.0,0.0,0.0,0.0,0.0,0.0,0.0,0.0,0.0,0.0,0.0,0.0,0.0,0.0,0.0,0.0,0.0,0.0,0.0,0.0,-3.4399,-3.4399,-3.4399,-3.4399,-3.4399,-3.4399,-3.4399,-3.4399,-3.4399,-3.4399,-3.4399,0.0,-3.4399,-3.4399,0.0,0.0,0.0,0.0,0.0,0.0,0.0,0.0,0.0,0.0,-3.3962,-3.3825,-3.3825,-3.3928,-3.4065,-3.4065,-3.423,-3.4399,-3.4399,-3.4399,-3.4399,-3.4399,-3.4399,-3.4399,-3.4399,-3.4399,-3.4399,0.0,0.0,0.0,-3.4399,-3.4264,0.0,-3.4128,-3.402,0.0,-3.3709,0.0,-3.3536,-3.3396,-3.2775,0.0,0.0,-3.239,-3.239,-3.239,-3.239,-3.2064,-3.123,-3.1783,-3.1709,-3.0932,-3.0895,-3.0594,-3.0012,-3.0012,-3.0012,-3.0012,-2.9781,-2.9471,-2.9145,-2.951,-2.9704,-2.9665,-2.9145,-2.9106,-2.9316,-2.9106,-2.8618,-2.8082,-2.8403,-2.7964,-2.7244,0.0,0.0,0.0,0.0,0.0,0.0,0.0,0.0,0.0,0.0,0.0,0.0,0.0,0.0,0.0,0.0,0.0,0.0,0.0,0.0,0.0,0.0,0.0,0.0,0.0,0.0,0.0,0.0,0.0,0.0,0.0,-3.4399,-3.4399,-3.4399,-3.4399,-3.4399,-3.4399,0.0,0.0,0.0,0.0,0.0,0.0,0.0,0.0,0.0,0.0,0.0,0.0,0.0,0.0,-3.4399,-3.4399,-3.4399,-3.4399,-3.4399,0.0,-3.4399,-3.4399,-3.4399,-3.4399,-3.4399,-3.4399,-3.4399,-3.4399,-3.4399,-3.4399,-3.4399,-3.4399,0.0,-3.4399,-3.4399,0.0,0.0,0.0,0.0,-3.423,-3.4191,-3.3951,0.0,-3.3297,0.0,-3.2561,-3.1955,-3.1563,0.0,-3.1892,-3.1928,-3.1599,-3.1892,-3.1563,-3.0405,-3.082,-3.067,-2.9858,-2.9858,-2.9626,-2.9184,-2.9184,-2.9184,-2.9184,-2.9184,-2.8934,-2.8522,-2.8988,-2.9184,-2.9145,-2.8697,-2.8697,-2.8964,-2.8895,-2.8498,-2.8082,-2.8299,-2.8018,-2.747,0.0,0.0,0.0,0.0,0.0,0.0,0.0,0.0,0.0,0.0,-3.0477,0.0,0.0,0.0,0.0,0.0,0.0,0.0,0.0,0.0,0.0,0.0,0.0,0.0,0.0,0.0,0.0,0.0,0.0,0.0,0.0,0.0,0.0,0.0,0.0,0.0,0.0,0.0,0.0,0.0,0.0,0.0,0.0,0.0,0.0,0.0,0.0,0.0,0.0,0.0,-3.4399,-3.4399,-3.4399,-3.4399,-3.4399,-3.4399,-3.4399,-3.4399,-3.4399,-3.4399,-3.4399,-3.4399,-3.4399,-3.4399,-3.4399,-3.4298,-3.4264,-3.4366,0.0,-3.4264,-3.4366,-3.4399,-3.4399,-3.4399,0.0,-3.4399,-3.4399,-3.4399,-3.4128,-3.3381,-3.2925,-3.239,-3.1663,-3.1082,-3.0745,-3.0745,-3.1378,-3.1489,-3.0782,-3.1415,-3.1156,-2.9742,-2.9588,-2.9223,-2.8498,-2.8522,-2.8522,-2.8522,-2.8522,-2.8522,-2.8522,-2.8522,-2.8522,-2.8522,-2.8522,-2.8522,-2.8522,-2.8522,-2.8522,-2.8522,-2.8522,-2.8379,-2.8219,-2.8219,-2.7914,-2.7592,0.0,0.0,0.0,0.0,0.0,0.0,0.0,0.0,0.0,0.0,-2.9901,-3.0598,0.0,0.0,0.0,0.0,0.0,0.0,0.0,0.0,0.0,0.0,0.0,0.0,0.0,0.0,0.0,0.0,0.0,0.0,0.0,0.0,0.0,0.0,0.0,0.0,0.0,0.0,0.0,0.0,0.0,0.0,0.0,0.0,0.0,0.0,0.0,0.0,0.0,0.0,-3.4399,-3.4399,-3.4399,-3.4399,-3.4399,-3.4399,-3.4399,-3.4399,-3.4399,-3.4399,-3.4399,-3.4399,-3.4399,-3.4399,-3.4399,-3.3894,0.0,0.0,-3.3894,-3.3624,-3.4264,-3.4399,-3.4399,-3.4399,0.0,0.0,0.0,0.0,-3.4259,0.0,0.0,-3.2497,-3.2037,-3.0745,0.0,0.0,-3.005,-3.0063,-2.9935,-3.005,-3.0012,-2.9704,-2.9067,-2.8657,-2.8522,-2.8522,-2.8522,-2.8522,-2.8522,-2.8522,-2.8522,-2.8522,-2.8522,-2.8522,-2.8522,-2.8522,-2.8522,-2.8522,-2.8522,-2.8522,-2.8522,-2.8459,-2.8419,-2.8259,-2.8139,-2.8018,0.0,0.0,0.0,0.0,0.0,0.0,0.0,-2.7999,-2.8103,-2.846,-2.9066,-2.9656,-3.0023,-3.0387,-3.0598,0.0,0.0,0.0,0.0,0.0,0.0,0.0,0.0,0.0,0.0,0.0,0.0,0.0,0.0,0.0,0.0,0.0,0.0,0.0,0.0,0.0,0.0,0.0,0.0,0.0,0.0,0.0,0.0,0.0,0.0,0.0,0.0,0.0,0.0,0.0,-3.4399,-3.4399,-3.4399,-3.4399,-3.4399,-3.4399,-3.4399,-3.4399,-3.4399,-3.4399,-3.4399,-3.4399,-3.4399,-3.4298,-3.3894,0.0,0.0,0.0,-3.3485,-3.3451,-3.4264,-3.4399,0.0,0.0,0.0,0.0,0.0,0.0,0.0,0.0,0.0,-3.122,0.0,-2.9665,-2.9067,-2.9067,-2.9067,-2.9067,-2.9067,-2.9067,-2.9067,-2.9067,-2.8697,-2.8522,-2.8522,-2.8522,-2.8522,-2.8522,-2.8522,-2.8522,-2.8522,-2.8522,-2.8522,-2.8522,-2.8522,-2.8522,-2.8522,-2.8522,-2.8522,-2.8522,-2.8522,-2.8522,-2.8483,-2.8379,-2.8299,-2.8179,0.0,0.0,0.0,0.0,0.0,0.0,0.0,-2.7229,-2.7404,-2.7966,-2.8168,-2.8492,-2.9093,-2.9747,-3.0146,0.0,0.0,0.0,0.0,0.0,0.0,0.0,0.0,0.0,0.0,0.0,0.0,0.0,0.0,0.0,0.0,0.0,0.0,0.0,0.0,0.0,0.0,0.0,0.0,0.0,0.0,0.0,0.0,0.0,0.0,0.0,0.0,0.0,0.0,0.0,-3.4399,-3.4399,-3.4399,-3.4399,-3.4399,-3.4399,-3.4399,-3.4399,-3.4399,-3.4399,-3.4399,-3.4399,-3.4399,-3.4196,-3.3381,-3.3073,0.0,0.0,-3.3073,-3.3206,-3.3997,0.0,-3.4094,0.0,-3.352,0.0,0.0,0.0,0.0,0.0,0.0,0.0,-2.9341,-2.8855,0.0,-2.8522,-2.8619,-2.8619,-2.8522,-2.8619,-2.8619,-2.8522,-2.8619,-2.8619,-2.8522,-2.8522,-2.8522,-2.8522,-2.8522,-2.8522,-2.8522,-2.8522,-2.8522,-2.8522,-2.8522,-2.8522,-2.8522,-2.8522,-2.8522,-2.8522,-2.8522,-2.8522,-2.8522,-2.8522,-2.8379,-2.8259,0.0,0.0,0.0,0.0,0.0,0.0,0.0,-2.6327,-2.6327,-2.6396,-2.7095,-2.7604,-2.767,-2.8266,-2.8684,0.0,0.0,0.0,0.0,0.0,0.0,0.0,0.0,0.0,0.0,0.0,0.0,0.0,0.0,0.0,0.0,0.0,0.0,0.0,0.0,0.0,0.0,0.0,0.0,0.0,0.0,0.0,0.0,0.0,0.0,0.0,0.0,0.0,0.0,0.0,0.0,-3.4399,-3.4399,-3.4399,-3.4399,-3.4399,0.0,0.0,-3.4399,-3.4399,-3.4399,-3.4399,-3.4399,-3.4196,-3.3381,0.0,0.0,-3.3073,-3.2684,-3.2434,-3.3178,-3.3283,-3.3073,0.0,0.0,-3.2967,0.0,0.0,0.0,0.0,0.0,0.0,-2.996,-2.9223,-2.8697,-2.8498,-2.8955,-2.9003,-2.8546,-2.8955,-2.9003,-2.8522,-2.8979,-2.9003,-2.8522,-2.8522,-2.8522,-2.8522,-2.8522,-2.8522,-2.8522,-2.8522,-2.8522,-2.8522,-2.8522,-2.8522,-2.8522,-2.8522,-2.8522,-2.8522,-2.8522,-2.8522,-2.8522,-2.8522,-2.8483,-2.8443,0.0,0.0,0.0,0.0,0.0,0.0,-2.6015,-2.6015,-2.6015,-2.6015,-2.6302,-2.6543,-2.6543,-2.6892,-2.7471,-2.8427,0.0,0.0,0.0,0.0,0.0,0.0,0.0,0.0,0.0,0.0,0.0,-3.303,0.0,0.0,0.0,0.0,0.0,0.0,0.0,0.0,0.0,0.0,0.0,0.0,0.0,0.0,0.0,0.0,0.0,0.0,0.0,0.0,0.0,0.0,0.0,0.0,-3.3311,-3.3652,0.0,0.0,-3.4399,-3.4399,-3.4399,-3.4399,-3.4399,-3.4399,-3.4031,-3.3485,-3.272,0.0,-3.1452,-3.1756,-3.1599,-3.1636,-3.2398,-3.2541,-3.2434,0.0,0.0,0.0,0.0,0.0,0.0,0.0,-3.019,0.0,0.0,0.0,-2.8858,-2.8955,-2.9484,-2.9677,-2.946,-2.9653,-2.9677,-2.946,-2.9653,-2.9677,-2.946,-2.946,-2.946,-2.946,-2.946,-2.946,-2.946,-2.946,-2.946,-2.946,-2.946,-2.946,-2.946,-2.946,-2.9268,-2.8979,-2.8979,-2.8787,-2.8522,-2.8522,-2.8522,-2.8483,0.0,0.0,0.0,0.0,0.0,-2.6144,-2.5945,-2.591,-2.5875,-2.584,-2.5875,-2.591,-2.591,-2.6015,-2.6577,-2.7736,-2.7868,0.0,0.0,0.0,0.0,0.0,0.0,0.0,0.0,0.0,-3.1548,-3.211,-3.2613,-3.3003,0.0,0.0,0.0,0.0,0.0,0.0,0.0,0.0,0.0,0.0,0.0,0.0,0.0,0.0,0.0,0.0,0.0,0.0,0.0,0.0,0.0,0.0,0.0,0.0,0.0,0.0,-3.4059,-3.4332,-3.4128,-3.423,-3.4399,-3.4399,-3.3825,-3.3003,0.0,0.0,-3.0895,-3.0895,-3.0895,-3.1082,-3.1636,-3.1746,-3.1673,0.0,0.0,-3.0782,-3.0481,0.0,0.0,0.0,0.0,-2.9404,0.0,-2.9001,-2.9165,-2.9725,-3.011,-3.0398,-3.0543,-3.0543,-3.0422,-3.0086,-3.023,-3.0254,-3.0086,-3.0086,-3.0086,-3.0086,-3.0086,-3.0086,-3.0086,-3.0086,-3.0086,-3.0086,-3.0086,-3.0086,-3.0086,-3.0086,-2.9869,-2.9532,-2.9532,-2.9316,-2.8955,-2.8811,-2.8739,-2.8715,0.0,0.0,0.0,0.0,0.0,0.0,-2.5945,-2.591,-2.584,-2.5641,-2.5805,-2.591,-2.591,-2.591,-2.598,-2.6213,-2.6396,0.0,0.0,0.0,0.0,0.0,0.0,0.0,0.0,0.0,-3.1548,-3.211,-3.211,-3.247,-3.3178,-3.3213,-3.3624,0.0,0.0,0.0,0.0,0.0,0.0,0.0,0.0,0.0,0.0,0.0,0.0,0.0,0.0,0.0,0.0,0.0,0.0,0.0,0.0,0.0,0.0,0.0,-3.3206,-3.423,-3.3451,-3.3791,-3.4399,-3.4399,-3.3825,-3.3003,0.0,0.0,-3.0895,-3.0895,-3.0895,-3.0895,-3.0932,-3.0932,-3.0696,-2.9934,-3.0457,0.0,-2.9574,-3.0253,0.0,0.0,0.0,-2.9624,-2.9131,-2.9221,-2.9725,-3.0783,-3.0898,-3.1139,-3.1669,-3.1693,-3.1211,-3.011,-3.0591,-3.0657,-3.0086,-3.0086,-3.0086,-3.0086,-3.0086,-3.0086,-3.0086,-3.0086,-3.0086,-3.0086,-3.0086,-3.0086,-3.0086,-3.0086,-3.0086,-3.0086,-3.0086,-3.0086,-3.0013,-2.9484,-2.9292,-2.922,0.0,0.0,0.0,0.0,0.0,0.0,0.0,-2.5676,-2.5606,-2.543,-2.5465,-2.55,-2.55,-2.5606,-2.5805,-2.598,-2.6188,0.0,0.0,0.0,0.0,0.0,0.0,0.0,0.0,0.0,-2.9578,-3.0558,-3.1033,-3.1415,-3.1646,-3.2182,-3.2577,-3.2854,-3.2854,0.0,0.0,0.0,0.0,0.0,0.0,0.0,0.0,0.0,0.0,0.0,0.0,0.0,0.0,0.0,0.0,0.0,0.0,0.0,0.0,-3.0835,-3.1626,-3.2755,-3.2506,-3.2613,-3.2854,-3.2854,-3.2218,-3.1573,-3.1341,0.0,-3.0139,-3.0139,-3.0139,-3.0139,-3.0139,-3.0139,-3.0062,-2.9818,-3.0011,0.0,0.0,0.0,0.0,-2.9457,-2.9223,-2.9199,0.0,0.0,-3.0134,-3.0874,-3.1259,-3.1524,-3.1693,-3.1717,-3.1548,-3.1211,-3.138,-3.138,-3.1211,-3.1211,-3.1211,-3.1211,-3.1211,-3.1211,-3.1211,-3.1211,-3.1211,-3.1211,-3.1211,-3.1211,-3.1211,-3.1211,-3.0995,-3.0657,-3.0657,-3.0398,-3.0062,-2.9893,-2.9845,-2.9749,0.0,0.0,0.0,0.0,0.0,0.0,0.0,-2.5746,-2.5641,-2.543,-2.5359,-2.53,-2.53,-2.543,-2.5606,-2.5875,-2.5945,0.0,0.0,0.0,0.0,0.0,0.0,0.0,0.0,-2.8097,-2.8674,-2.9804,-3.0266,-3.062,-3.0932,-3.1415,-3.1819,-3.211,-3.211,0.0,0.0,0.0,0.0,0.0,0.0,0.0,-3.122,0.0,0.0,0.0,0.0,0.0,0.0,0.0,0.0,0.0,0.0,0.0,0.0,0.0,-3.0482,-3.1294,0.0,-3.1856,-3.211,-3.211,-3.1489,0.0,0.0,0.0,-2.9804,-2.9804,-2.9804,-2.9804,-2.9804,-2.9804,-2.9804,-2.9804,-2.9702,-2.9663,0.0,0.0,0.0,-2.9419,0.0,0.0,0.0,-3.0187,-3.0615,-3.1187,-3.1524,-3.1717,-3.1717,-3.1717,-3.1717,-3.1717,-3.1717,-3.1717,-3.1717,-3.1717,-3.1717,-3.1717,-3.1717,-3.1717,-3.1717,-3.1717,-3.1717,-3.1717,-3.1717,-3.1717,0.0,-3.1717,-3.15,-3.1211,-3.1211,-3.1019,-3.0706,-3.047,-3.0374,-3.0302,0.0,0.0,0.0,0.0,0.0,0.0,0.0,-2.6015,-2.5805,-2.5606,-2.543,-2.53,-2.53,-2.53,-2.5465,-2.584,0.0,0.0,0.0,0.0,0.0,0.0,0.0,0.0,0.0,-2.8147,-2.8699,-2.9804,-2.9804,-3.0139,-3.082,-3.082,-3.123,-3.1928,-3.1928,-3.1892,0.0,0.0,0.0,0.0,-2.9804,-2.9804,0.0,0.0,0.0,0.0,0.0,0.0,0.0,0.0,0.0,0.0,0.0,0.0,0.0,0.0,0.0,0.0,0.0,-3.1378,-3.1928,-3.1928,-3.1378,-3.082,-3.082,0.0,0.0,-2.9804,-2.9804,-2.9804,-2.9804,-2.9804,-2.9779,-2.9779,-2.956,-2.9419,0.0,-2.938,0.0,0.0,-2.9542,0.0,-3.0403,-3.0719,-3.1139,-3.1669,-3.1717,-3.1717,-3.1717,-3.1717,-3.1717,-3.1717,-3.1717,-3.1717,-3.1717,-3.1717,-3.1717,-3.1717,-3.1717,-3.1717,-3.1717,-3.1717,-3.1717,-3.1717,-3.1717,-3.1717,-3.1717,-3.1717,-3.1717,-3.1717,-3.1717,-3.1717,-3.1645,-3.1163,-3.097,-3.0898,0.0,0.0,0.0,0.0,0.0,0.0,0.0,0.0,0.0,0.0,-2.5335,-2.53,-2.53,-2.53,-2.5394,0.0,0.0,0.0,0.0,0.0,0.0,0.0,0.0,0.0,-2.7852,-2.8412,-2.9076,-2.9804,-2.9804,-2.9895,-3.0062,-3.0062,-3.0139,-3.033,-3.0152,-3.005,0.0,0.0,0.0,0.0,-2.9804,-2.9804,0.0,0.0,0.0,0.0,-2.9804,-2.9804,0.0,0.0,0.0,0.0,0.0,0.0,0.0,0.0,-2.9804,-2.9818,-3.0011,0.0,-3.033,-3.033,-3.0177,-3.0062,0.0,0.0,0.0,0.0,0.0,-2.9804,-2.9804,-2.9804,-2.974,-2.9521,-2.9599,-2.9638,-2.9419,0.0,0.0,-2.9801,-2.9586,-2.9818,-3.0931,-3.0912,-3.1139,-3.1669,-3.1717,-3.1717,-3.1717,-3.1717,-3.1717,-3.1717,-3.1717,-3.1717,-3.1717,-3.1717,-3.1717,-3.1717,-3.1717,-3.1717,-3.1717,-3.1717,-3.1717,-3.1717,-3.1717,-3.1717,-3.1717,-3.1717,-3.1717,-3.1717,-3.1717,-3.1717,-3.1693,-3.1573,-3.1524,-3.1408,0.0,0.0,0.0,0.0,0.0,0.0,0.0,0.0,0.0,0.0,0.0,-2.53,-2.53,-2.53,0.0,0.0,0.0,0.0,0.0,0.0,0.0,0.0,0.0,-2.7138,-2.8002,-2.8437,-2.8897,-2.9468,-2.9468,-2.9468,-2.9468,-2.9468,-2.9468,-2.9468,-2.9419,-2.9457,-2.9599,0.0,0.0,0.0,-2.9804,0.0,0.0,0.0,0.0,0.0,-2.9804,-2.9804,0.0,-2.9804,-2.9804,-2.9804,0.0,0.0,0.0,0.0,-2.9804,-2.9804,-2.9804,-2.9804,-2.9804,-2.9804,-2.9804,-2.9804,-2.9804,0.0,0.0,0.0,0.0,-2.9804,-2.9804,-2.9804,-2.974,-2.9599,-2.9599,0.0,0.0,0.0,-2.9542,-2.9796,-2.9932,-3.0272,-3.0979,-3.1182,-3.1404,-3.1693,-3.1717,-3.1717,-3.1717,-3.1717,-3.1717,-3.1717,-3.1717,-3.1717,-3.1717,-3.1717,-3.1717,-3.1717,-3.1717,-3.1717,-3.1717,-3.1717,-3.1717,-3.1717,-3.1717,-3.1717,-3.1717,-3.1717,-3.1717,-3.1717,-3.1717,-3.1717,-3.1717,-3.1717,-3.1717,-3.1625,0.0,0.0,0.0,0.0,0.0,0.0,0.0,0.0,0.0,0.0,0.0,0.0,0.0,0.0,0.0,0.0,0.0,0.0,0.0,0.0,0.0,0.0,0.0,-2.7066,-2.8218,-2.8355,-2.8625,-2.9091,-2.9091,-2.9091,-2.9091,-2.9091,-2.9091,-2.9091,-2.9365,-2.956,-2.974,-2.9779,0.0,0.0,-2.9804,0.0,0.0,0.0,0.0,0.0,0.0,0.0,0.0,-2.9804,-2.9804,-2.9804,-2.9804,0.0,0.0,0.0,0.0,0.0,-2.9804,-2.9804,-2.9804,-2.9804,-2.9804,-2.9804,-2.9804,0.0,0.0,0.0,0.0,0.0,0.0,-2.974,0.0,0.0,0.0,0.0,-2.9091,-2.9444,-2.9747,-2.9732,-3.0374,-3.085,-3.1062,-3.1452,-3.1717,-3.1717,-3.1717,-3.1717,-3.1717,-3.1717,-3.1717,-3.1717,-3.1717,-3.1717,-3.1717,-3.1717,-3.1717,-3.1717,-3.1717,-3.1717,-3.1717,-3.1717,-3.1717,-3.1717,-3.1717,-3.1717,-3.1717,-3.1717,-3.1717,-3.1717,-3.1717,-3.1717,-3.1717,-3.1717,-3.1605,-3.1427,0.0,0.0,0.0,0.0,0.0,0.0,0.0,0.0,0.0,0.0,0.0,0.0,0.0,0.0,0.0,0.0,0.0,0.0,0.0,0.0,0.0,-2.6828,-2.7015,-2.7381,-2.8027,-2.8645,-2.9018,-2.9091,-2.9091,-2.9091,-2.9091,-2.9091,-2.9091,-2.9131,-2.9546,-2.9638,-2.9457,-2.9702,-2.9804,-2.9804,-2.9804,0.0,0.0,0.0,0.0,0.0,0.0,0.0,0.0,-2.9804,-2.9804,-2.9804,-2.9804,0.0,0.0,0.0,0.0,0.0,-2.974,-2.9804,-2.9804,-2.9804,-2.9804,-2.9804,0.0,0.0,0.0,0.0,0.0,0.0,0.0,-2.9599,-2.9457,0.0,0.0,-2.9091,0.0,0.0,-2.9293,-3.0153,-3.0277,-3.0652,-3.1743,-3.1757,-3.1717,-3.1717,-3.1717,-3.1717,-3.1717,-3.1717,-3.1717,-3.1717,-3.1717,-3.1717,-3.1717,-3.1717,-3.1717,-3.1717,-3.1717,-3.1717,-3.1717,-3.1717,-3.1717,-3.1717,-3.1717,-3.1717,-3.1717,-3.1717,-3.1717,-3.1717,-3.1717,-3.1717,-3.1717,-3.1717,-3.1137,-3.0306,0.0,0.0,0.0,0.0,0.0,0.0,0.0,0.0,0.0,0.0,0.0,0.0,0.0,0.0,0.0,0.0,0.0,0.0,0.0,0.0,0.0,-2.7282,-2.742,-2.77,-2.8231,-2.8615,-2.8776,-2.8776,-2.8895,-2.8895,-2.8776,-2.8776,-2.8895,-2.9091,-2.9351,-2.9404,-2.9419,-2.9702,-2.9804,-2.9804,0.0,0.0,0.0,0.0,0.0,0.0,0.0,0.0,0.0,0.0,-2.9702,-2.9599,-2.974,0.0,0.0,0.0,0.0,0.0,-2.9599,-2.9702,-2.974,-2.9507,-2.9624,-2.9804,0.0,0.0,0.0,0.0,0.0,0.0,0.0,0.0,-2.9248,-2.9248,0.0,-2.9013,-2.8831,-2.9302,-2.982,-3.0181,-3.0676,-3.1163,-3.1801,-3.1761,-3.1717,-3.1717,-3.1717,-3.1717,-3.1717,-3.1717,-3.1717,-3.1717,-3.1717,-3.1717,-3.1717,-3.1717,-3.1717,-3.1717,-3.1717,-3.1717,-3.1717,-3.1717,-3.1717,-3.1717,-3.1717,-3.1717,-3.1717,-3.1717,-3.1717,-3.1673,-3.1092,-3.0869,-3.0824,-3.026,-3.0125,-3.0079,0.0,0.0,0.0,0.0,0.0,0.0,0.0,0.0,0.0,0.0,0.0,0.0,0.0,0.0,0.0,0.0,0.0,0.0,0.0,0.0,-2.6839,-2.7642,-2.781,-2.8089,-2.8498,-2.8522,-2.8522,-2.8522,-2.8657,-2.8657,-2.8522,-2.8538,-2.8736,-2.9013,-2.9091,-2.9209,-2.9341,-2.9546,-2.9663,-2.9702,0.0,0.0,0.0,0.0,0.0,0.0,0.0,0.0,0.0,0.0,0.0,0.0,0.0,0.0,0.0,-2.9585,-2.9624,-2.9585,-2.9404,-2.9482,-2.9546,-2.917,0.0,0.0,0.0,0.0,0.0,0.0,0.0,0.0,0.0,-2.9209,0.0,-2.9052,-2.9013,-2.8998,-2.8946,-2.9634,-3.0181,-3.0296,-3.1019,-3.1573,-3.1693,-3.1717,-3.1717,-3.1717,-3.1717,-3.1717,-3.1717,-3.1717,-3.1717,-3.1717,-3.1717,-3.1717,-3.1717,-3.1717,-3.1717,-3.1717,-3.1472,-3.1339,-3.1339,-3.1092,-3.1003,-3.1003,-3.1003,-3.1003,-3.1003,-3.1003,-3.116,-3.125,-3.026,-2.9829,-2.9761,-2.8727,-2.8819,-2.9326,0.0,0.0,0.0,0.0,0.0,0.0,0.0,0.0,0.0,0.0,0.0,0.0,0.0,0.0,0.0,0.0,0.0,0.0,0.0,0.0,-2.7633,-2.769,-2.8186,-2.8474,-2.8522,-2.8522,-2.8522,-2.8522,-2.8498,-2.8498,-2.8522,-2.8697,-2.8791,-2.8831,-2.9013,-2.9091,-2.9131,-2.9131,-2.9248,-2.9419,-2.9419,0.0,0.0,0.0,0.0,0.0,0.0,0.0,0.0,0.0,0.0,0.0,0.0,0.0,-2.938,-2.9209,-2.9131,-2.9131,-2.9131,-2.9131,-2.9131,-2.9091,-2.9287,0.0,-2.9419,-2.9419,0.0,-2.9702,0.0,0.0,0.0,-2.956,-2.9263,-2.887,-2.8831,-2.8946,-2.9212,-2.9357,-2.9766,-3.0754,-3.0922,-3.1163,-3.1669,-3.1717,-3.1717,-3.1717,-3.1717,-3.1717,-3.1717,-3.1717,-3.1717,-3.1717,-3.1717,-3.1717,-3.1717,-3.1717,-3.1717,-3.1717,-3.0779,-3.0306,-3.026,-2.9326,-2.8912,-2.8912,-2.8912,-2.8912,-2.8912,-2.8912,-2.9464,-3.0215,-2.9189,-2.8819,-2.868,-2.7699,-2.7321,-2.7226,0.0,0.0,0.0,0.0,0.0,0.0,0.0,0.0,0.0,0.0,0.0,0.0,0.0,0.0,0.0,0.0,0.0,0.0,0.0,-2.757,-2.7834,-2.8186,-2.786,-2.7978,-2.8483,-2.8522,-2.8522,-2.8522,-2.8522,-2.8618,-2.8855,-2.8697,-2.8697,-2.8791,-2.8895,-2.891,-2.8934,-2.9184,-2.9341,-2.9419,-2.956,-2.9702,0.0,0.0,0.0,0.0,0.0,0.0,0.0,0.0,-2.9482,-2.9351,-2.9248,-2.9106,-2.9028,-2.9091,-2.9091,-2.9052,-2.8973,-2.9106,-2.9184,-2.8816,-2.8973,0.0,0.0,-2.9302,-2.9248,-2.9326,-2.9131,0.0,0.0,0.0,-2.8776,-2.8657,-2.8618,-2.8771,-2.922,-2.9581,-3.0062,-3.0826,-3.1211,-3.15,-3.1693,-3.1717,-3.1717,-3.1717,-3.1092,-3.1048,-3.1673,-3.1116,-3.1048,-3.1673,-3.1092,-3.0779,-3.0779,-3.0779,-3.0441,-2.9852,-3.0079,-3.0215,-3.017,-2.9143,-2.868,-2.868,-2.868,-2.868,-2.868,-2.868,-2.8912,-2.9189,-2.8168,-2.7793,-2.7652,-2.6648,-2.6648,-2.701,0.0,0.0,0.0,0.0,0.0,0.0,0.0,0.0,0.0,0.0,0.0,0.0,0.0,0.0,0.0,0.0,0.0,0.0,-2.7072,-2.7095,-2.7259,-2.7609,-2.7348,-2.747,-2.8099,-2.8339,-2.8522,-2.8522,-2.8522,-2.8618,-2.8895,-2.8618,-2.8578,-2.8736,-2.8736,-2.8736,-2.8736,-2.8988,-2.9145,-2.9223,-2.9404,-2.9507,0.0,0.0,0.0,0.0,0.0,0.0,0.0,0.0,-2.9209,-2.9091,-2.9091,-2.9013,-2.8934,-2.8973,-2.9052,-2.9052,-2.8831,-2.8988,-2.9106,-2.8697,0.0,0.0,-2.9145,-2.9106,-2.9013,-2.9091,-2.9013,0.0,0.0,0.0,0.0,0.0,-2.8643,-2.8955,-2.9484,-2.9989,-3.0518,-3.1115,-3.15,-3.1717,-3.1717,-3.1427,-3.125,-3.125,-3.0306,-3.0034,-3.0734,-3.0125,-3.0034,-3.0734,-3.0079,-2.9761,-2.9761,-2.9761,-2.9372,-2.868,-2.9096,-2.9235,-2.9235,-2.8215,-2.7767,-2.7767,-2.7767,-2.7767,-2.7767,-2.7767,-2.7767,-2.772,-2.7321,-2.701,-2.6648,-2.5965,-2.6139,-2.66,0.0,0.0,0.0,0.0,0.0,0.0,0.0,0.0,-2.5244,-2.432,-2.4201,0.0,0.0,0.0,0.0,0.0,0.0,0.0,-2.5839,-2.5819,-2.5819,-2.5777,-2.6712,-2.7185,-2.7185,-2.8059,-2.8483,-2.8522,-2.8522,-2.8522,-2.8522,-2.8522,-2.8522,-2.8522,-2.8522,-2.8522,-2.8522,-2.8498,-2.8618,-2.8791,-2.8791,-2.8934,-2.9091,0.0,0.0,0.0,0.0,0.0,0.0,0.0,-2.9091,-2.9091,-2.9091,-2.9091,-2.9052,-2.887,-2.8934,-2.9052,-2.8831,-2.8791,-2.8791,0.0,0.0,0.0,-2.8752,-2.8791,-2.8831,-2.9052,0.0,-2.8973,-2.8578,-2.8657,0.0,-2.8562,-2.8955,-2.9484,-3.0013,-3.0585,-3.1115,-3.1645,-3.1717,-3.1717,-3.1717,-3.0779,-3.017,-3.017,-2.9235,-2.868,-2.868,-2.868,-2.868,-2.868,-2.868,-2.868,-2.868,-2.868,-2.868,-2.868,-2.7652,-2.7179,-2.72,-2.6139,-2.5693,-2.5693,-2.5693,-2.5693,-2.5693,-2.5693,-2.5693,-2.5771,-2.6791,-2.66,-2.5693,-2.5693,-2.5693,-2.5645,0.0,0.0,0.0,0.0,0.0,0.0,0.0,0.0,-2.4066,-2.3507,-2.3425,0.0,0.0,0.0,0.0,0.0,0.0,0.0,-2.5819,-2.6423,-2.6505,-2.5819,-2.6712,-2.7185,-2.7185,-2.747,-2.7898,-2.8522,-2.8522,-2.8522,-2.8522,-2.8522,-2.8522,-2.8522,-2.8522,-2.8522,-2.8459,-2.7995,-2.781,-2.7891,-2.8051,-2.8131,-2.8251,0.0,0.0,0.0,0.0,0.0,0.0,0.0,0.0,0.0,-2.8776,-2.8776,-2.8855,-2.8657,-2.8618,-2.8657,-2.8618,-2.8816,0.0,-2.8657,0.0,0.0,0.0,-2.8578,0.0,0.0,-2.8657,-2.8618,-2.8498,-2.8851,0.0,-2.9051,-2.9508,-3.0037,-3.0567,-3.0826,-3.1115,-3.1645,-3.1048,-3.0621,-3.0621,-2.9738,-2.9143,-2.9143,-2.8215,-2.7934,-2.868,-2.8028,-2.7981,-2.868,-2.8028,-2.7652,-2.7652,-2.7652,-2.7295,-2.66,-2.701,-2.7179,-2.72,-2.6139,-2.5693,-2.5693,-2.5693,-2.5693,-2.5693,-2.5693,-2.5693,-2.5742,-2.6014,-2.5965,-2.5693,-2.5693,-2.5693,-2.5645,0.0,0.0,0.0,0.0,0.0,0.0,0.0,0.0,-2.3781,-2.3202,-2.3119,-2.3346,0.0,0.0,0.0,0.0,0.0,0.0,0.0,-2.5631,-2.5715,-2.4787,-2.5966,-2.6629,-2.6629,-2.6629,-2.6917,-2.7429,-2.7429,-2.7429,-2.7429,-2.7429,-2.7429,-2.7429,-2.7429,-2.7429,-2.7406,-2.6976,-2.7017,-2.7366,-2.7098,-2.7221,-2.7568,0.0,0.0,0.0,0.0,0.0,0.0,0.0,0.0,0.0,-2.8657,-2.8657,-2.8697,-2.8736,-2.8736,-2.8736,-2.8855,-2.8973,0.0,-2.8776,-2.8776,-2.8776,-2.8538,0.0,0.0,0.0,-2.8522,-2.857,-2.8787,-2.9076,0.0,-2.9581,-2.9743,-2.9914,-3.0245,-3.015,-3.0161,-3.0463,-2.9988,-2.9601,-2.9601,-2.868,-2.8121,-2.8121,-2.7152,-2.6887,-2.7484,-2.6935,-2.6887,-2.7484,-2.6935,-2.66,-2.66,-2.66,-2.6284,-2.5693,-2.6332,-2.66,-2.66,-2.5965,-2.5693,-2.5693,-2.5693,-2.5693,-2.5693,-2.5693,-2.5693,-2.5693,-2.5693,-2.5693,-2.5693,-2.5596,-2.5596,-2.5645,0.0,0.0,-2.4445,-2.4402,0.0,0.0,0.0,0.0,-2.4079,-2.3232,-2.3101,-2.343,0.0,0.0,0.0,0.0,0.0,0.0,0.0,0.0,-2.4079,-2.3144,-2.4787,-2.5694,-2.5694,-2.5694,-2.5652,-2.5568,-2.5735,-2.5777,-2.5777,-2.5777,-2.5777,-2.5777,-2.5777,-2.5777,-2.5777,-2.5694,-2.6174,-2.6876,-2.6049,-2.6216,-2.6899,-2.6069,0.0,0.0,0.0,0.0,0.0,0.0,0.0,0.0,-2.8736,-2.8657,-2.8578,-2.8855,-2.9013,-2.9091,-2.9184,-2.9145,0.0,-2.9052,-2.8776,0.0,-2.8522,-2.8522,-2.8522,-2.8522,0.0,-2.8594,-2.9073,-2.9159,-2.9332,-2.9809,-2.9552,-2.9348,-2.9348,-2.8945,-2.868,-2.868,-2.8634,-2.8588,-2.8588,-2.7652,-2.7057,-2.7057,-2.6235,-2.5693,-2.5693,-2.5693,-2.5693,-2.5693,-2.5693,-2.5693,-2.5693,-2.5693,-2.5693,-2.5693,-2.5693,-2.5693,-2.5693,-2.5693,-2.5693,-2.5693,-2.5693,-2.5693,-2.5693,-2.5693,-2.5693,-2.5693,-2.5693,-2.5693,-2.5645,-2.5382,-2.543,-2.5547,0.0,0.0,-2.4294,-2.3517,0.0,0.0,0.0,0.0,0.0,-2.3144,0.0,0.0,0.0,0.0,0.0,0.0,0.0,0.0,0.0,0.0,-2.4079,-2.3144,-2.4188,-2.4787,-2.4787,-2.4787,-2.4402,-2.3691,-2.5105,-2.5777,-2.5777,-2.5777,-2.5777,-2.5777,-2.5777,-2.5777,-2.5735,-2.5084,-2.4914,-2.5084,-2.4872,-2.4914,-2.5126,-2.561,-2.5902,0.0,0.0,0.0,0.0,0.0,0.0,0.0,-2.8618,-2.8657,-2.8593,-2.7834,-2.8195,-2.8673,-2.7891,-2.8355,0.0,0.0,-2.8538,-2.8522,-2.8522,-2.8522,-2.8522,-2.8522,-2.8204,-2.799,-2.8106,-2.8175,-2.8233,-2.8344,-2.8631,-2.885,-2.885,-2.8754,-2.868,-2.868,-2.8028,-2.751,-2.751,-2.66,-2.6014,-2.6014,-2.582,-2.5693,-2.5693,-2.5693,-2.5693,-2.5693,-2.5693,-2.5693,-2.5693,-2.5693,-2.5693,-2.5693,-2.5693,-2.5693,-2.5693,-2.5693,-2.5693,-2.5693,-2.5693,-2.5693,-2.5693,-2.5693,-2.5693,-2.5693,-2.5693,-2.5577,-2.5382,-2.5333,-2.5186,-2.5088,0.0,0.0,0.0,0.0,0.0,0.0,0.0,0.0,0.0,0.0,0.0,0.0,0.0,-2.3101,0.0,0.0,-2.3101,-2.3101,-2.3101,-2.3993,-2.4274,-2.3777,-2.382,-2.382,-2.382,-2.382,-2.3604,-2.3101,-2.4059,-2.4531,-2.4531,-2.4531,-2.4531,-2.4531,-2.4531,-2.4531,-2.4488,-2.4016,-2.4079,-2.4466,-2.4036,-2.4122,-2.4488,-2.4531,-2.4787,-2.5168,-2.5168,0.0,0.0,0.0,0.0,0.0,0.0,0.0,-2.7261,-2.6812,-2.7058,-2.7504,-2.7487,0.0,0.0,-2.8459,0.0,-2.8379,-2.7978,-2.7898,-2.7753,-2.7284,-2.7511,-2.7736,-2.7579,-2.7745,-2.8002,-2.822,-2.8089,-2.7981,-2.7981,-2.7579,-2.7247,-2.7247,-2.6791,-2.6456,-2.6456,-2.6014,-2.5693,-2.5693,-2.5693,-2.5693,-2.5693,-2.5693,-2.5693,-2.5693,-2.5693,-2.5693,-2.5693,-2.5693,-2.5693,-2.5693,-2.5693,-2.5693,-2.5693,-2.5693,-2.5693,-2.5693,-2.5693,-2.5693,-2.5693,-2.5693,-2.5645,-2.5528,-2.5645,-2.5528,-2.5284,-2.5137,-2.5088,-2.5039,0.0,0.0,0.0,0.0,0.0,0.0,0.0,0.0,0.0,0.0,0.0,0.0,0.0,-2.3101,-2.3101,0.0,0.0,0.0,-2.3101,-2.382,-2.4251,-2.4251,-2.3517,-2.3101,-2.3101,-2.3101,-2.3101,-2.3101,-2.3101,-2.3101,-2.3101,-2.3101,0.0,-2.3101,-2.3101,-2.3101,-2.3101,-2.3101,-2.356,-2.4209,-2.3387,-2.356,-2.4166,-2.3387,-2.356,-2.4251,-2.4251,-2.4829,-2.5568,-2.5568,0.0,0.0,0.0,0.0,-2.5819,-2.5839,-2.5942,-2.6295,-2.7017,0.0,-2.7447,-2.8099,-2.8179,0.0,-2.7348,-2.7062,-2.6712,-2.5777,-2.6574,-2.734,-2.7107,-2.7315,-2.7672,-2.8104,-2.7484,-2.6962,-2.6962,-2.6235,-2.5693,-2.5693,-2.5693,-2.5693,-2.5693,-2.5693,-2.5693,-2.5693,-2.5693,-2.5693,-2.5693,-2.5693,-2.5693,-2.5693,-2.5693,-2.5693,-2.5693,-2.5693,-2.5693,-2.5693,-2.5693,-2.5693,-2.5693,-2.5693,-2.5693,-2.5693,-2.5693,-2.5693,-2.5693,-2.5693,-2.5528,-2.5333,-2.5528,-2.5479,-2.5186,-2.4941,-2.499,-2.5088,0.0,0.0,0.0,0.0,0.0,0.0,0.0,0.0,0.0,0.0,-2.3101,-2.3101,-2.3101,-2.3101,-2.3101,-2.3101,-2.3101,-2.3101,-2.3101,0.0,0.0,-2.3299,-2.3188,-2.3101,-2.3101,-2.3101,-2.3101,-2.3101,-2.3101,-2.3101,0.0,0.0,0.0,-2.3101,0.0,-2.3101,-2.3101,-2.3101,-2.3169,-2.3276,-2.3144,-2.3188,-2.3256,0.0,0.0,0.0,0.0,0.0,-2.4659,-2.4659,-2.5168,0.0,0.0,0.0,-2.5652,-2.4956,-2.5378,-2.59,0.0,0.0,-2.6505,0.0,-2.694,-2.6652,0.0,0.0,-2.5735,0.0,-2.5434,-2.6041,-2.6014,-2.602,-2.6031,-2.6091,-2.6014,-2.5917,-2.5917,-2.5771,-2.5693,-2.5693,-2.5693,-2.5693,-2.5693,-2.5693,-2.5693,-2.5693,-2.5693,-2.5693,-2.5693,-2.5693,-2.5693,-2.5693,-2.5693,-2.5693,-2.5693,-2.5693,-2.5693,-2.5693,-2.5693,-2.5693,-2.5693,-2.5693,-2.5693,-2.5693,-2.5693,-2.5693,-2.5693,-2.5693,-2.5528,-2.5284,-2.5333,-2.5186,-2.4941,-2.4627,-2.4578,-2.4578,0.0,0.0,0.0,0.0,0.0,0.0,0.0,0.0,0.0,0.0,0.0,-2.3101,-2.3101,-2.3101,-2.3101,-2.3101,-2.3101,-2.3101,-2.3101,-2.3101,-2.3101,-2.3101,-2.3101,-2.3101,-2.3101,-2.3101,-2.3101,-2.3101,-2.3101,-2.3101,0.0,-2.3101,-2.3101,0.0,0.0,0.0,0.0,-2.3101,-2.3101,-2.3101,-2.3101,-2.3101,0.0,0.0,0.0,0.0,0.0,0.0,0.0,0.0,-2.3973,-2.4274,-2.4274,0.0,0.0,0.0,-2.4059,-2.4425,-2.4488,-2.521,-2.6049,0.0,-2.6216,-2.5924,-2.5715,-2.5379,-2.4829,-2.3907,-2.4235,-2.4756,-2.4951,-2.5204,-2.5449,-2.5654,-2.5693,-2.5693,-2.5693,-2.5693,-2.5693,-2.5693,-2.5693,-2.5693,-2.5693,-2.5693,-2.5693,-2.5693,-2.5693,-2.5693,-2.5693,-2.5693,-2.5693,-2.5693,-2.5693,-2.5693,-2.5693,-2.5693,-2.5693,-2.5693,-2.5693,-2.5693,-2.5693,-2.5693,-2.5693,-2.5693,-2.5528,-2.5547,-2.5693,-2.5528,-2.5333,-2.5088,-2.5235,-2.5039,-2.4677,-2.4529,-2.448,-2.448,0.0,0.0,0.0,0.0,0.0,0.0,0.0,0.0,0.0,0.0,0.0,-2.3101,-2.3101,0.0,0.0,0.0,-2.3101,-2.3101,-2.3101,-2.3101,-2.3101,-2.3101,-2.3101,-2.3101,-2.3101,-2.3101,-2.3101,-2.3101,-2.3101,-2.3101,-2.3101,-2.3101,-2.3101,0.0,-2.3101,0.0,0.0,0.0,0.0,0.0,0.0,0.0,0.0,0.0,0.0,0.0,0.0,0.0,0.0,0.0,0.0,-2.3101,-2.3101,-2.3101,0.0,0.0,0.0,0.0,0.0,0.0,-2.5253,-2.54,-2.5316,-2.5084,0.0,0.0,-2.395,0.0,-2.3398,-2.375,-2.418,-2.4707,-2.5176,-2.5508,-2.5615,-2.5693,-2.5693,-2.5693,-2.5693,-2.5693,-2.5693,-2.5693,-2.5693,-2.5693,-2.5693,-2.5693,-2.5693,-2.5693,-2.5693,-2.5693,-2.5693,-2.5693,-2.5693,-2.5693,-2.5693,-2.5693,-2.5693,-2.5596,-2.5693,-2.5645,-2.5596,-2.5693,-2.5645,-2.5596,-2.5382,-2.5382,-2.5499,-2.5333,-2.5088,-2.4843,-2.5088,-2.4922,-2.448,-2.443,-2.443,-2.448,0.0,0.0,0.0,0.0,0.0,0.0,0.0,0.0,0.0,0.0,0.0,-2.3101,-2.3101,-2.3101,-2.3101,-2.3101,-2.3101,-2.3101,-2.3101,-2.3101,-2.3101,-2.3101,-2.3101,0.0,-2.3101,-2.3101,-2.3101,-2.3101,-2.3101,-2.3101,-2.3101,-2.3101,-2.3101,-2.3101,-2.3101,-2.3101,-2.3101,0.0,0.0,0.0,-2.3101,-2.3101,0.0,0.0,0.0,0.0,0.0,0.0,0.0,0.0,0.0,0.0,-2.3101,-2.3101,-2.3101,0.0,0.0,0.0,0.0,-2.3406,0.0,-2.4402,-2.4079,0.0,0.0,0.0,-2.3188,-2.3101,-2.312,-2.3257,-2.375,-2.4558,-2.5125,-2.5145,-2.5449,-2.5693,-2.5693,-2.5693,-2.5693,-2.5693,-2.5693,-2.5693,-2.5693,-2.5693,-2.5693,-2.5693,-2.5693,-2.5693,-2.5693,-2.5693,-2.5693,-2.5693,-2.5693,-2.5693,-2.5693,-2.5693,-2.5577,-2.5333,-2.5596,-2.5596,-2.5333,-2.5596,-2.5547,-2.5333,-2.5284,-2.5137,-2.499,-2.5186,-2.499,-2.4529,-2.4843,-2.4745,-2.448,-2.4301,-2.435,-2.448,0.0,0.0,0.0,0.0,0.0,0.0,0.0,0.0,0.0,0.0,0.0,0.0,0.0,-2.3101,-2.3101,-2.3101,-2.3101,-2.3101,-2.3101,-2.3101,-2.3101,-2.3101,-2.3101,-2.3101,-2.3101,-2.3101,-2.3101,-2.3101,-2.3101,-2.3101,-2.3101,-2.3101,-2.3101,-2.3101,-2.3101,-2.3101,-2.3101,-2.3101,0.0,0.0,-2.3101,-2.3101,-2.3101,0.0,0.0,0.0,0.0,0.0,0.0,0.0,0.0,0.0,-2.3101,-2.3101,-2.3101,-2.3101,0.0,0.0,0.0,0.0,0.0,-2.3517,-2.343,-2.3319,-2.356,-2.3343,-2.3101,-2.3101,-2.3101,-2.314,-2.3296,-2.3848,-2.4336,-2.4609,-2.4785,-2.4883,-2.4883,-2.4883,-2.4883,-2.4883,-2.4883,-2.4883,-2.4883,-2.4883,-2.4883,-2.4883,-2.4883,-2.5019,-2.5293,-2.5312,-2.5449,-2.5674,-2.5693,-2.5693,-2.5693,-2.5693,-2.5596,-2.5284,-2.5382,-2.5284,-2.5039,-2.5333,-2.5186,-2.4775,-2.499,-2.499,-2.4873,-2.4843,-2.4677,-2.4529,-2.4578,-2.4498,-2.4301,-2.4251,-2.3786,-2.3338,0.0,0.0,0.0,0.0,0.0,-2.3101,-2.3101,-2.3101,-2.3101,-2.3101,0.0,0.0,0.0,0.0,-2.3101,-2.3101,-2.3101,-2.3101,-2.3101,-2.3101,-2.3101,-2.3101,-2.3237,-2.3315,-2.3315,-2.3315,-2.3374,-2.353,-2.3374,-2.3393,0.0,-2.353,-2.353,-2.353,-2.353,-2.3354,0.0,0.0,0.0,-2.3101,-2.3101,-2.3101,-2.3101,0.0,0.0,0.0,0.0,0.0,0.0,0.0,0.0,0.0,0.0,-2.3101,-2.3101,-2.3101,0.0,0.0,-2.3101,0.0,0.0,0.0,0.0,-2.3101,-2.3101,-2.3101,-2.3101,-2.3101,-2.3101,-2.3101,-2.3101,-2.3335,-2.3711,-2.4141,-2.4316,-2.4414,-2.4414,-2.4414,-2.4414,-2.4414,-2.4414,-2.4414,-2.4414,-2.4414,-2.4414,-2.4414,-2.4414,-2.4551,-2.4824,-2.4844,-2.5059,-2.5508,-2.5508,-2.5538,-2.5693,-2.5577,-2.543,-2.5186,-2.5186,-2.5039,-2.4775,-2.5039,-2.4941,-2.4529,-2.4677,-2.4745,-2.4646,-2.4165,-2.3917,-2.3836,-2.3917,-2.3836,-2.3637,-2.3637,-2.3138,-2.2585,0.0,0.0,-2.3101,-2.3101,-2.3101,-2.3101,-2.3101,-2.3101,-2.3101,-2.3101,0.0,0.0,0.0,0.0,0.0,-2.314,-2.314,-2.314,-2.314,-2.314,-2.314,-2.314,-2.3574,-2.3809,-2.3809,-2.3809,-2.4004,-2.4414,-2.4004,0.0,0.0,0.0,-2.4414,-2.4414,-2.4414,-2.3945,-2.314,0.0,-2.314,-2.314,0.0,-2.312,-2.312,0.0,0.0,0.0,-2.3101,-2.3101,0.0,-2.3101,0.0,0.0,0.0,-2.3101,-2.3101,-2.3101,0.0,0.0,0.0,0.0,0.0,0.0,0.0,0.0,-2.3101,-2.3101,-2.3101,-2.3101,-2.3101,-2.3101,-2.3101,-2.3101,-2.3237,-2.3711,-2.4121,-2.4375,-2.4375,-2.4375,-2.4375,-2.4375,-2.4375,-2.4375,-2.4375,-2.4375,-2.4375,-2.4375,-2.4375,-2.4375,-2.4394,-2.4414,-2.4609,-2.5086,-2.5106,-2.5254,-2.5635,-2.5411,-2.5167,-2.4873,-2.4873,-2.4726,-2.443,-2.4726,-2.4677,-2.4381,-2.4381,-2.4282,-2.4053,-2.3203,-2.2702,-2.2467,-2.2752,-2.2702,-2.2467,-2.2467,-2.2417,-2.2266,0.0,-2.3101,-2.3101,-2.3101,-2.3101,-2.3101,-2.3101,-2.3101,-2.3101,0.0,0.0,0.0,0.0,0.0,-2.4062,-2.4062,-2.4062,-2.4062,-2.4062,-2.4062,-2.4062,-2.4062,-2.418,-2.4238,-2.4238,-2.4238,-2.4297,0.0,0.0,0.0,0.0,0.0,0.0,0.0,-2.4414,-2.4277,-2.4062,-2.4062,0.0,-2.4062,-2.4062,-2.3887,0.0,0.0,0.0,0.0,0.0,-2.3101,-2.3101,0.0,-2.3101,-2.3101,0.0,0.0,0.0,0.0,0.0,0.0,-2.3101,0.0,0.0,0.0,0.0,0.0,-2.3101,-2.3101,-2.3101,-2.3101,-2.3101,-2.3101,-2.3101,-2.3101,-2.314,-2.3257,-2.3374,-2.3452,-2.3452,-2.3452,-2.3452,-2.3452,-2.3452,-2.3452,-2.3452,-2.3452,-2.3452,-2.3452,-2.3452,-2.3633,-2.3945,-2.4258,-2.4473,-2.459,-2.459,-2.4648,-2.4785,-2.4832,-2.4746,-2.4457,-2.4545,-2.4084,-2.307,-2.3302,-2.2902,-2.1895,-2.2097,-2.2047,-2.1861,-2.2417,-2.2114,-2.1353,-2.1438,-2.1387,-2.1353,-2.1353,-2.0826,-2.021,-2.3627,-2.3627,-2.3627,-2.3627,-2.3627,-2.3627,-2.3627,-2.3627,-2.3627,0.0,0.0,0.0,0.0,0.0,0.0,-2.4414,-2.4414,-2.4414,-2.4414,-2.4414,-2.4414,-2.4414,-2.459,-2.4687,-2.4687,-2.4687,0.0,0.0,0.0,0.0,0.0,0.0,0.0,0.0,-2.4914,-2.4914,0.0,0.0,0.0,0.0,-2.4414,0.0,0.0,-2.4043,-2.3789,0.0,0.0,0.0,-2.3101,-2.3101,-2.3101,0.0,0.0,0.0,0.0,0.0,0.0,0.0,0.0,0.0,0.0,0.0,0.0,0.0,-2.3101,-2.3101,-2.3101,-2.3101,-2.3101,-2.3101,-2.3101,-2.3101,-2.3101,-2.3101,-2.3101,-2.3101,-2.3101,-2.3101,-2.3101,-2.3101,-2.3101,-2.3101,-2.3101,-2.3101,-2.3101,-2.3101,-2.3101,-2.3198,-2.3496,-2.375,-2.3919,-2.3958,-2.3958,-2.4009,-2.409,-2.4107,-2.4098,-2.4125,-2.3669,-2.3111,-2.2467,-2.2198,-2.1641,-2.0893,-2.1081,-2.0775,-2.0261,-2.0877,-2.0723,-2.021,-2.021,-2.021,-2.021,-2.021,-1.9746,-1.9228,0.0,-2.4414,-2.4414,-2.4414,-2.4414,-2.4414,-2.4414,-2.4414,-2.4414,0.0,0.0,0.0,0.0,0.0,0.0,0.0,-2.4524,-2.4524,-2.4524,-2.4524,-2.4524,-2.4524,-2.4941,-2.5184,-2.5184,-2.5184,0.0,0.0,0.0,0.0,0.0,0.0,0.0,0.0,-2.5693,-2.5693,-2.5693,0.0,0.0,-2.4524,-2.4524,-2.4531,0.0,0.0,-2.4219,-2.3867,-2.3867,-2.3613,-2.3237,-2.3179,-2.314,0.0,0.0,0.0,0.0,0.0,-2.3101,0.0,0.0,0.0,0.0,0.0,-2.3101,0.0,-2.3101,-2.3101,-2.3101,-2.3101,-2.3101,-2.3101,-2.3101,-2.3101,-2.3101,-2.3101,-2.3101,-2.3101,-2.3101,-2.3101,-2.3101,-2.3101,-2.3101,-2.3101,-2.3101,-2.3101,-2.3101,-2.3101,-2.3101,-2.3101,-2.3101,-2.3101,-2.3188,-2.3332,-2.3242,-2.3252,-2.3382,-2.3047,-2.3081,-2.34,-2.2292,-2.1876,-2.2064,-2.1116,-2.0621,-2.0518,-2.0518,-1.9952,-1.902,-1.902,-1.902,-1.902,-1.902,-1.902,-1.902,-1.902,-1.902,-1.8864,-2.4414,-2.4414,-2.4414,-2.4414,-2.4414,-2.4414,-2.4414,-2.4414,-2.4414,-2.4414,-2.4727,0.0,0.0,0.0,0.0,0.0,0.0,-2.544,-2.544,-2.544,-2.544,-2.544,-2.5518,-2.5557,-2.5557,-2.5557,-2.5596,0.0,0.0,0.0,0.0,0.0,0.0,0.0,-2.5693,-2.5693,-2.5693,0.0,0.0,-2.544,-2.544,-2.5254,-2.4941,-2.4941,-2.4668,-2.4297,-2.4297,-2.4238,-2.4121,-2.3769,-2.3437,-2.3101,0.0,0.0,0.0,-2.3101,0.0,0.0,0.0,0.0,0.0,0.0,0.0,0.0,-2.3101,-2.3101,-2.3101,-2.3101,-2.3101,-2.3101,-2.3101,-2.3101,-2.3101,-2.3101,-2.3101,-2.3101,-2.3101,-2.3101,-2.3101,-2.3101,-2.3101,-2.3101,-2.3101,-2.3101,-2.3101,-2.3101,-2.3101,-2.3101,-2.3101,-2.3101,-2.3052,-2.2928,-2.2117,-2.1644,-2.1554,-2.0783,-2.0456,-2.054,-2.0622,-2.0285,-1.9507,-1.9523,-1.9072,-1.8251,-1.8251,-1.8094,-1.7884,-1.7884,-1.7884,-1.7884,-1.7884,-1.7884,-1.7884,-1.7884,-1.7884,-1.7898,-2.5031,-2.5031,-2.5031,-2.5031,-2.5031,-2.5031,-2.5031,-2.5254,-2.541,-2.541,-2.5781,0.0,0.0,0.0,0.0,0.0,0.0,0.0,0.0,0.0,-2.5693,-2.5693,-2.5693,-2.5693,-2.5693,-2.5693,-2.5693,0.0,0.0,0.0,0.0,0.0,0.0,0.0,0.0,0.0,0.0,0.0,-2.5693,-2.5693,-2.5693,0.0,-2.541,-2.541,-2.5137,-2.4746,-2.4746,-2.4609,-2.4375,-2.418,-2.3945,0.0,-2.3535,-2.3457,-2.3418,0.0,-2.3101,-2.3101,0.0,0.0,0.0,-2.3101,0.0,0.0,0.0,-2.3101,-2.3101,-2.3101,-2.3101,-2.3101,-2.3101,-2.3101,-2.3101,-2.3101,-2.3101,-2.3101,-2.3101,-2.3101,-2.3101,-2.3101,-2.3101,-2.3101,-2.3101,-2.3101,-2.3101,-2.3101,-2.3101,-2.3101,-2.3101,-2.3013,-2.2643,-2.1917,-2.1275,-2.0629,-1.9923,-1.9464,-1.9347,-1.9571,-1.9235,-1.8999,-1.881,-1.8409,-1.7956,-1.7582,-1.7582,-1.7582,-1.7582,-1.7582,-1.7582,-1.7582,-1.7582,-1.7582,-1.7582,-1.7582,-1.7582,-1.7582,-2.5927,-2.5927,-2.5927,-2.5927,-2.5927,-2.5927,-2.5927,-2.6289,-2.6504,-2.6504,0.0,0.0,0.0,0.0,0.0,0.0,0.0,0.0,0.0,0.0,-2.5908,-2.581,-2.581,-2.5771,-2.5693,-2.5693,-2.5693,-2.5693,0.0,0.0,0.0,0.0,0.0,0.0,0.0,0.0,0.0,0.0,0.0,-2.5693,0.0,-2.5693,-2.5693,-2.5693,-2.5508,-2.5195,-2.5195,-2.4922,-2.4531,-2.4531,-2.4492,-2.4355,-2.4023,-2.3906,0.0,0.0,0.0,0.0,0.0,0.0,0.0,0.0,0.0,-2.3101,0.0,0.0,0.0,-2.3101,-2.3101,-2.3101,0.0,-2.3101,-2.3101,-2.3101,-2.3101,-2.3101,-2.3101,-2.3101,-2.3101,-2.3101,-2.3101,-2.3101,-2.3101,-2.3101,-2.3101,-2.3101,-2.2906,-2.2818,-2.2818,-2.2467,-2.1784,-2.0737,-2.0286,-1.9559,-1.8519,-1.8334,-1.8365,-1.869,-1.7934,-1.7879,-1.8369,-1.763,-1.742,-1.7582,-1.7582,-1.7582,-1.7582,-1.7582,-1.7582,-1.7582,-1.7582,-1.7582,-1.7582,-1.7582,-1.7582,-1.7582,-2.6875,-2.6875,-2.6875,-2.6875,-2.6875,-2.6875,-2.6875,-2.6914,0.0,0.0,0.0,0.0,0.0,0.0,0.0,0.0,0.0,0.0,-2.6953,0.0,0.0,-2.6328,-2.6309,-2.6133,-2.5693,-2.5693,-2.5693,-2.5693,0.0,0.0,0.0,0.0,0.0,0.0,-2.5693,0.0,0.0,0.0,-2.5693,0.0,-2.5693,-2.5693,0.0,-2.5693,-2.5654,-2.5615,-2.5615,-2.5371,-2.5047,0.0,-2.4727,-2.4414,0.0,-2.4355,-2.4258,-2.3848,0.0,0.0,0.0,0.0,0.0,0.0,-2.3101,0.0,-2.3101,0.0,-2.3101,-2.3101,0.0,-2.3101,0.0,0.0,0.0,-2.3101,-2.3101,-2.3101,-2.3101,-2.3101,-2.3101,-2.3101,-2.3101,-2.3101,-2.3101,-2.3101,-2.3101,-2.3101,-2.2334,-2.1872,-2.1872,-2.0844,-2.0076,-1.9666,-1.8611,-1.787,-1.7466,-1.6574,-1.6163,-1.6204,-1.6652,-1.6837,-1.6968,-1.7353,-1.7555,-1.7582,-1.7582,-1.7582,-1.7582,-1.7582,-1.7582,-1.7582,-1.7582,-1.7582,-1.7582,-1.7582,-1.7582,-1.7582,-2.7109,-2.7012,-2.7012,-2.7012,-2.7012,-2.7012,-2.7012,-2.7226,0.0,0.0,0.0,0.0,0.0,0.0,0.0,0.0,0.0,-2.7402,-2.7402,0.0,0.0,0.0,-2.6758,-2.666,-2.6484,-2.6434,-2.6367,-2.6113,-2.6113,0.0,0.0,0.0,0.0,0.0,-2.5693,0.0,-2.5693,0.0,-2.5693,0.0,0.0,-2.5693,0.0,-2.5693,-2.5693,-2.5693,-2.5693,-2.5557,-2.5449,0.0,-2.5332,0.0,0.0,0.0,0.0,-2.4094,0.0,0.0,0.0,0.0,0.0,0.0,0.0,0.0,-2.1543,0.0,-2.2138,0.0,0.0,0.0,0.0,0.0,0.0,0.0,-2.2731,-2.3101,-2.3101,-2.3101,-2.3101,-2.3101,-2.3101,-2.3101,-2.3101,-2.2599,-2.229,-2.229,-2.1364,-2.0782,-2.0664,-2.0031,-1.9301,-1.8473,-1.7824,-1.7138,-1.6433,-1.6021,-1.5784,-1.5832,-1.6259,-1.654,-1.6727,-1.7141,-1.7474,-1.7582,-1.7582,-1.7582,-1.7582,-1.7582,-1.7582,-1.7582,-1.7582,-1.7582,-1.7582,-1.7582,-1.7582,-1.7582,-2.748,0.0,-2.7363,-2.7363,-2.7363,-2.7363,-2.7363,-2.7637,-2.7949,0.0,0.0,0.0,-2.8301,-2.8301,0.0,0.0,-2.8008,-2.7832,-2.7832,0.0,-2.7305,0.0,-2.7187,0.0,-2.7012,-2.7012,-2.6875,-2.6562,-2.6562,0.0,0.0,0.0,0.0,0.0,0.0,-2.5693,-2.5693,0.0,-2.5752,-2.5869,-2.5869,-2.5977,-2.6025,-2.5908,-2.5869,-2.5869,-2.5869,-2.5791,-2.5693,-2.5693,-2.5479,-2.5226,-2.4948,-2.4304,-2.3729,0.0,0.0,0.0,-2.2232,0.0,0.0,0.0,0.0,0.0,0.0,0.0,0.0,0.0,-2.015,0.0,0.0,0.0,0.0,0.0,0.0,-2.2227,-2.2227,-2.2227,-2.2334,-2.2687,-2.2467,-2.2315,-2.2315,-2.1695,-2.1275,-2.1275,-2.0376,-1.9741,-1.9484,-1.898,-1.8288,-1.7326,-1.7044,-1.6527,-1.5832,-1.5784,-1.5872,-1.5952,-1.6246,-1.654,-1.6834,-1.7179,-1.7434,-1.7582,-1.7582,-1.7582,-1.7582,-1.7582,-1.7582,-1.7582,-1.7582,-1.7582,-1.7582,-1.7582,-1.7582,-1.7582,-2.8262,-2.8262,0.0,-2.8262,-2.8262,-2.8262,-2.8262,-2.8262,-2.8281,-2.8301,-2.8301,-2.8301,-2.8301,-2.8301,-2.8301,0.0,0.0,-2.8262,-2.8262,-2.8262,-2.8066,0.0,0.0,-2.7441,0.0,-2.7012,-2.7012,-2.6992,0.0,0.0,0.0,0.0,0.0,0.0,-2.5869,-2.5693,-2.5693,-2.5693,-2.5977,-2.6367,-2.6367,-2.6602,-2.6934,0.0,-2.6367,-2.6367,-2.6367,-2.6094,-2.5693,-2.5693,-2.502,-2.4146,-2.4128,-2.4128,0.0,0.0,0.0,0.0,0.0,0.0,0.0,-2.0954,0.0,0.0,0.0,0.0,-2.0195,0.0,0.0,0.0,0.0,0.0,0.0,0.0,0.0,0.0,0.0,-1.9985,-2.0439,-2.1606,-2.0872,-2.0286,-2.0286,-2.0286,-2.024,-2.024,-1.9376,-1.875,-1.8473,-1.7326,-1.6541,-1.6272,-1.5974,-1.5832,-1.5784,-1.5784,-1.5979,-1.6308,-1.6553,-1.6847,-1.7192,-1.7435,-1.7569,-1.7582,-1.7582,-1.7582,-1.7582,-1.7582,-1.7582,-1.7582,-1.7582,-1.7582,-1.7582,-1.7582,-1.7582,-1.7582,-2.8301,0.0,0.0,-2.8301,-2.8301,-2.8301,-2.8301,-2.8301,-2.8301,-2.8301,-2.8301,-2.8301,-2.8301,-2.8301,-2.8301,-2.8301,-2.8301,-2.8301,-2.8301,-2.8301,0.0,-2.8086,0.0,-2.8008,0.0,0.0,-2.7734,0.0,0.0,0.0,0.0,0.0,0.0,0.0,0.0,-2.6582,0.0,0.0,0.0,0.0,0.0,-2.7051,-2.7402,0.0,-2.6321,-2.5619,-2.5619,-2.5475,-2.5325,-2.5045,-2.477,-2.4514,-2.4189,-2.3135,-2.2114,-2.2678,-2.1595,-2.0386,-2.1016,-2.0178,-1.9154,-1.9272,-1.9701,-1.9894,-1.8987,0.0,0.0,0.0,0.0,0.0,0.0,0.0,0.0,0.0,0.0,0.0,0.0,0.0,-1.9117,-1.9695,-2.0014,-2.015,-2.0014,-1.9559,-1.9193,-1.901,-1.8241,-1.7652,-1.7232,-1.681,-1.64,-1.5927,-1.5832,-1.5784,-1.5784,-1.5784,-1.5979,-1.6273,-1.6567,-1.686,-1.7206,-1.7501,-1.7582,-1.7582,-1.7582,-1.7582,-1.7582,-1.7582,-1.7582,-1.7582,-1.7582,-1.7582,-1.7582,-1.7582,-1.7582,-1.7582,-2.875,-2.875,-2.8652,-2.834,-2.8301,-2.8301,-2.8301,-2.8301,-2.8301,-2.8301,-2.8418,-2.8516,-2.8516,-2.8652,-2.875,-2.875,-2.875,-2.875,-2.875,-2.8613,0.0,-2.8516,-2.8379,-2.8301,0.0,0.0,0.0,0.0,0.0,-2.7754,0.0,0.0,0.0,0.0,0.0,-2.7012,-2.7012,-2.7012,-2.7109,0.0,0.0,-2.6989,0.0,0.0,-2.6128,-2.605,-2.5632,-2.5365,-2.5097,-2.443,-2.3997,-2.3669,-2.3267,-2.218,-2.1206,-2.1776,-2.0928,-1.9989,-2.0455,-1.9801,-1.8906,-1.8701,-1.9055,-1.9201,-1.8351,-1.8405,-1.8323,0.0,0.0,0.0,0.0,0.0,0.0,0.0,0.0,0.0,0.0,-1.7917,-1.7746,-1.801,-1.8688,-1.9101,-1.898,-1.8473,-1.8118,-1.801,-1.7512,-1.7012,-1.6636,-1.6588,-1.6353,-1.5832,-1.5784,-1.5784,-1.5784,-1.5939,-1.6139,-1.6433,-1.6727,-1.7021,-1.7367,-1.7502,-1.7582,-1.7582,-1.7582,-1.7582,-1.7582,-1.7582,-1.7582,-1.7582,-1.7582,-1.7582,-1.7582,-1.7582,-1.7318,-1.7041,-2.9626,-2.9626,-2.9316,-2.8496,-2.834,-2.832,-2.832,-2.832,-2.834,-2.8359,-2.8711,-2.8945,-2.8945,-2.9316,-2.9626,-2.9626,-2.9626,-2.9626,-2.9626,-2.918,0.0,0.0,-2.8535,-2.832,-2.8301,0.0,0.0,0.0,0.0,0.0,0.0,0.0,0.0,0.0,-2.7266,0.0,-2.707,-2.7019,-2.7201,-2.7453,-2.6695,-2.6409,-2.63,-2.5113,-2.5883,-2.7361,-2.618,-2.5481,-2.4979,-2.3807,-2.2745,-2.1786,-2.1491,-2.1381,-2.1265,-2.0917,-2.0858,-2.0858,-2.0842,-2.0086,-1.9272,-1.9272,-1.9038,-1.8803,-1.8789,-1.8123,-1.7432,-1.7403,0.0,0.0,0.0,0.0,0.0,0.0,0.0,0.0,0.0,0.0,-1.6319,-1.6588,-1.7012,-1.7279,-1.7232,-1.7106,-1.7073,-1.7232,-1.7106,-1.6885,0.0,-1.6588,-1.6353,-1.5832,-1.5784,-1.5784,-1.5784,-1.6126,-1.642,-1.6714,-1.7058,-1.7353,-1.7582,-1.7582,-1.7582,-1.7582,-1.7582,-1.7582,-1.7582,-1.7582,-1.7582,-1.7582,-1.7529,-1.7477,-1.7424,-1.7477,-1.6776,-1.5968,-2.9626,-2.9626,-2.9548,-2.9333,-2.8965,-2.8769,-2.8769,-2.8769,-2.8867,-2.9199,-2.9336,-2.9394,-2.9394,-2.9512,-2.9626,-2.9626,-2.9626,-2.9626,-2.9626,0.0,0.0,-2.8926,-2.8809,-2.8613,-2.8301,-2.8301,-2.8301,-2.8301,0.0,0.0,-2.8301,0.0,0.0,0.0,0.0,-2.7969,-2.7916,-2.7028,-2.6153,-2.5484,-2.5243,-2.5168,-2.5113,-2.4837,-2.4989,-2.5302,-2.4166,-2.4209,-2.4602,-2.3097,-2.2471,-2.2259,-2.1856,-2.1171,-2.0465,-2.0151,-2.0099,-2.0054,-1.9799,-1.9532,-1.9272,-1.9272,-1.9265,-1.903,-1.8593,-1.847,-1.8209,-1.728,-1.7125,-1.7012,-1.6502,0.0,0.0,0.0,0.0,0.0,0.0,0.0,0.0,-1.6588,-1.6871,-1.6932,-1.6494,-1.6791,-1.6932,-1.6777,-1.6932,-1.6885,-1.6636,-1.64,-1.6163,-1.5832,-1.5784,-1.5784,-1.5784,-1.6126,-1.642,-1.6714,-1.7058,-1.7353,-1.7582,-1.7582,-1.7582,-1.7582,-1.7582,-1.7582,-1.7582,-1.7582,-1.7582,-1.7529,-1.667,-1.5808,-1.5102,-1.6021,-1.5583,-1.462,-3.0156,-3.0156,-3.0078,-2.9883,-2.9648,-2.9414,-2.9238,-2.9199,-2.9297,-2.9607,-2.9726,-2.9844,-2.9844,-3.0019,-3.0156,-3.0156,-3.0156,-3.0156,-3.0156,0.0,0.0,-2.9492,-2.9297,-2.9004,-2.8574,-2.8574,0.0,-2.8301,0.0,0.0,-2.8301,0.0,0.0,0.0,0.0,-2.8301,-2.8228,-2.7025,-2.6409,-2.6118,-2.4561,-2.4228,0.0,-2.3575,-2.3519,-2.3799,-2.2652,-2.2974,-2.3766,-2.2305,-2.1867,-2.1861,-2.1469,-2.0868,-2.0384,-2.0062,-1.9872,-1.9725,-1.9377,-1.9284,-1.9272,-1.9182,-1.922,-1.9176,-1.8692,-1.8534,-1.8282,-1.7562,-1.7246,-1.696,-1.6635,-1.6354,0.0,0.0,0.0,0.0,0.0,0.0,0.0,0.0,-1.64,-1.6353,-1.6069,-1.6602,-1.6885,-1.6636,-1.673,-1.6697,-1.6447,-1.6272,-1.6082,-1.5832,-1.5784,-1.5885,-1.6019,-1.6313,-1.6607,-1.6901,-1.7246,-1.7474,-1.7582,-1.7582,-1.7582,-1.7582,-1.7582,-1.7582,-1.7582,-1.7582,-1.7318,-1.6723,-1.5595,-1.4406,-1.3437,-1.4137,-1.3922,-1.3437,-3.0957,-3.0937,-3.0762,-3.0351,-3.0293,-3.0156,-2.9805,-2.9744,-2.9668,-2.9726,-3.0059,-3.0293,-3.0293,-3.0644,-3.0898,-3.0898,-3.0898,-3.0898,-3.0898,-3.0508,-3.0254,-3.0195,-2.9844,-2.9453,-2.9004,-2.9004,-2.8789,0.0,0.0,0.0,0.0,0.0,0.0,0.0,0.0,0.0,0.0,-2.6971,-2.6916,-2.7349,-2.4245,-2.3519,-2.4005,-2.1987,-2.1873,-2.2652,-2.1603,-2.1987,-2.2805,-2.1603,-2.1203,-2.1159,-2.0881,-2.0794,-2.072,-2.0343,-2.0106,-1.9833,-1.9521,-1.9382,-1.924,-1.9083,-1.9107,-1.9182,-1.8921,-1.8433,-1.8068,-1.7974,-1.7355,-1.6869,-1.7009,-1.6567,0.0,0.0,0.0,0.0,0.0,0.0,0.0,0.0,0.0,0.0,-1.5784,-1.6447,-1.6791,-1.6588,-1.6541,-1.6447,-1.6224,-1.6177,-1.6021,-1.5832,-1.5784,-1.5979,-1.6321,-1.6567,-1.686,-1.7206,-1.7448,-1.7582,-1.7582,-1.7477,-1.7371,-1.7371,-1.7199,-1.7147,-1.7147,-1.7147,-1.6446,-1.5316,-1.4298,-1.3166,-1.22,-1.22,-1.22,-1.2309,-3.1267,-3.1054,-3.0859,-3.0781,-3.0762,-3.0742,-3.0664,-3.0332,-3.0234,-3.0605,-3.0723,-3.0762,-3.0762,-3.084,-3.0898,-3.0898,-3.0898,-3.0898,-3.0898,-3.082,0.0,-3.0215,-3.0137,-2.9883,-2.9473,-2.9453,-2.9238,0.0,0.0,0.0,0.0,0.0,0.0,0.0,0.0,0.0,-2.6808,-2.6591,0.0,-2.3855,-2.3255,-2.2539,-2.1759,-2.1375,-2.1318,-2.1489,-2.1261,-2.1987,-2.2805,-2.1603,-2.1203,-2.1203,-2.1145,-2.113,-2.1057,-2.0735,-2.0603,-2.0501,-2.0114,-1.97,-1.9362,-1.9575,-1.9319,-1.8869,-1.8541,-1.8603,-1.8504,-1.7774,-1.7687,-1.7636,-1.7186,-1.6638,0.0,0.0,0.0,0.0,0.0,0.0,0.0,0.0,0.0,-1.6021,-1.5832,-1.613,-1.6319,-1.6272,-1.6272,-1.6272,-1.6224,-1.5974,-1.5832,-1.5784,-1.5784,-1.5979,-1.6321,-1.6567,-1.686,-1.7206,-1.7448,-1.7582,-1.7582,-1.6617,-1.618,-1.6127,-1.5156,-1.4728,-1.4728,-1.4728,-1.403,-1.3004,-1.2788,-1.1982,-1.1017,-1.1017,-1.1017,-1.1017,-3.1325,-3.1112,-3.0898,-3.0898,-3.0898,-3.0898,-3.0898,-3.0703,-3.0644,-3.0859,-3.0898,-3.0898,-3.0898,-3.0898,-3.0898,-3.0898,-3.0898,-3.0898,-3.0898,-3.0898,-3.0801,-3.0566,-3.0547,-3.0351,-2.9902,-2.9902,-2.9687,-2.9258,0.0,0.0,0.0,0.0,0.0,0.0,0.0,-2.7025,0.0,0.0,-2.491,-2.3855,-2.3255,-2.2652,-2.2101,-2.1432,-2.1203,-2.1203,-2.1203,-2.1603,-2.1987,-2.1375,-2.1203,-2.1203,-2.1203,-2.1203,-2.1174,-2.1028,-2.0852,-2.0635,-2.0349,-1.9924,-1.9542,-1.937,-1.9106,-1.8791,-1.8307,-1.8331,-1.829,-1.7669,-1.7661,-1.7622,-1.7182,-1.667,-1.6268,-1.6086,-1.5925,0.0,0.0,0.0,-1.5784,0.0,0.0,0.0,0.0,-1.5927,-1.5974,-1.5974,-1.613,-1.613,-1.5974,-1.5879,-1.5784,-1.5784,-1.5979,-1.6206,-1.6486,-1.6794,-1.7088,-1.7382,-1.6924,-1.6723,-1.667,-1.5476,-1.4995,-1.4942,-1.4352,-1.4083,-1.403,-1.3437,-1.2896,-1.2363,-1.1773,-1.1181,-1.0688,-1.0688,-1.0688,-1.0688,-3.1325,-3.1112,-3.0898,-3.0898,-3.0898,-3.0898,-3.0898,-3.0898,-3.0898,-3.0898,-3.0898,-3.0898,-3.0898,-3.0898,-3.0898,-3.0898,-3.0898,-3.0898,-3.0898,-3.0898,-3.0898,-3.0898,-3.0898,-3.0723,-3.0351,-3.0351,-3.0137,0.0,0.0,0.0,0.0,0.0,0.0,0.0,0.0,0.0,-2.6665,-2.5412,-2.4743,-2.4463,-2.3521,-2.3042,-2.2741,-2.168,-2.132,-2.1306,-2.1233,-2.1203,-2.1203,-2.1203,-2.1203,-2.1203,-2.1203,-2.1203,-2.1203,-2.1203,-2.1028,-2.0767,-2.0527,-2.0143,-1.9678,-1.9313,-1.8982,-1.8668,-1.822,-1.8058,-1.7911,-1.7635,-1.7551,-1.7463,-1.7163,-1.6769,-1.6469,-1.6348,-1.6072,0.0,0.0,0.0,0.0,0.0,0.0,0.0,-1.5784,-1.5784,-1.5784,-1.5784,-1.5974,-1.6021,-1.5832,-1.5784,-1.5784,-1.5784,-1.6112,-1.642,-1.67,-1.679,-1.6977,-1.7199,-1.6074,-1.5541,-1.5488,-1.4298,-1.376,-1.3706,-1.3491,-1.3383,-1.3329,-1.2417,-1.2037,-1.1928,-1.1072,-1.0688,-1.0688,-1.0688,-1.0688,-1.0696,-3.1325,-3.1112,-3.0898,-3.0898,-3.0898,-3.0898,-3.0898,-3.0898,-3.0898,-3.0898,-3.0898,-3.0898,-3.0898,-3.0898,-3.0898,-3.0898,-3.0898,-3.0898,-3.0898,-3.0898,-3.0898,-3.0898,-3.0898,-3.0859,-3.082,-3.082,-3.0605,0.0,0.0,-2.9726,-2.8926,0.0,0.0,0.0,-2.807,-2.7486,-2.743,-2.6157,-2.4945,-2.397,-2.3853,-2.3178,-2.223,-2.1818,-2.1657,-2.1613,-2.132,-2.1203,-2.1203,-2.1203,-2.1203,-2.1203,-2.1203,-2.1203,-2.1203,-2.1203,-2.1189,-2.1159,-2.1102,-2.0458,-1.9878,-2.0089,-1.9318,-1.8522,-1.8494,-1.8222,-1.7911,-1.7635,-1.7621,-1.7501,-1.7219,-1.7139,-1.6951,-1.6415,-1.6246,-1.6139,0.0,0.0,-1.5784,-1.5784,0.0,0.0,-1.5784,-1.5784,-1.5784,-1.5784,-1.5832,-1.5832,-1.5784,-1.5784,-1.5784,-1.5784,-1.6112,-1.642,-1.67,-1.5959,-1.5753,-1.6021,-1.4835,-1.4298,-1.4245,-1.3058,-1.258,-1.2526,-1.1446,-1.1017,-1.1017,-1.0907,-1.0852,-1.0852,-1.0743,-1.0688,-1.0688,-1.0688,-1.0688,-1.0712,-3.1325,-3.1112,-3.0976,-3.123,-3.1269,-3.1348,-3.1621,-3.166,-3.166,-3.166,-3.1426,-3.1367,-3.1621,-3.166,-3.166,-3.166,-3.1426,-3.1269,-3.1269,-3.1035,-3.0898,-3.0898,-3.0898,-3.0898,-3.0898,-3.0898,-3.0801,0.0,0.0,0.0,0.0,0.0,-2.8653,-2.8295,-2.6278,-2.5816,-2.6491,-2.5177,-2.3964,-2.293,-2.361,-2.3211,-2.2169,-2.2037,-2.1993,-2.195,-2.1613,-2.1496,-2.1467,-2.1276,-2.1203,-2.1203,-2.1203,-2.1203,-2.1203,-2.1203,-2.1089,-2.0902,-2.0902,-2.0358,-1.9818,-1.9765,-1.9249,-1.8643,-1.8293,-1.8117,-1.7916,-1.7675,-1.7582,-1.7542,-1.7487,-1.7326,-1.7125,-1.6884,-1.6549,-1.6233,0.0,0.0,0.0,-1.5784,0.0,-1.5784,-1.5784,-1.5784,-1.5784,-1.5784,-1.5784,-1.5784,-1.5784,-1.5784,-1.5547,-1.4914,-1.5993,-1.5932,-1.471,-1.5383,-1.5382,-1.4835,-1.3652,-1.3058,-1.3058,-1.1882,-1.1391,-1.1337,-1.0907,-1.0688,-1.0688,-1.0688,-1.0761,-1.0858,-1.0858,-1.0923,-1.1013,-1.1013,-1.1013,-1.1021,-3.1545,-3.1427,-3.1367,-3.166,-3.1699,-3.1816,-3.2129,-3.2229,-3.2207,-3.2344,-3.209,-3.1953,-3.2148,-3.2229,-3.2229,-3.2229,-3.1894,-3.1699,-3.1699,-3.1309,-3.1074,-3.1074,-3.0957,-3.0898,-3.0898,-3.0509,-3.0528,-3.0898,-3.0528,0.0,-2.9604,-2.8315,-2.7643,-2.7325,-2.5215,-2.4801,-2.5553,-2.4265,-2.3218,-2.2508,-2.3323,-2.3157,-2.2447,-2.2345,-2.2315,-2.2271,-2.195,-2.1774,-2.1657,-2.1423,-2.1291,-2.1203,-2.1203,-2.1203,-2.1203,-2.1203,-2.096,-2.0716,-2.0716,-2.027,-1.9768,-1.9549,-1.9212,-1.8811,-1.8342,-1.8115,-1.7902,-1.7649,-1.7582,-1.7582,-1.7582,-1.7474,-1.73,-1.7219,-1.6857,-1.6522,0.0,-1.6086,0.0,-1.5798,-1.5784,-1.5689,-1.5404,-1.5356,-1.5248,-1.4902,-1.4902,-1.501,-1.5343,-1.5421,-1.4992,-1.3977,-1.517,-1.5083,-1.3493,-1.442,-1.446,-1.3599,-1.2417,-1.1882,-1.1882,-1.1072,-1.072,-1.0769,-1.0769,-1.0802,-1.085,-1.085,-1.0923,-1.1045,-1.1045,-1.1118,-1.1224,-1.1224,-1.1256,-1.1313,-3.2209,-3.2209,-3.2209,-3.2168,-3.2168,-3.2168,-3.2229,-3.2229,-3.2324,-3.2734,-3.2793,-3.2617,-3.2207,-3.2229,-3.2229,-3.2229,-3.2168,-3.2168,-3.2168,-3.1758,-3.1504,-3.1504,-3.1113,-3.0898,-3.0898,-2.9589,-2.9589,-3.0898,0.0,-2.8718,-2.8275,-2.7029,-2.6628,-2.6944,-2.5668,-2.5117,-2.4994,-2.3713,-2.3106,-2.3091,-2.3091,-2.3106,-2.3062,-2.274,-2.2623,-2.2579,-2.2286,-2.1964,-2.1701,-2.1686,-2.1481,-2.1203,-2.1203,-2.1203,-2.1203,-2.1203,-2.096,-2.0716,-2.0716,-2.027,-1.9809,-1.9809,-1.9361,-1.8918,-1.8918,-1.8408,-1.7902,-1.7649,-1.7582,-1.7582,-1.7582,-1.7582,-1.7488,-1.7246,-1.7192,-1.6991,-1.6402,-1.6321,0.0,-1.5858,-1.5784,-1.5404,-1.4388,-1.434,-1.3908,-1.2823,-1.2727,-1.3221,-1.4244,-1.4485,-1.4124,-1.3043,-1.3493,-1.3729,-1.3677,-1.2842,-1.2417,-1.2417,-1.1282,-1.0743,-1.0743,-1.0696,-1.0794,-1.102,-1.102,-1.1062,-1.1216,-1.1216,-1.1216,-1.1224,-1.1224,-1.1224,-1.1224,-1.1224,-1.1338,-1.1524,-3.2229,-3.2229,-3.2266,-3.2539,-3.2598,-3.2695,-3.2988,-3.3027,-3.3066,-3.3203,-3.3223,-3.3164,-3.3047,-3.3027,-3.3027,-3.3027,-3.2754,-3.2598,-3.2598,-3.2207,-3.1836,-3.1523,-3.1387,-3.1191,-3.0898,-2.9589,-2.9098,-2.953,-2.8206,-2.7056,-2.6111,-2.5687,-2.557,-2.5684,-2.4332,-2.4209,-2.501,-2.3666,-2.3106,-2.3106,-2.3106,-2.3106,-2.3091,-2.2988,-2.2959,-2.2915,-2.2593,-2.2418,-2.2301,-2.2096,-2.1818,-2.154,-2.154,-2.1393,-2.1203,-2.1203,-2.096,-2.0658,-2.05,-2.0097,-1.9764,-1.9591,-1.935,-1.9172,-1.8971,-1.8408,-1.7969,-1.7862,-1.7729,-1.7582,-1.7582,-1.7582,-1.7555,-1.7514,-1.7326,-1.7139,-1.6951,-1.67,-1.6526,-1.6433,-1.5611,-1.4899,-1.4606,-1.3759,-1.3076,-1.2727,-1.2839,-1.3034,-1.338,-1.3446,-1.3068,-1.2159,-1.3164,-1.3004,-1.1487,-1.2098,-1.1982,-1.1227,-1.0852,-1.0761,-1.0883,-1.0883,-1.098,-1.1143,-1.1143,-1.1175,-1.1224,-1.1224,-1.1297,-1.1411,-1.1411,-1.1492,-1.1614,-1.1727,-1.1809,-1.189,-3.2637,-3.2637,-3.2715,-3.2988,-3.3027,-3.3125,-3.3379,-3.3418,-3.3418,-3.3418,-3.3418,-3.3418,-3.3418,-3.3418,-3.3418,-3.3418,-3.3184,-3.3027,-3.3027,-3.2637,-3.2082,-3.1245,-3.1535,-3.1324,-3.0346,-2.9099,-2.8589,-2.892,-2.7125,-2.5867,-2.5071,-2.4579,-2.4332,-2.4332,-2.3479,-2.3604,-2.427,-2.3479,-2.3106,-2.3106,-2.3106,-2.3106,-2.3106,-2.3106,-2.3106,-2.3076,-2.2871,-2.2725,-2.2593,-2.2418,-2.214,-2.1862,-2.173,-2.1554,-2.1364,-2.1247,-2.096,-2.0658,-2.0385,-2.004,-1.9764,-1.9488,-1.943,-1.9292,-1.8985,-1.8582,-1.8262,-1.8035,-1.7889,-1.7716,-1.7609,-1.7582,-1.7582,-1.7582,-1.7487,-1.7326,-1.7219,-1.7045,-1.6834,-1.6714,-1.5582,-1.4636,-1.4236,-1.3093,-1.2153,-1.1805,-1.1892,-1.1948,-1.2035,-1.2393,-1.2196,-1.1246,-1.2124,-1.1907,-1.0534,-1.1339,-1.1391,-1.0688,-1.0761,-1.0858,-1.1028,-1.1037,-1.1159,-1.133,-1.133,-1.1362,-1.1435,-1.1435,-1.15,-1.1606,-1.1606,-1.1671,-1.1801,-1.1963,-1.2077,-1.2158,-3.3418,-3.3418,-3.3418,-3.3418,-3.3418,-3.3418,-3.3418,-3.3418,-3.3418,-3.3418,-3.3418,-3.3418,-3.3418,-3.3418,-3.3418,-3.3418,-3.3418,-3.3418,-3.3418,-3.3066,-3.2171,-3.078,-3.1584,-3.1245,-2.9337,-2.8062,-2.7809,-2.8486,-2.6095,-2.4949,-2.4949,-2.3666,-2.3106,-2.3106,-2.3106,-2.3106,-2.3106,-2.3106,-2.3106,-2.3106,-2.3106,-2.3106,-2.3106,-2.3106,-2.3106,-2.3106,-2.3106,-2.2915,-2.2652,-2.2652,-2.2462,-2.2169,-2.1862,-2.173,-2.1628,-2.1306,-2.096,-2.0658,-2.0385,-2.004,-1.9764,-1.9475,-1.943,-1.9292,-1.9011,-1.8945,-1.8715,-1.8169,-1.8022,-1.7902,-1.7662,-1.7595,-1.7582,-1.7582,-1.7582,-1.7488,-1.7273,-1.7233,-1.7074,-1.6693,-1.5619,-1.4491,-1.3418,-1.2277,-1.1191,-1.0264,-1.0228,-1.0257,-1.0375,-1.1336,-1.1451,-1.0452,-1.0607,-1.0688,-1.0688,-1.0688,-1.0696,-1.0712,-1.0883,-1.098,-1.1069,-1.1167,-1.1346,-1.1516,-1.1516,-1.1614,-1.1776,-1.1776,-1.1776,-1.1776,-1.1776,-1.1784,-1.1817,-1.1987,-1.2166,-1.2353,-3.3418,-3.3418,-3.3418,-3.3418,-3.3418,-3.3418,-3.3418,-3.3418,-3.3418,-3.3418,-3.3418,-3.3418,-3.3418,-3.3418,-3.3418,-3.3418,-3.3418,-3.3418,-3.3418,-3.332,-3.2478,-3.0736,-3.0958,-3.02,-2.8373,-2.6773,-2.553,-2.444,-2.3837,-2.3604,-2.3604,-2.323,-2.3106,-2.3106,-2.3106,-2.3106,-2.3106,-2.3106,-2.3106,-2.3106,-2.3106,-2.3106,-2.3106,-2.3106,-2.3106,-2.3106,-2.3106,-2.3062,-2.2988,-2.2988,-2.2784,-2.2506,-2.2432,-2.2081,-2.1628,-2.1306,-2.1146,-2.0974,-2.0443,-2.0213,-2.004,-1.9533,-1.943,-1.9403,-1.9279,-1.9092,-1.8878,-1.8744,-1.8302,-1.7969,-1.7902,-1.7742,-1.7582,-1.7582,-1.7582,-1.7555,-1.7488,-1.7527,-1.7134,-1.6218,-1.4978,-1.3717,-1.2575,-1.1333,-1.0473,-1.0212,-1.029,-1.0387,-1.0383,-1.0775,-1.0895,-1.0631,-1.0672,-1.0688,-1.0688,-1.0688,-1.0761,-1.0907,-1.1004,-1.111,-1.137,-1.1419,-1.1533,-1.1711,-1.1711,-1.1736,-1.1776,-1.1776,-1.1776,-1.1776,-1.1776,-1.1857,-1.1996,-1.2174,-1.2353,-1.2532,-3.4004,-3.4004,-3.4004,-3.4004,-3.4004,-3.4004,-3.4004,-3.4004,-3.4004,-3.4004,-3.4004,-3.3926,-3.375,-3.3711,-3.3633,-3.3437,-3.3418,-3.3418,-3.3418,-3.3418,-3.267,-3.1074,-3.0992,-3.0094,-2.8311,-2.6791,-2.5184,-2.3325,-2.3325,-2.3252,-2.3106,-2.3106,-2.3106,-2.3106,-2.3106,-2.3106,-2.3106,-2.3106,-2.3106,-2.3106,-2.3106,-2.3106,-2.3106,-2.3106,-2.3106,-2.3106,-2.3106,-2.3106,-2.3106,-2.3106,-2.2988,-2.2813,-2.2667,-2.2389,-2.1963,-2.138,-2.1205,-2.1031,-2.027,-2.0155,-2.0155,-1.9533,-1.943,-1.943,-1.943,-1.9239,-1.9092,-1.8958,-1.8621,-1.8315,-1.8049,-1.7849,-1.7742,-1.7609,-1.7582,-1.7424,-1.6882,-1.7265,-1.6988,-1.5263,-1.4456,-1.3529,-1.2418,-1.1149,-1.0404,-1.0404,-1.0493,-1.055,-1.055,-1.0639,-1.0688,-1.0688,-1.0688,-1.0688,-1.0688,-1.0777,-1.0867,-1.1028,-1.1135,-1.1313,-1.15,-1.1589,-1.1679,-1.1776,-1.1776,-1.1776,-1.1776,-1.1776,-1.1776,-1.1776,-1.1776,-1.1882,-1.199,-1.2239,-1.2418,-1.2588,-3.4707,-3.4707,-3.4707,-3.4707,-3.4707,-3.4707,-3.4707,-3.4707,-3.4707,-3.4707,-3.4707,-3.457,-3.4199,-3.416,-3.4023,-3.3652,-3.3364,-3.3243,-3.3355,-3.3418,-3.2765,-3.1387,-3.113,-3.0177,-2.8429,-2.7035,-2.5485,-2.3676,-2.3676,-2.3501,-2.3179,-2.3179,-2.3164,-2.3106,-2.3106,-2.3106,-2.3106,-2.3106,-2.3106,-2.3106,-2.3106,-2.3106,-2.3106,-2.3106,-2.3106,-2.3106,-2.3106,-2.3106,-2.3106,-2.3106,-2.3106,-2.3062,-2.2784,-2.2667,-2.2459,-2.1548,-2.1263,-2.0974,-2.0053,-1.9982,-2.0053,-1.9533,-1.943,-1.943,-1.943,-1.943,-1.9292,-1.9038,-1.8958,-1.8701,-1.8155,-1.8022,-1.7889,-1.7635,-1.7477,-1.6988,-1.6021,-1.6564,-1.6287,-1.4083,-1.3868,-1.3383,-1.2254,-1.1282,-1.0688,-1.0688,-1.0688,-1.0688,-1.0688,-1.0688,-1.0688,-1.0688,-1.0688,-1.0704,-1.0729,-1.0891,-1.1053,-1.1053,-1.1354,-1.1516,-1.1549,-1.1703,-1.1776,-1.1776,-1.1776,-1.1776,-1.1776,-1.1776,-1.1776,-1.1776,-1.1801,-1.1922,-1.2093,-1.228,-1.2386,-1.2362,-3.4707,-3.4707,-3.4707,-3.4707,-3.4707,-3.4707,-3.4707,-3.4707,-3.4707,-3.4707,-3.4707,-3.4668,-3.4609,-3.4609,-3.457,-3.4512,-3.3122,-3.2569,-3.3374,-3.3418,-3.2765,-3.1387,-3.016,-2.8821,-2.7322,-2.5749,-2.4642,-2.4013,-2.4013,-2.3837,-2.3515,-2.3515,-2.3369,-2.3106,-2.3106,-2.3106,-2.3106,-2.3106,-2.3106,-2.3106,-2.3106,-2.3106,-2.3106,-2.3106,-2.3106,-2.3106,-2.3106,-2.3106,-2.3106,-2.3106,-2.3106,-2.3106,-2.3047,-2.2842,-2.2486,-2.1775,-2.141,-2.1015,-2.0051,-1.9649,-1.9546,-1.943,-1.943,-1.943,-1.943,-1.943,-1.9417,-1.9305,-1.9092,-1.8824,-1.849,-1.8223,-1.7889,-1.7635,-1.6776,-1.6074,-1.5914,-1.5156,-1.4137,-1.2842,-1.2679,-1.22,-1.1072,-1.0798,-1.0688,-1.0688,-1.0688,-1.0688,-1.0688,-1.0688,-1.0688,-1.0688,-1.0688,-1.0769,-1.0923,-1.0956,-1.1118,-1.1419,-1.1476,-1.1581,-1.1736,-1.176,-1.1776,-1.1776,-1.1776,-1.1776,-1.1776,-1.1776,-1.1776,-1.1792,-1.1931,-1.2101,-1.2288,-1.2458,-1.2045,-1.1329,-3.541,-3.541,-3.541,-3.541,-3.541,-3.541,-3.541,-3.541,-3.541,-3.541,-3.541,-3.5332,-3.5098,-3.5078,-3.463,-3.3634,-3.2766,-3.2027,-3.1429,-3.1966,-3.1982,-3.1322,-2.9965,-2.8196,-2.6032,-2.5308,-2.4738,-2.4349,-2.4349,-2.4174,-2.3866,-2.3866,-2.3691,-2.3369,-2.3369,-2.3281,-2.3106,-2.3106,-2.3106,-2.3106,-2.3106,-2.3106,-2.3106,-2.3106,-2.3106,-2.3106,-2.3106,-2.3106,-2.3106,-2.3106,-2.3106,-2.3106,-2.3106,-2.3003,-2.2733,-2.1944,-2.1101,-2.0368,-1.9891,-1.9591,-1.943,-1.943,-1.943,-1.943,-1.943,-1.943,-1.943,-1.943,-1.9252,-1.9078,-1.8771,-1.8611,-1.8315,-1.7903,-1.6845,-1.5857,-1.5018,-1.446,-1.3437,-1.1719,-1.2037,-1.1928,-1.0798,-1.0688,-1.0688,-1.0688,-1.0688,-1.0688,-1.0688,-1.0688,-1.0688,-1.0688,-1.0794,-1.0939,-1.1028,-1.1159,-1.1338,-1.15,-1.1606,-1.1695,-1.1776,-1.1776,-1.1776,-1.1776,-1.1776,-1.1776,-1.1776,-1.1776,-1.1776,-1.1784,-1.1866,-1.2004,-1.2166,-1.2247,-1.1749,-1.0855,-3.6016,-3.6016,-3.6016,-3.6016,-3.6016,-3.6016,-3.6016,-3.6016,-3.6016,-3.6016,-3.6016,-3.5898,-3.5566,-3.5547,-3.4768,-3.2979,-3.2398,-3.1527,-3.0104,-3.0306,-3.0662,-3.0807,-2.9444,-2.7551,-2.5119,-2.5119,-2.5002,-2.4753,-2.4753,-2.451,-2.4203,-2.4203,-2.4027,-2.3706,-2.3706,-2.353,-2.3223,-2.3223,-2.3179,-2.3106,-2.3106,-2.3106,-2.3106,-2.3106,-2.3106,-2.3106,-2.3106,-2.3106,-2.3106,-2.3106,-2.3106,-2.3106,-2.3106,-2.3043,-2.2812,-2.201,-2.095,-1.998,-1.9852,-1.9587,-1.943,-1.943,-1.943,-1.943,-1.943,-1.943,-1.943,-1.943,-1.943,-1.9279,-1.8985,-1.8918,-1.8758,-1.8182,-1.6917,-1.5537,-1.4364,-1.3736,-1.2683,-1.0916,-1.1446,-1.1664,-1.0798,-1.0688,-1.0688,-1.0688,-1.0688,-1.0688,-1.0688,-1.0729,-1.0777,-1.0818,-1.0915,-1.1069,-1.1094,-1.1362,-1.1524,-1.1565,-1.1711,-1.1776,-1.1776,-1.1776,-1.1776,-1.1776,-1.1776,-1.1776,-1.1776,-1.1526,-1.1595,-1.1776,-1.1574,-1.1731,-1.1974,-1.1767,-1.1173,-1.0263,-3.6016,-3.6016,-3.6016,-3.6016,-3.6016,-3.6016,-3.6016,-3.6016,-3.6016,-3.6016,-3.6016,-3.6016,-3.5976,-3.5976,-3.5325,-3.3826,-3.2136,-3.1029,-3.0805,-2.928,-2.8636,-2.9347,-2.7998,-2.6568,-2.5119,-2.5119,-2.5119,-2.509,-2.509,-2.4914,-2.454,-2.454,-2.4364,-2.4042,-2.4042,-2.3866,-2.3559,-2.3559,-2.3384,-2.3106,-2.3106,-2.3106,-2.3106,-2.3106,-2.3106,-2.3106,-2.3106,-2.3106,-2.3106,-2.3106,-2.3106,-2.3106,-2.3106,-2.2856,-2.2543,-2.2201,-2.1417,-2.0481,-1.992,-1.9573,-1.943,-1.943,-1.943,-1.943,-1.943,-1.943,-1.943,-1.943,-1.943,-1.9279,-1.8985,-1.8918,-1.8824,-1.8504,-1.6522,-1.4908,-1.4603,-1.2655,-1.1106,-1.0767,-1.0743,-1.0798,-1.0696,-1.0688,-1.0688,-1.0688,-1.0688,-1.0688,-1.0688,-1.0858,-1.1021,-1.1175,-1.1045,-1.1126,-1.1459,-1.1484,-1.1589,-1.1752,-1.1768,-1.1776,-1.1776,-1.1776,-1.1776,-1.1776,-1.1776,-1.1776,-1.1716,-1.0793,-1.0974,-1.1732,-1.0957,-1.1209,-1.1921,-1.114,-1.0186,-0.8991,-3.6016,-3.6016,-3.6016,-3.6016,-3.6016,-3.6016,-3.6016,-3.6016,-3.6016,-3.6016,-3.6016,-3.6016,-3.6016,-3.5177,-3.4057,-3.2491,-3.0879,-2.9373,-2.8263,-2.8334,-2.8355,-2.8242,-2.6677,-2.5644,-2.5119,-2.5119,-2.5119,-2.5119,-2.5119,-2.5061,-2.4943,-2.4943,-2.4767,-2.4379,-2.4379,-2.4203,-2.3881,-2.3676,-2.353,-2.3398,-2.3193,-2.3106,-2.3106,-2.3106,-2.3106,-2.3106,-2.3106,-2.3106,-2.3106,-2.3106,-2.3106,-2.3106,-2.3106,-2.2981,-2.2793,-2.223,-2.1458,-2.0628,-2.0401,-2.0,-1.9586,-1.947,-1.943,-1.943,-1.943,-1.943,-1.943,-1.943,-1.943,-1.9332,-1.9225,-1.9199,-1.8863,-1.7755,-1.6217,-1.4817,-1.3738,-1.2191,-1.1062,-1.0883,-1.0867,-1.0818,-1.0704,-1.0688,-1.0688,-1.0688,-1.0802,-1.0867,-1.0867,-1.1029,-1.1208,-1.1386,-1.133,-1.1362,-1.15,-1.1614,-1.1703,-1.1776,-1.1776,-1.1776,-1.1776,-1.1776,-1.1776,-1.1776,-1.1776,-1.1466,-1.0853,-1.049,-1.0179,-0.9883,-0.9632,-0.9713,-0.9965,-0.9649,-0.8927,-0.7811,-3.6016,-3.6016,-3.6016,-3.6016,-3.6016,-3.6016,-3.6016,-3.6016,-3.6016,-3.6016,-3.6016,-3.6016,-3.6016,-3.4677,-3.3206,-3.1649,-3.0091,-2.851,-2.6733,-2.7473,-2.7866,-2.7641,-2.605,-2.5154,-2.5134,-2.5119,-2.5119,-2.5119,-2.5119,-2.5119,-2.5119,-2.5119,-2.5002,-2.4797,-2.4797,-2.454,-2.4218,-2.3998,-2.3779,-2.3574,-2.3354,-2.3208,-2.3106,-2.3106,-2.3106,-2.3106,-2.3106,-2.3106,-2.3106,-2.3106,-2.3106,-2.3106,-2.3106,-2.2981,-2.2668,-2.1978,-2.1339,-2.0788,-2.0695,-2.0388,-1.9987,-1.9599,-1.9439,-1.943,-1.943,-1.943,-1.943,-1.943,-1.943,-1.943,-1.943,-1.943,-1.8887,-1.7386,-1.6194,-1.4887,-1.3337,-1.2058,-1.124,-1.107,-1.1045,-1.0997,-1.0867,-1.0858,-1.0858,-1.0858,-1.098,-1.1078,-1.1135,-1.1248,-1.1395,-1.1581,-1.1589,-1.1589,-1.1589,-1.1711,-1.1776,-1.1776,-1.1776,-1.1776,-1.1776,-1.1776,-1.1776,-1.1776,-1.1466,-1.0914,-1.0247,-0.9633,-0.914,-0.8775,-0.8471,-0.8532,-0.8775,-0.8471,-0.78,-0.6884,-3.6016,-3.6016,-3.6016,-3.6016,-3.6016,-3.6016,-3.6016,-3.6016,-3.6016,-3.6016,-3.6016,-3.6016,-3.5947,-3.4677,-3.3137,-3.1649,-3.0091,-2.8532,-2.7129,-2.6691,-2.6843,-2.7589,-2.6276,-2.5388,-2.5134,-2.5134,-2.5134,-2.5119,-2.5119,-2.5119,-2.5119,-2.5119,-2.5119,-2.5119,-2.5119,-2.4943,-2.4569,-2.4569,-2.4203,-2.3603,-2.3603,-2.3398,-2.3106,-2.3106,-2.3106,-2.3106,-2.3106,-2.3106,-2.3106,-2.3106,-2.3106,-2.3106,-2.3106,-2.2606,-2.1978,-2.1299,-2.1109,-2.1042,-2.0762,-2.0681,-2.0535,-1.9947,-1.9586,-1.943,-1.943,-1.943,-1.943,-1.943,-1.943,-1.943,-1.943,-1.9372,-1.8952,-1.7689,-1.6397,-1.5081,-1.3576,-1.2316,-1.1435,-1.1248,-1.1224,-1.1224,-1.1224,-1.1224,-1.1224,-1.1224,-1.1224,-1.1305,-1.1492,-1.15,-1.1589,-1.1768,-1.1776,-1.1776,-1.1776,-1.1776,-1.1776,-1.1776,-1.1776,-1.1776,-1.1776,-1.1776,-1.1776,-1.1716,-1.0732,-1.0308,-1.0119,-0.8166,-0.7922,-0.8653,-0.7739,-0.7983,-0.8653,-0.7739,-0.6945,-0.6149,-3.6016,-3.6016,-3.6016,-3.6016,-3.6016,-3.6016,-3.6016,-3.6016,-3.6016,-3.6016,-3.6016,-3.5606,-3.454,-3.3137,-3.1578,-3.002,-2.8547,-2.7492,-2.7071,-2.6896,-2.6862,-2.6858,-2.6199,-2.5725,-2.5403,-2.5388,-2.5286,-2.5119,-2.5119,-2.5119,-2.5119,-2.5119,-2.5119,-2.5119,-2.5119,-2.5075,-2.4973,-2.4671,-2.4452,-2.4247,-2.3779,-2.3545,-2.3427,-2.3193,-2.3106,-2.3106,-2.3106,-2.3106,-2.3043,-2.2856,-2.2731,-2.2731,-2.248,-2.223,-2.1978,-2.1614,-2.1299,-2.1096,-2.1002,-2.0828,-2.0535,-1.9947,-1.9733,-1.9613,-1.9412,-1.943,-1.943,-1.943,-1.943,-1.943,-1.943,-1.8648,-1.7642,-1.6397,-1.5095,-1.3825,-1.2474,-1.1935,-1.1622,-1.1443,-1.1419,-1.1362,-1.1232,-1.1224,-1.1224,-1.1224,-1.1346,-1.15,-1.1687,-1.1695,-1.1719,-1.1776,-1.1776,-1.1776,-1.1776,-1.1776,-1.1776,-1.1776,-1.1776,-1.1776,-1.1776,-1.1776,-1.1405,-1.0732,-1.0429,-0.9511,-0.8227,-0.7617,-0.6884,-0.6088,-0.6276,-0.6215,-0.6088,-0.628,-0.5908,-0.523,-3.6016,-3.6016,-3.6016,-3.6016,-3.6016,-3.6016,-3.6016,-3.6016,-3.5811,-3.5177,-3.5675,-3.5245,-3.3137,-3.207,-3.0872,-2.9322,-2.784,-2.6983,-2.6983,-2.6983,-2.6896,-2.6705,-2.65,-2.6193,-2.574,-2.5593,-2.5432,-2.5242,-2.5125,-2.5119,-2.5119,-2.5119,-2.5119,-2.5119,-2.5119,-2.5119,-2.5119,-2.4914,-2.4686,-2.454,-2.4145,-2.3823,-2.3574,-2.3369,-2.3223,-2.3106,-2.3106,-2.3106,-2.3043,-2.2731,-2.248,-2.2355,-2.1992,-2.1915,-2.1866,-2.1488,-2.1235,-2.1109,-2.1109,-2.0975,-2.0735,-2.0267,-1.9973,-1.976,-1.9586,-1.9511,-1.9243,-1.8765,-1.9068,-1.9068,-1.8064,-1.7701,-1.6926,-1.5154,-1.4202,-1.3255,-1.1957,-1.1776,-1.1736,-1.1622,-1.1606,-1.1565,-1.1451,-1.1443,-1.1443,-1.1443,-1.1549,-1.1654,-1.1768,-1.1776,-1.1776,-1.1776,-1.1776,-1.1776,-1.1776,-1.1776,-1.1776,-1.1776,-1.1776,-1.1776,-1.1776,-1.1776,-1.1224,-1.0301,-0.9876,-0.8836,-0.7373,-0.695,-0.6031,-0.4926,-0.536,-0.5114,-0.4558,-0.493,-0.4684,-0.4066,-3.6016,-3.6016,-3.6016,-3.6016,-3.6016,-3.5947,-3.5811,-3.5811,-3.5245,-3.3762,-3.4746,-3.4471,-3.1649,-3.1296,-3.066,-2.9178,-2.7768,-2.6983,-2.6983,-2.6983,-2.6983,-2.6983,-2.6983,-2.6705,-2.612,-2.5783,-2.5593,-2.5535,-2.5242,-2.5149,-2.5119,-2.5119,-2.5119,-2.5119,-2.5119,-2.5119,-2.5119,-2.5119,-2.4958,-2.4613,-2.4583,-2.4218,-2.3676,-2.3618,-2.3413,-2.3149,-2.312,-2.3106,-2.3043,-2.2668,-2.2355,-2.1978,-2.1677,-2.1614,-2.1551,-2.1172,-2.1109,-2.1109,-2.1109,-2.1109,-2.1042,-2.0775,-2.0294,-1.9867,-1.984,-1.9613,-1.905,-1.7784,-1.8428,-1.8473,-1.6042,-1.6455,-1.6385,-1.4083,-1.3605,-1.3135,-1.1957,-1.1776,-1.1776,-1.1776,-1.1776,-1.1776,-1.1776,-1.1776,-1.1776,-1.1776,-1.1776,-1.1776,-1.1776,-1.1776,-1.1776,-1.1776,-1.1776,-1.1776,-1.1776,-1.1776,-1.1776,-1.1776,-1.1776,-1.1776,-1.1776,-1.1716,-1.1103,-1.0119,-0.9079,-0.8166,-0.7189,-0.6219,-0.5421,-0.4803,-0.4803,-0.4435,-0.382,-0.3881,-0.3515,-0.296,-3.6016,-3.6016,-3.6016,-3.6016,-3.6016,-3.5587,-3.4471,-3.4264,-3.3692,-3.2211,-3.2281,-3.1789,-2.9877,-2.9663,-2.9107,-2.7623,-2.7202,-2.6983,-2.6983,-2.6983,-2.6983,-2.6983,-2.6983,-2.6925,-2.6778,-2.6457,-2.6047,-2.5535,-2.5461,-2.5301,-2.5119,-2.5119,-2.5119,-2.5119,-2.5119,-2.5119,-2.5119,-2.5119,-2.509,-2.4987,-2.4738,-2.4481,-2.4305,-2.3793,-2.3545,-2.3457,-2.3208,-2.3106,-2.2981,-2.2418,-2.1992,-2.1677,-2.1299,-2.1425,-2.1551,-2.1172,-2.1109,-2.1109,-2.1109,-2.1109,-2.1096,-2.1029,-2.0748,-2.0428,-2.0187,-1.992,-1.9338,-1.8066,-1.7895,-1.7455,-1.5865,-1.5035,-1.4312,-1.3784,-1.2835,-1.213,-1.1837,-1.1776,-1.1776,-1.1776,-1.1776,-1.1776,-1.1776,-1.1776,-1.1776,-1.1776,-1.1776,-1.1776,-1.1776,-1.1776,-1.1776,-1.1776,-1.1776,-1.1776,-1.1776,-1.1776,-1.1776,-1.1776,-1.1776,-1.1776,-1.1776,-1.0982,-1.0058,-0.9079,-0.8105,-0.7133,-0.6158,-0.5418,-0.4742,-0.4127,-0.4127,-0.3761,-0.3268,-0.3697,-0.3515,-0.2901,-3.6367,-3.6328,-3.6269,-3.6055,-3.6016,-3.5519,-3.4057,-3.378,-3.2997,-3.073,-3.1014,-3.066,-2.8403,-2.8748,-2.8619,-2.7129,-2.6983,-2.6983,-2.6983,-2.6983,-2.6983,-2.6983,-2.6983,-2.6983,-2.6983,-2.6822,-2.6486,-2.5988,-2.5681,-2.5447,-2.5271,-2.5125,-2.5119,-2.5119,-2.5119,-2.5119,-2.5119,-2.5119,-2.5119,-2.5105,-2.4943,-2.4701,-2.454,-2.4188,-2.3969,-2.3779,-2.3457,-2.3049,-2.2543,-2.2041,-2.1677,-2.1362,-2.1172,-2.1235,-2.1362,-2.1172,-2.1109,-2.1109,-2.1109,-2.1109,-2.1109,-2.1109,-2.0485,-1.9788,-1.9509,-1.9229,-1.8433,-1.642,-1.6358,-1.6105,-1.4172,-1.3734,-1.3485,-1.2904,-1.2251,-1.1776,-1.1776,-1.1776,-1.1776,-1.1776,-1.1776,-1.1776,-1.1776,-1.1776,-1.1776,-1.1776,-1.1776,-1.1776,-1.1776,-1.1776,-1.1776,-1.1776,-1.1776,-1.1776,-1.1776,-1.1776,-1.1776,-1.1776,-1.1776,-1.1526,-1.1042,-1.055,-0.9511,-0.8105,-0.7617,-0.6827,-0.5855,-0.5172,-0.4496,-0.3881,-0.3576,-0.3083,-0.2531,-0.2901,-0.2777,-0.2469,-3.6855,-3.6777,-3.6641,-3.6211,-3.5908,-3.5184,-3.3641,-3.3206,-3.2,-2.9178,-2.9949,-2.9822,-2.7274,-2.8114,-2.8331,-2.7129,-2.6983,-2.6983,-2.6983,-2.6983,-2.6983,-2.6983,-2.6983,-2.6983,-2.6983,-2.6983,-2.6837,-2.65,-2.5959,-2.5637,-2.552,-2.5257,-2.511,-2.5119,-2.5119,-2.5119,-2.5119,-2.5119,-2.5119,-2.5119,-2.5119,-2.4958,-2.4642,-2.4583,-2.4408,-2.413,-2.3793,-2.3027,-2.2111,-2.1754,-2.1362,-2.1109,-2.1109,-2.1109,-2.1109,-2.1109,-2.1109,-2.1109,-2.1109,-2.1109,-2.1109,-2.1109,-2.0068,-1.8848,-1.8443,-1.8132,-1.7145,-1.455,-1.482,-1.47,-1.2266,-1.2681,-1.3015,-1.1957,-1.1776,-1.1776,-1.1776,-1.1776,-1.1776,-1.1776,-1.1776,-1.1776,-1.1776,-1.1776,-1.1776,-1.1776,-1.1776,-1.1776,-1.1776,-1.1776,-1.1776,-1.1776,-1.1776,-1.1776,-1.1776,-1.1776,-1.1776,-1.1776,-1.1655,-1.1103,-1.0308,-1.0119,-0.9079,-0.7373,-0.7189,-0.6582,-0.5671,-0.4988,-0.4312,-0.3697,-0.3083,-0.2469,-0.1977,-0.1977,-0.1977,-0.1977,-3.7226,-3.7207,-3.709,-3.666,-3.5502,-3.3955,-3.2123,-3.066,-2.925,-2.755,-2.7478,-2.742,-2.7056,-2.7202,-2.7202,-2.6983,-2.6983,-2.6983,-2.6983,-2.6983,-2.6983,-2.6983,-2.6983,-2.6983,-2.6983,-2.6983,-2.6837,-2.65,-2.6413,-2.6076,-2.5535,-2.5491,-2.5315,-2.5119,-2.5119,-2.5119,-2.5119,-2.5119,-2.5119,-2.5119,-2.5119,-2.509,-2.5031,-2.4738,-2.454,-2.4466,-2.413,-2.3422,-2.2468,-2.1823,-2.1362,-2.1109,-2.1109,-2.1109,-2.1109,-2.1109,-2.1109,-2.1109,-2.1109,-2.1109,-2.1109,-2.1109,-2.0068,-1.8704,-1.7516,-1.6934,-1.6308,-1.4823,-1.4347,-1.3723,-1.2242,-1.1996,-1.2018,-1.1837,-1.1776,-1.1776,-1.1776,-1.1776,-1.1776,-1.1776,-1.1776,-1.1776,-1.1776,-1.1776,-1.1776,-1.1776,-1.1776,-1.1776,-1.1776,-1.1776,-1.1776,-1.1776,-1.1776,-1.1776,-1.1776,-1.1776,-1.1776,-1.1776,-1.0921,-1.0429,-1.024,-0.939,-0.841,-0.7373,-0.6464,-0.5667,-0.4988,-0.4312,-0.3699,-0.3083,-0.2407,-0.21,-0.1977,-0.1977,-0.1977,-0.1977,-3.7695,-3.7656,-3.7519,-3.709,-3.5708,-3.4053,-3.2152,-3.0457,-2.8894,-2.7231,-2.6983,-2.6983,-2.6983,-2.6983,-2.6983,-2.6983,-2.6983,-2.6983,-2.6983,-2.6983,-2.6983,-2.6983,-2.6983,-2.6983,-2.6983,-2.6983,-2.6925,-2.6778,-2.6588,-2.6354,-2.6061,-2.5696,-2.5461,-2.5315,-2.5207,-2.5119,-2.5119,-2.5119,-2.5119,-2.5119,-2.5119,-2.5119,-2.5105,-2.4973,-2.4914,-2.4803,-2.4003,-2.3247,-2.2488,-2.1851,-2.137,-2.1109,-2.1109,-2.1109,-2.1109,-2.1109,-2.1109,-2.1109,-2.1109,-2.1109,-2.0919,-2.0132,-1.8908,-1.7496,-1.6138,-1.5096,-1.4226,-1.3602,-1.3317,-1.2981,-1.2261,-1.2036,-1.1914,-1.1914,-1.1841,-1.1776,-1.1776,-1.1776,-1.1776,-1.1776,-1.1776,-1.1776,-1.1776,-1.1776,-1.1776,-1.1776,-1.1776,-1.1776,-1.1776,-1.1776,-1.1776,-1.1776,-1.1776,-1.1776,-1.1776,-1.1776,-1.1776,-1.1776,-1.0793,-0.9997,-0.9451,-0.8471,-0.75,-0.6526,-0.6101,-0.5544,-0.4865,-0.4189,-0.3515,-0.2962,-0.2284,-0.1977,-0.1977,-0.1977,-0.1977,-0.1977]},{"header":{"parameterUnit":"m.s-1","parameterCategory":1,"la1":30.6,"la2":28.766,"lo1":-90.7593,"lo2":-88.6598,"dy":0.0162,"dx":0.0183,"nx":116,"ny":114,"refTime":"2024-04-01T18:00:00:Z","depth":0,"parameterNumber":3,"parameterNumberName":"V-component_of_WINDS"},"data":[0.0,0.0,0.0,0.0,0.0,0.0,0.0,0.0,0.0,0.0,0.0,0.0,0.0,0.0,0.0,0.0,0.0,0.0,0.0,0.0,0.0,0.0,0.0,0.0,0.0,0.0,0.0,0.0,0.0,0.0,0.0,0.0,0.0,0.0,0.0,0.0,0.0,0.0,0.0,0.0,0.0,0.0,0.0,0.0,0.0,0.0,0.0,0.0,0.0,0.0,0.0,0.0,0.0,0.0,0.0,0.0,0.0,0.0,0.0,0.0,0.0,0.0,0.0,0.0,0.0,0.0,0.0,0.0,0.0,0.0,0.0,0.0,0.0,0.0,0.0,0.0,0.0,0.0,0.0,0.0,0.0,0.0,0.0,0.0,0.0,0.0,0.0,0.0,0.0,0.0,0.0,0.0,0.0,0.0,0.0,0.0,0.0,0.0,0.0,0.0,0.0,0.0,0.0,0.0,0.0,0.0,0.0,0.0,0.0,0.0,0.0,0.0,0.0,0.0,0.0,0.0,0.0,0.0,0.0,0.0,0.0,0.0,0.0,0.0,0.0,0.0,0.0,0.0,0.0,0.0,0.0,0.0,0.0,0.0,0.0,0.0,0.0,0.0,0.0,0.0,0.0,0.0,0.0,0.0,0.0,0.0,0.0,0.0,0.0,0.0,0.0,0.0,0.0,0.0,0.0,0.0,0.0,0.0,0.0,0.0,0.0,0.0,0.0,0.0,0.0,0.0,0.0,0.0,0.0,0.0,0.0,0.0,0.0,0.0,0.0,0.0,0.0,0.0,0.0,0.0,0.0,0.0,0.0,0.0,0.0,0.0,0.0,0.0,0.0,0.0,0.0,0.0,0.0,0.0,0.0,0.0,0.0,0.0,0.0,0.0,0.0,0.0,0.0,0.0,0.0,0.0,0.0,0.0,0.0,0.0,0.0,0.0,0.0,0.0,0.0,0.0,0.0,0.0,0.0,0.0,0.0,0.0,0.0,0.0,0.0,0.0,0.0,0.0,0.0,0.0,0.0,0.0,0.0,0.0,0.0,0.0,0.0,0.0,0.0,0.0,0.0,0.0,0.0,0.0,0.0,0.0,0.0,0.0,0.0,0.0,0.0,0.0,0.0,0.0,0.0,0.0,0.0,0.0,0.0,0.0,0.0,0.0,0.0,0.0,0.0,0.0,0.0,0.0,0.0,0.0,0.0,0.0,0.0,0.0,0.0,0.0,0.0,0.0,0.0,0.0,0.0,0.0,0.0,0.0,0.0,0.0,0.0,0.0,0.0,0.0,0.0,0.0,0.0,0.0,0.0,0.0,0.0,0.0,0.0,0.0,0.0,0.0,0.0,0.0,0.0,0.0,0.0,0.0,0.0,0.0,0.0,0.0,0.0,0.0,0.0,0.0,0.0,0.0,0.0,0.0,0.0,0.0,0.0,0.0,0.0,0.0,0.0,0.0,0.0,0.0,0.0,0.0,0.0,0.0,0.0,0.0,0.0,0.0,0.0,0.0,0.0,0.0,0.0,0.0,0.0,0.0,0.0,0.0,0.0,0.0,0.0,0.0,0.0,0.0,0.0,0.0,0.0,0.0,0.0,0.0,0.0,0.0,0.0,0.0,0.0,0.0,0.0,0.0,0.0,0.0,0.0,0.0,0.0,0.0,0.0,0.0,0.0,0.0,0.0,0.0,0.0,0.0,0.0,0.0,0.0,0.0,0.0,0.0,0.0,0.0,0.0,0.0,0.0,0.0,0.0,0.0,0.0,0.0,0.0,0.0,0.0,0.0,0.0,0.0,0.0,0.0,0.0,0.0,0.0,0.0,0.0,0.0,0.0,0.0,0.0,0.0,0.0,0.0,0.0,0.0,0.0,0.0,0.0,0.0,0.0,0.0,0.0,0.0,0.0,0.0,0.0,0.0,0.0,0.0,0.0,0.0,0.0,0.0,0.0,0.0,0.0,0.0,0.0,0.0,0.0,0.0,0.0,0.0,0.0,0.0,0.0,0.0,0.0,0.0,0.0,0.0,0.0,0.0,0.0,0.0,0.0,0.0,0.0,0.0,0.0,0.0,0.0,0.0,0.0,0.0,0.0,0.0,0.0,0.0,0.0,0.0,0.0,0.0,0.0,0.0,0.0,0.0,0.0,0.0,0.0,0.0,0.0,0.0,0.0,0.0,0.0,0.0,0.0,0.0,0.0,0.0,0.0,0.0,0.0,0.0,0.0,0.0,0.0,0.0,0.0,0.0,0.0,0.0,0.0,0.0,0.0,0.0,0.0,0.0,0.0,0.0,0.0,0.0,0.0,0.0,0.0,0.0,0.0,0.0,0.0,0.0,0.0,0.0,0.0,0.0,0.0,0.0,0.0,0.0,0.0,0.0,0.0,0.0,0.0,0.0,0.0,0.0,0.0,0.0,0.0,0.0,0.0,0.0,0.0,0.0,0.0,0.0,0.0,0.0,0.0,0.0,0.0,0.0,0.0,0.0,0.0,0.0,0.0,0.0,0.0,0.0,0.0,0.0,0.0,0.0,0.0,0.0,0.0,0.0,0.0,0.0,0.0,0.0,0.0,0.0,0.0,0.0,0.0,0.0,0.0,0.0,0.0,0.0,0.0,0.0,0.0,0.0,0.0,0.0,0.0,0.0,0.0,0.0,0.0,0.0,0.0,0.0,0.0,0.0,0.0,0.0,0.0,0.0,0.0,0.0,0.0,0.0,0.0,0.0,0.0,0.0,0.0,0.0,0.0,0.0,0.0,0.0,0.0,0.0,0.0,0.0,0.0,0.0,0.0,0.0,0.0,0.0,0.0,0.0,0.0,0.0,0.0,0.0,0.0,0.0,0.0,0.0,0.0,0.0,0.0,0.0,0.0,0.0,0.0,0.0,0.0,0.0,0.0,0.0,0.0,0.0,0.0,0.0,0.0,0.0,0.0,0.0,0.0,0.0,0.0,0.0,0.0,0.0,0.0,0.0,0.0,0.0,0.0,0.0,0.0,0.0,0.0,0.0,0.0,0.0,0.0,0.0,0.0,0.0,0.0,0.0,0.0,0.0,0.0,0.0,0.0,0.0,0.0,0.0,0.0,0.0,0.0,0.0,0.0,0.0,0.0,0.0,0.0,0.0,0.0,0.0,0.0,0.0,0.0,0.0,0.0,0.0,0.0,0.0,0.0,0.0,0.0,0.0,0.0,0.0,0.0,0.0,0.0,0.0,0.0,0.0,0.0,0.0,0.0,0.0,0.0,0.0,0.0,0.0,0.0,0.0,0.0,0.0,0.0,0.0,0.0,0.0,0.0,0.0,0.0,0.0,0.0,0.0,0.0,0.0,0.0,0.0,0.0,0.0,0.0,0.0,0.0,0.0,0.0,0.0,0.0,0.0,0.0,0.0,0.0,0.0,0.0,0.0,0.0,0.0,0.0,0.0,0.0,0.0,0.0,0.0,0.0,0.0,0.0,0.0,0.0,0.0,0.0,0.0,0.0,0.0,0.0,0.0,0.0,0.0,0.0,0.0,0.0,0.0,0.0,0.0,0.0,0.0,0.0,0.0,0.0,0.0,0.0,0.0,0.0,0.0,0.0,0.0,0.0,0.0,0.0,0.0,0.0,0.0,0.0,0.0,0.0,0.0,0.0,0.0,0.0,0.0,0.0,0.0,0.0,0.0,0.0,0.0,0.0,0.0,0.0,0.0,0.0,0.0,0.0,0.0,0.0,0.0,0.0,0.0,0.0,0.0,0.0,0.0,0.0,0.0,0.0,0.0,0.0,0.0,0.0,0.0,0.0,0.0,0.0,0.0,0.0,0.0,0.0,0.0,0.0,0.0,0.0,0.0,0.0,0.0,0.0,0.0,0.0,0.0,0.0,0.0,0.0,0.0,0.0,0.0,0.0,0.0,0.0,0.0,0.0,0.0,0.0,0.0,0.0,0.0,0.0,0.0,0.0,0.0,0.0,0.0,0.0,0.0,0.0,0.0,0.0,0.0,0.0,0.0,0.0,0.0,0.0,0.0,0.0,0.0,0.0,0.0,0.0,0.0,0.0,0.0,0.0,0.0,0.0,0.0,0.0,0.0,0.0,0.0,0.0,0.0,0.0,0.0,0.0,0.0,0.0,0.0,0.0,0.0,0.0,0.0,0.0,0.0,0.0,0.0,0.0,0.0,0.0,0.0,0.0,0.0,0.0,0.0,0.0,0.0,0.0,0.0,0.0,0.0,0.0,0.0,0.0,0.0,0.0,0.0,0.0,0.0,0.0,0.0,0.0,0.0,0.0,0.0,0.0,0.0,0.0,0.0,0.0,0.0,0.0,0.0,0.0,0.0,0.0,0.0,0.0,0.0,0.0,0.0,0.0,0.0,0.0,0.0,0.0,0.0,0.0,0.0,0.0,0.0,0.0,0.0,0.0,0.0,0.0,0.0,0.0,0.0,0.0,0.0,0.0,0.0,0.0,0.0,0.0,0.0,0.0,0.0,0.0,0.0,0.0,0.0,0.0,0.0,0.0,0.0,0.0,0.0,0.0,0.0,0.0,0.0,0.0,0.0,0.0,0.0,0.0,0.0,0.0,0.0,0.0,0.0,0.0,0.0,0.0,0.0,0.0,0.0,0.0,0.0,0.0,0.0,0.0,0.0,0.0,0.0,0.0,0.0,0.0,0.0,0.0,0.0,0.0,0.0,0.0,0.0,0.0,0.0,0.0,0.0,0.0,0.0,0.0,0.0,0.0,0.0,0.0,0.0,0.0,0.0,0.0,0.0,0.0,0.0,0.0,0.0,0.0,0.0,0.0,0.0,0.0,0.0,0.0,0.0,0.0,0.0,0.0,0.0,0.0,0.0,0.0,0.0,0.0,0.0,0.0,0.0,0.0,0.0,0.0,0.0,0.0,0.0,0.0,0.0,0.0,0.0,0.0,0.0,0.0,0.0,0.0,0.0,0.0,0.0,0.0,0.0,0.0,0.0,0.0,0.0,0.0,0.0,0.0,0.0,0.0,0.0,0.0,0.0,0.0,0.0,0.0,0.0,0.0,0.0,0.0,0.0,0.0,0.0,0.0,0.0,0.0,0.0,0.0,0.0,0.0,0.0,0.0,0.0,0.0,0.0,0.0,0.0,0.0,0.0,0.0,0.0,0.0,0.0,0.0,0.0,0.0,0.0,0.0,0.0,0.0,0.0,0.0,0.0,0.0,0.0,0.0,0.0,0.0,0.0,0.0,0.0,0.0,0.0,0.0,0.0,0.0,0.0,0.0,0.0,0.0,0.0,0.0,0.0,0.0,0.0,0.0,0.0,0.0,0.0,0.0,0.0,0.0,0.0,0.0,0.0,0.0,0.0,0.0,0.0,0.0,0.0,0.0,0.0,0.0,0.0,0.0,0.0,0.0,0.0,0.0,0.0,0.0,0.0,0.0,0.0,0.0,0.0,0.0,0.0,0.0,0.0,0.0,0.0,0.0,0.0,0.0,0.0,0.0,0.0,0.0,0.0,0.0,0.0,0.0,0.0,0.0,0.0,0.0,0.0,0.0,0.0,0.0,0.0,0.0,0.0,0.0,0.0,0.0,0.0,0.0,0.0,0.0,0.0,0.0,0.0,0.0,0.0,0.0,0.0,0.0,0.0,0.0,0.0,0.0,0.0,0.0,0.0,0.0,0.0,0.0,0.0,0.0,0.0,0.0,0.0,0.0,0.0,0.0,0.0,0.0,0.0,0.0,0.0,0.0,0.0,0.0,0.0,0.0,0.0,0.0,0.0,0.0,0.0,0.0,0.0,0.0,0.0,0.0,0.0,0.0,0.0,0.0,0.0,0.0,0.0,0.0,0.0,0.0,0.0,0.0,0.0,0.0,0.0,0.0,0.0,0.0,0.0,0.0,0.0,0.0,0.0,0.0,0.0,0.0,0.0,0.0,0.0,0.0,0.0,0.0,0.0,0.0,0.0,0.0,0.0,0.0,0.0,0.0,0.0,0.0,0.0,0.0,0.0,0.0,0.0,0.0,0.0,0.0,0.0,0.0,0.0,0.0,0.0,0.0,0.0,0.0,0.0,0.0,0.0,0.0,0.0,0.0,0.0,0.0,0.0,0.0,0.0,0.0,0.0,0.0,0.0,0.0,0.0,0.0,0.0,2.1596,2.1536,0.0,0.0,0.0,0.0,0.0,0.0,0.0,0.0,0.0,0.0,0.0,0.0,0.0,0.0,0.0,0.0,0.0,0.0,0.0,0.0,0.0,0.0,0.0,2.7765,2.7815,2.7815,2.7865,2.8066,2.847,2.8625,0.0,0.0,0.0,0.0,2.9787,3.0046,3.023,3.0308,3.0308,3.0334,3.0386,2.9679,2.9341,2.9366,0.0,0.0,0.0,0.0,0.0,0.0,0.0,0.0,0.0,0.0,0.0,0.0,0.0,0.0,0.0,0.0,0.0,0.0,0.0,0.0,0.0,0.0,0.0,0.0,0.0,0.0,0.0,0.0,0.0,0.0,0.0,0.0,0.0,0.0,0.0,0.0,0.0,0.0,0.0,0.0,0.0,0.0,0.0,0.0,0.0,0.0,0.0,0.0,0.0,0.0,0.0,0.0,0.0,0.0,0.0,0.0,0.0,0.0,0.0,0.0,0.0,0.0,0.0,0.0,0.0,0.0,0.0,0.0,0.0,0.0,2.2226,2.1994,0.0,0.0,0.0,0.0,0.0,0.0,0.0,0.0,0.0,0.0,0.0,0.0,0.0,0.0,0.0,0.0,0.0,0.0,0.0,0.0,0.0,2.7585,2.7585,2.7705,2.7764,2.7764,2.7986,2.8338,2.8936,2.9199,2.9571,3.0147,3.0269,3.033,3.033,3.035,3.0411,3.0513,3.0513,3.0566,3.0676,3.0676,3.0703,0.0,0.0,0.0,0.0,0.0,0.0,0.0,0.0,0.0,0.0,0.0,0.0,0.0,0.0,0.0,0.0,0.0,0.0,0.0,0.0,0.0,0.0,0.0,0.0,0.0,0.0,0.0,0.0,0.0,0.0,0.0,0.0,0.0,0.0,0.0,0.0,0.0,0.0,0.0,0.0,0.0,0.0,0.0,0.0,0.0,0.0,0.0,0.0,0.0,0.0,0.0,0.0,0.0,0.0,0.0,0.0,0.0,0.0,0.0,0.0,0.0,0.0,0.0,0.0,0.0,2.3246,2.3246,2.3246,2.3238,2.329,2.3245,2.2937,2.2609,2.2267,2.2456,0.0,0.0,0.0,0.0,0.0,0.0,0.0,0.0,0.0,0.0,0.0,0.0,0.0,0.0,0.0,0.0,0.0,0.0,0.0,2.7585,2.7585,2.8098,2.8457,2.8457,2.9022,2.9435,2.9633,2.9716,2.9826,3.0019,3.0566,3.0901,3.0901,3.145,3.1751,3.1751,3.1751,3.1779,3.1779,3.1779,3.1863,3.1913,3.0764,0.0,0.0,0.0,0.0,0.0,0.0,0.0,0.0,0.0,0.0,0.0,0.0,0.0,0.0,0.0,0.0,0.0,0.0,0.0,0.0,0.0,0.0,0.0,0.0,0.0,0.0,0.0,0.0,0.0,0.0,0.0,0.0,0.0,0.0,0.0,0.0,0.0,0.0,0.0,0.0,0.0,0.0,0.0,2.0756,2.1513,0.0,0.0,0.0,0.0,0.0,0.0,0.0,0.0,0.0,0.0,0.0,0.0,0.0,2.2926,2.2817,2.2926,2.2955,2.2955,2.2955,2.2955,2.2955,2.3068,2.3142,2.3135,2.3193,0.0,2.2411,2.2004,0.0,0.0,0.0,0.0,0.0,0.0,0.0,0.0,0.0,0.0,0.0,0.0,0.0,0.0,0.0,0.0,0.0,0.0,0.0,0.0,0.0,2.8757,2.9146,2.9146,2.9442,2.9771,3.0186,3.0325,3.0561,3.0978,3.1308,3.146,3.146,3.1618,3.1769,3.1883,3.1968,3.1996,3.1996,3.1996,3.2081,3.216,3.1583,3.1175,3.0936,3.054,0.0,0.0,0.0,0.0,0.0,0.0,0.0,0.0,0.0,0.0,0.0,0.0,0.0,0.0,0.0,0.0,0.0,0.0,0.0,0.0,0.0,0.0,0.0,0.0,0.0,0.0,0.0,0.0,0.0,0.0,0.0,0.0,0.0,0.0,0.0,0.0,0.0,0.0,0.0,2.1585,2.1558,2.2089,2.2141,2.2345,0.0,0.0,0.0,0.0,0.0,0.0,0.0,0.0,0.0,2.2888,2.2888,2.2888,2.2888,2.2888,2.2888,2.2888,2.2888,2.2888,2.2888,2.2955,2.2978,2.2978,2.3135,2.312,2.2956,2.2765,2.2688,2.2739,0.0,0.0,0.0,0.0,2.2772,2.2712,0.0,0.0,0.0,0.0,0.0,0.0,0.0,0.0,0.0,0.0,0.0,0.0,2.8764,2.9391,2.9806,2.9834,2.9983,3.0283,3.0731,3.0733,3.0944,3.1452,3.1482,3.1365,3.1219,3.1219,3.1424,3.1742,3.2007,3.2125,3.2125,3.2307,3.2391,3.241,3.2296,3.2013,3.1613,3.1098,3.0791,0.0,0.0,0.0,0.0,0.0,0.0,0.0,0.0,0.0,0.0,0.0,0.0,0.0,0.0,0.0,0.0,0.0,0.0,0.0,0.0,0.0,0.0,0.0,0.0,0.0,0.0,0.0,0.0,0.0,0.0,0.0,0.0,0.0,0.0,0.0,0.0,0.0,0.0,2.2738,2.258,2.2843,2.2866,2.2937,0.0,0.0,0.0,0.0,0.0,0.0,2.3288,2.3357,2.3403,2.338,2.3403,2.3403,2.338,2.3403,2.3403,2.338,2.338,2.338,2.338,2.3403,2.3403,2.338,2.3495,2.361,2.3694,2.357,2.3509,2.3553,2.3588,2.361,2.361,2.361,2.361,2.352,0.0,0.0,0.0,0.0,0.0,0.0,0.0,0.0,0.0,0.0,0.0,2.8575,2.9201,2.9882,3.0324,3.0434,3.1032,3.1421,3.1451,3.0837,3.051,3.0539,3.0569,3.0269,2.9628,3.0238,3.0866,3.1511,3.2168,3.2467,3.2467,3.3126,3.3246,3.2967,3.2938,3.2715,3.2351,3.2182,3.1842,3.1362,0.0,0.0,0.0,0.0,0.0,0.0,0.0,0.0,0.0,0.0,0.0,0.0,0.0,0.0,0.0,0.0,0.0,0.0,0.0,0.0,0.0,0.0,0.0,0.0,0.0,0.0,0.0,0.0,0.0,0.0,0.0,0.0,0.0,0.0,0.0,0.0,0.0,0.0,0.0,2.351,2.3561,0.0,0.0,0.0,0.0,2.3943,2.4191,2.4312,2.4312,2.4615,2.4762,2.4708,2.4762,2.4762,2.4708,2.4762,2.4762,2.4708,2.4708,2.4708,2.4708,2.4762,2.4762,2.4708,2.4708,2.4762,2.4752,2.3836,2.3523,2.361,2.361,2.361,2.361,2.361,2.361,2.361,0.0,0.0,0.0,0.0,0.0,2.6948,2.7055,2.743,2.7806,2.8069,2.8889,2.9425,2.9289,3.0306,3.066,2.9923,3.0483,3.0688,3.0238,2.9995,2.9844,2.9844,2.9844,2.9919,3.0091,3.0676,3.1158,3.1381,3.161,3.198,3.2449,3.2683,3.3028,3.3456,3.3487,3.3514,3.35,3.2698,3.2204,3.2044,3.2044,3.189,0.0,0.0,0.0,0.0,0.0,0.0,0.0,0.0,0.0,0.0,0.0,0.0,0.0,0.0,0.0,0.0,0.0,0.0,0.0,0.0,0.0,0.0,0.0,0.0,0.0,0.0,0.0,0.0,0.0,0.0,0.0,0.0,0.0,0.0,0.0,0.0,0.0,2.3566,2.3592,0.0,2.3951,2.4002,2.4002,2.4002,2.4078,2.4154,2.4154,2.4255,2.4305,2.428,2.4479,2.4579,2.4525,2.4751,2.4824,2.4878,2.4878,2.4878,2.4878,2.4824,2.4824,2.4824,2.4824,2.4873,2.4941,2.4593,2.4246,2.3902,2.3636,2.3553,2.3553,2.3553,2.3566,2.361,0.0,0.0,0.0,0.0,2.65,2.6504,2.657,2.6969,2.7424,2.7854,2.8742,2.9286,2.9157,2.9949,3.0208,2.9411,2.9844,2.9936,2.947,2.9449,2.9493,2.9493,2.943,2.9831,3.0671,3.086,3.1054,3.1287,3.1483,3.1995,3.2742,3.2974,3.3395,3.4029,3.409,3.4091,3.4028,3.3317,3.288,3.2721,3.2475,3.2382,3.2351,0.0,0.0,0.0,0.0,0.0,0.0,0.0,0.0,0.0,0.0,0.0,0.0,0.0,0.0,0.0,0.0,0.0,0.0,0.0,0.0,0.0,0.0,0.0,0.0,0.0,0.0,0.0,0.0,0.0,0.0,0.0,0.0,0.0,0.0,2.4069,2.3851,2.4039,2.4066,2.4145,2.4304,2.4331,2.4331,2.4331,2.4604,2.4769,2.4769,2.5098,2.5264,2.5264,2.5528,2.5657,2.5657,2.5972,2.6155,2.6155,2.6155,2.6155,2.6155,2.6155,2.61,2.61,2.5897,2.5832,2.5879,2.5442,2.5029,2.4639,2.4227,2.4074,2.4074,2.4119,2.4037,2.3843,0.0,0.0,0.0,2.6043,2.5907,2.5855,2.5838,2.5947,2.6383,2.7484,2.7744,2.8056,2.8689,2.8903,2.8971,2.8939,2.9254,2.9407,2.9275,2.9345,2.9375,2.9402,2.9345,2.9942,3.1216,3.0631,3.0631,3.1277,3.1864,3.258,3.3376,3.3955,3.4391,3.4689,3.4689,3.4422,3.397,3.415,3.393,3.337,3.2721,3.2413,3.2413,0.0,0.0,0.0,0.0,0.0,0.0,0.0,0.0,0.0,0.0,0.0,0.0,0.0,0.0,0.0,0.0,0.0,0.0,0.0,0.0,0.0,0.0,0.0,0.0,0.0,0.0,0.0,0.0,0.0,0.0,0.0,0.0,0.0,2.5018,2.5018,2.5018,2.5018,2.5018,2.5018,2.5046,2.5046,2.5046,2.5073,2.5847,2.6321,2.6321,2.7163,2.7645,2.7645,2.8024,2.8168,2.8168,2.8511,2.8681,2.8681,2.8681,2.8681,2.8681,2.8681,2.8681,2.868,2.7985,2.7724,2.7637,2.6387,2.589,2.5803,2.5355,2.5188,2.5212,2.5355,2.4987,2.4334,0.0,0.0,2.6233,2.65,2.5825,2.552,2.6326,2.6478,2.6755,2.7507,2.8003,2.8265,2.8065,2.8546,2.8487,2.7656,2.8065,2.8448,2.8437,2.8452,2.8707,2.9328,2.9695,0.0,3.0414,3.0695,3.0907,3.1063,3.1259,3.1712,3.247,3.2636,3.3309,3.4413,3.4578,3.4847,3.5209,3.488,3.4668,3.4455,3.3527,3.3121,3.3059,0.0,0.0,0.0,0.0,0.0,0.0,0.0,0.0,0.0,0.0,0.0,0.0,0.0,0.0,0.0,0.0,0.0,0.0,0.0,0.0,0.0,0.0,0.0,0.0,0.0,0.0,0.0,0.0,0.0,0.0,0.0,2.64,2.5993,2.5127,2.5018,2.5018,2.5018,2.5018,2.5181,2.5615,2.5643,2.5833,2.6264,2.6544,2.6655,2.6655,2.6909,2.7051,2.7051,2.7322,2.747,2.747,2.782,2.7966,2.7966,2.7966,2.8111,2.834,2.834,2.8483,2.8709,2.8534,2.8419,2.839,2.807,2.7607,2.7055,2.5608,2.5043,2.5067,2.5116,2.5041,2.4982,0.0,2.6447,2.6069,2.6042,2.5492,2.5244,2.5831,2.6087,2.6448,2.7052,2.7427,2.7564,2.7289,2.7663,2.763,2.6875,2.7496,2.7892,2.7901,2.847,2.9165,0.0,0.0,3.0503,3.0503,3.0817,3.0973,3.0973,3.0973,3.1357,3.211,3.211,3.272,3.3871,3.4279,3.4714,3.5109,3.4914,3.502,3.5181,3.4031,3.3634,3.3681,3.3005,3.2757,3.2782,3.245,3.2327,3.2382,3.2382,0.0,0.0,0.0,0.0,0.0,0.0,0.0,0.0,0.0,0.0,0.0,0.0,0.0,0.0,0.0,0.0,0.0,0.0,0.0,0.0,0.0,0.0,0.0,0.0,2.6942,2.6535,2.583,2.5749,2.5749,2.5749,2.5749,2.5887,2.624,2.6294,2.643,2.6752,2.7023,2.7159,2.7159,2.7434,2.7569,2.7569,2.7852,2.8005,2.8005,2.8309,2.8579,2.8699,2.8699,2.8818,2.8997,2.9144,2.9232,2.929,2.9146,2.9087,2.9058,2.8825,2.8448,2.7984,0.0,0.0,0.0,0.0,2.5497,2.5614,2.7081,2.6578,2.5987,2.5273,2.5047,2.4966,2.4931,2.5325,2.5812,2.6424,2.6499,2.6499,2.6499,2.6611,2.6611,2.6499,2.7256,2.7742,2.7789,2.9057,0.0,3.091,3.0999,3.0999,3.0973,3.0973,3.0973,3.0973,3.1052,3.1426,3.2073,3.2154,3.2526,3.322,3.3854,3.4167,3.4211,3.4447,3.4942,3.5467,3.4421,3.4113,3.4209,3.3537,3.3349,3.3343,3.2647,3.2428,3.2478,3.2478,0.0,0.0,0.0,0.0,0.0,0.0,0.0,0.0,0.0,0.0,0.0,0.0,0.0,0.0,0.0,0.0,0.0,0.0,0.0,0.0,0.0,0.0,0.0,0.0,2.7352,2.6996,2.6996,2.6996,2.6942,2.6806,2.6806,2.6833,2.6888,2.6942,2.7023,2.7077,2.7678,2.8003,2.8003,2.8519,0.0,0.0,0.0,2.9242,2.9242,2.9529,2.9845,3.0125,3.0125,3.0128,3.0164,3.0441,3.0443,3.0144,2.9839,2.9697,2.9668,2.9116,2.8883,2.8739,2.8071,2.749,2.6936,2.64,2.6264,2.6301,2.7207,2.6283,2.5687,2.5987,2.5105,2.4684,2.5537,2.5626,2.5812,2.6424,2.6499,2.6499,2.6499,2.6533,2.6533,2.6499,2.7072,2.7824,2.8845,2.9321,2.9928,3.071,3.0773,3.0849,3.0973,3.0973,3.0973,3.0973,3.1444,3.1717,3.1871,3.2356,3.2726,3.3055,3.3202,3.3298,3.3457,3.4109,3.4447,3.4614,3.5121,3.5116,3.4759,3.403,3.3786,3.3786,3.3635,3.3328,3.3073,3.3073,3.276,3.2382,3.2382,0.0,0.0,0.0,0.0,0.0,0.0,0.0,0.0,0.0,0.0,0.0,0.0,0.0,0.0,0.0,0.0,0.0,0.0,0.0,0.0,2.841,2.8329,2.8248,2.8248,2.8248,2.7895,2.6915,2.6806,2.6969,2.7488,2.7976,2.8438,2.8926,2.955,2.9876,2.9876,2.9984,3.0066,3.0066,3.0133,3.0167,3.0167,3.0235,3.0302,3.037,3.037,0.0,3.0411,3.0506,3.0506,3.0507,3.0451,3.0423,3.0423,3.0278,2.99,2.9349,2.8739,2.8447,2.8273,2.7634,2.7453,2.7469,2.7023,2.6229,2.5577,2.5439,2.5048,2.4955,2.5527,2.5848,2.6172,2.6552,2.6533,2.6499,2.6499,2.6499,2.6499,2.6499,2.7002,2.7853,2.9149,2.93,2.9741,3.0672,3.0698,3.0811,3.0973,3.0973,3.0973,3.0973,3.151,3.1797,3.1823,3.2437,3.262,3.2421,3.2836,3.2891,3.2684,3.3045,3.363,3.4312,3.4413,3.4765,3.5175,3.4545,3.4364,3.4364,3.397,3.3697,3.3572,3.3572,3.3446,3.3223,3.2916,3.2849,3.2906,0.0,0.0,0.0,0.0,0.0,0.0,0.0,0.0,0.0,0.0,0.0,0.0,0.0,0.0,2.9066,2.9282,0.0,2.8379,2.8568,2.86,2.86,2.86,2.8845,2.8709,2.7813,2.7976,2.8275,2.8573,2.9143,2.9631,2.993,3.0228,3.0418,3.0418,3.0418,3.0418,3.0418,3.0418,3.0418,3.0418,3.0418,3.046,3.0665,3.0665,3.0669,3.0703,3.0895,3.0958,3.1025,3.1183,3.1168,3.1032,3.0743,3.0423,3.0074,2.9784,2.9261,2.868,2.8332,2.8242,2.8296,2.6657,2.6041,2.5467,2.487,2.5092,2.5377,2.548,2.6113,2.6602,2.6714,2.6602,2.6499,2.6533,2.6533,2.6524,2.665,2.6977,2.7727,0.0,2.9061,2.9502,3.0672,3.0622,3.0736,3.0973,3.0962,3.0962,3.0973,3.151,3.1797,3.1823,3.2437,3.2385,3.1836,3.2459,3.2448,3.1919,3.2037,3.2791,3.3808,3.3388,3.3934,3.5008,3.4575,3.459,3.4782,3.4239,3.3969,3.3849,3.4001,3.4001,3.3848,3.3448,3.3295,3.3324,3.3439,3.3128,0.0,0.0,0.0,0.0,0.0,0.0,0.0,0.0,0.0,3.03,2.9317,2.8876,2.8648,2.8449,2.8287,2.8254,2.8471,2.8617,2.8731,2.8731,2.9279,2.9469,2.9007,2.936,2.9692,2.9692,3.0228,3.0581,3.0581,3.069,3.0744,3.0744,3.0744,3.0744,3.0744,3.0744,3.0744,3.0744,3.0744,3.0883,3.1165,3.1165,3.1144,3.1074,3.1344,3.1455,3.141,3.1744,3.1814,3.164,3.1148,3.0917,3.0772,3.0772,3.0075,2.9058,2.8941,2.8855,2.8883,0.0,2.5439,2.5211,2.5585,2.5568,2.5665,2.6181,2.6501,2.6748,2.6943,2.6705,2.6568,2.6645,2.6568,2.67,2.7178,2.6826,0.0,2.9098,2.8584,2.8971,3.0608,3.0356,3.0432,3.0973,3.0811,3.0811,3.0973,3.151,3.1797,3.1823,3.2437,3.2385,3.1797,3.1874,3.1637,3.1161,3.1809,3.2182,3.2398,3.2967,3.3283,3.3457,3.3372,3.379,3.4464,3.5085,3.4604,3.3721,3.4384,3.3871,3.3056,3.3638,3.3396,3.2999,3.3638,0.0,3.3757,3.3879,3.3006,3.1656,3.0159,2.9992,2.9964,0.0,0.0,2.9125,2.938,2.8487,2.7894,2.861,2.8254,2.7921,2.8112,2.8705,2.9121,2.9121,2.9801,3.0283,3.0228,3.0256,3.031,3.031,3.0853,3.1205,3.1205,3.1694,3.2028,3.2028,3.2028,3.2028,3.2028,3.2028,3.2028,3.2028,3.2028,3.2028,3.2037,3.2037,3.1943,3.1702,3.1737,3.1638,3.141,3.1744,3.2073,3.2365,3.2338,3.1961,3.1409,3.1409,3.0974,3.0336,2.9726,2.9494,2.9407,0.0,2.6431,2.6064,2.629,2.5882,2.5728,2.6453,2.6753,2.6943,2.7146,2.6943,2.6773,2.6714,2.6602,2.6609,2.6905,2.6659,0.0,2.8458,2.8369,2.8969,3.0469,3.047,3.0622,3.0973,3.0924,3.0924,3.0973,3.151,3.1797,3.1823,3.2437,3.2385,3.1797,3.1797,3.1484,3.1011,3.132,3.17,3.211,3.2434,3.2826,3.3178,3.3178,3.3108,3.3115,3.3899,3.41,0.0,0.0,3.4188,3.3927,3.4266,3.4209,3.4147,3.4424,3.4243,0.0,3.3271,3.2987,3.2352,0.0,3.0372,3.0438,2.9234,2.9336,2.9638,2.941,2.8929,2.8576,2.8739,2.8492,2.8384,0.0,2.8832,2.9201,2.9651,3.0319,3.0794,3.0934,3.1232,3.1314,3.0961,3.145,3.1802,3.1802,3.2083,3.2218,3.2218,3.2218,3.2218,3.2218,3.2218,3.2218,3.2218,3.2218,3.2218,3.2218,3.2218,3.2155,3.2017,3.2017,3.2066,3.2173,3.262,3.2774,3.2741,3.2757,3.2528,3.2075,3.2075,3.17,3.1032,3.0422,3.019,3.0132,0.0,2.7026,2.6512,2.6679,2.6225,2.6083,2.6817,2.7022,2.7146,2.7348,2.7146,2.6909,2.6714,2.6671,2.6671,2.6679,2.6671,0.0,0.0,2.8388,2.9079,3.0355,3.052,3.0736,3.0924,3.0924,3.0962,3.0973,3.1392,3.1562,3.1562,3.2019,3.1993,3.1562,3.1562,3.1365,3.0973,3.0973,3.1283,3.1809,3.1809,3.2137,3.2577,3.2577,3.2362,3.2182,3.2932,3.3526,0.0,0.0,3.4109,3.4288,3.4507,3.4552,3.4584,3.4994,3.4601,3.3839,3.3013,0.0,0.0,3.0682,3.0507,3.0508,2.9522,2.9697,2.988,2.9416,2.931,2.9214,2.8899,2.8855,2.8889,2.8992,2.9194,2.9536,3.0172,3.0833,3.1317,3.1531,3.1911,3.2055,3.1585,3.1911,3.2218,3.2218,3.2218,3.2218,3.2218,3.2218,3.2218,3.2218,3.2218,3.2218,3.2218,3.2218,3.2218,3.2218,3.2218,3.2218,3.2218,3.2372,3.2561,3.2747,3.3243,3.3441,3.3312,3.3245,3.3083,3.2902,3.2966,3.2589,3.1946,3.1509,3.1038,3.0598,0.0,0.0,2.6007,2.6614,2.6693,2.6844,2.7385,2.7356,2.7348,2.749,2.7214,2.6909,2.6714,2.6875,2.6909,2.6714,2.6875,0.0,2.8626,2.8703,2.9189,3.0355,3.0406,3.0482,3.0698,3.0698,3.0811,3.0973,3.0999,3.0999,3.0999,3.1026,3.1026,3.0999,3.0999,3.0999,3.0973,3.0973,3.1011,3.1011,3.1011,3.1048,3.1048,3.1048,3.1505,3.2182,3.2932,0.0,0.0,0.0,3.3248,3.3353,3.4081,3.3842,0.0,3.5037,3.4942,3.4119,0.0,0.0,3.1099,3.0303,2.9729,2.9345,2.931,2.931,2.931,2.931,2.931,2.931,2.9284,2.9284,2.9284,2.9284,2.9898,3.0421,3.0663,3.1378,3.1936,3.2155,3.2191,3.2191,0.0,3.2191,3.2218,3.2218,3.2218,3.2218,3.2218,3.2218,3.2218,3.2218,3.2218,3.2218,3.2218,3.2218,3.2218,3.2218,3.2218,3.2218,3.2218,3.2854,3.2995,3.2739,3.3457,3.4007,3.4341,3.3934,3.3864,3.3965,3.4125,3.3773,3.3239,3.3209,3.2104,3.0598,0.0,0.0,0.0,0.0,0.0,2.7314,2.7464,2.7456,2.7456,2.749,2.7315,0.0,0.0,0.0,0.0,0.0,2.7045,2.7429,2.8446,2.8749,2.9299,3.0165,3.0558,3.071,3.0482,3.0748,3.0887,3.0811,3.0924,3.0973,3.0973,3.0973,3.0973,3.0973,3.0973,3.0973,3.0973,3.0973,3.0973,3.0973,3.0973,3.0973,3.0973,3.0973,3.1161,3.1394,0.0,0.0,0.0,0.0,3.247,3.2613,3.3353,0.0,0.0,3.3831,3.3768,3.3422,3.2684,0.0,3.1622,3.0871,3.0555,3.0424,3.0424,3.0424,3.0424,3.0424,3.0424,3.0294,2.9928,2.9849,2.9849,2.9849,3.0151,3.0633,3.1213,3.1646,3.1963,3.2182,3.2218,0.0,0.0,0.0,0.0,3.2218,3.2218,3.2218,3.2218,3.2218,3.2218,3.2218,3.2218,3.2218,3.2218,3.2632,3.2632,3.2218,3.2632,3.2854,3.2854,3.3101,3.3388,3.3768,3.4007,3.4075,3.407,3.4905,3.4919,3.442,3.4581,3.4584,3.4392,3.4019,3.3482,3.2736,0.0,0.0,0.0,0.0,0.0,0.0,0.0,0.0,0.0,0.0,0.0,0.0,0.0,0.0,0.0,0.0,0.0,2.7524,0.0,0.0,2.9367,2.9846,3.0606,3.0823,3.052,3.0823,3.0962,3.0811,3.0962,3.0973,3.0973,3.0973,3.0973,3.0973,3.0973,3.0973,3.0973,3.0973,3.0973,3.0973,3.0973,3.0973,3.0973,3.0973,3.0973,0.0,0.0,0.0,0.0,0.0,0.0,0.0,3.2648,3.3003,3.3178,3.3178,3.3003,3.2684,3.2218,3.1919,3.1589,3.1123,3.0973,3.0973,3.0973,3.0973,3.0973,3.0973,3.0973,3.0869,3.0503,3.0424,3.0424,3.0424,3.0535,3.0813,3.1431,3.1596,3.178,3.1963,3.2036,3.2109,0.0,0.0,0.0,3.2218,3.2218,3.2218,3.2218,3.2218,3.23,3.2525,3.2561,3.2668,3.2952,3.3381,3.3381,3.2952,3.3416,3.3596,3.3596,3.3871,3.4109,3.4312,3.4581,3.4547,3.4442,3.5267,3.5429,3.5106,3.5299,3.5446,3.5492,3.5149,3.4942,3.4661,0.0,0.0,0.0,0.0,0.0,0.0,0.0,0.0,0.0,0.0,0.0,0.0,0.0,0.0,0.0,0.0,0.0,0.0,0.0,0.0,0.0,2.9497,3.0462,3.0924,3.0698,3.0887,3.0973,3.0999,3.0973,3.0973,3.0973,3.0973,3.0973,3.0973,3.0973,3.0973,3.0973,3.0973,3.0973,3.0973,3.0973,3.0973,3.0973,3.0973,0.0,0.0,0.0,0.0,0.0,0.0,0.0,0.0,0.0,3.2506,3.3073,3.3073,3.2577,3.2037,3.2037,3.1542,3.0973,3.0973,3.0973,3.0973,3.0973,3.0973,3.0973,3.0973,3.0973,3.0973,0.0,0.0,3.0973,3.0973,3.1011,3.1086,3.1272,3.131,3.1384,0.0,0.0,0.0,0.0,0.0,0.0,3.2255,3.2255,3.2255,3.2255,3.2255,3.2561,3.3248,3.3213,3.3561,3.4279,3.4312,3.4312,3.4346,3.4346,3.4346,3.438,3.5077,3.5044,3.4447,3.5109,3.54,3.5367,3.5106,3.5397,3.6005,3.6133,3.6352,3.6507,3.6538,3.6472,3.6229,0.0,0.0,0.0,0.0,0.0,0.0,0.0,0.0,0.0,0.0,0.0,0.0,0.0,0.0,0.0,0.0,0.0,0.0,0.0,0.0,0.0,0.0,0.0,0.0,0.0,0.0,0.0,0.0,0.0,3.0973,3.0973,3.0973,3.0973,3.0973,3.0973,3.0973,3.0973,3.0973,3.0973,3.0973,0.0,3.0973,3.0973,0.0,0.0,0.0,0.0,0.0,0.0,0.0,0.0,0.0,0.0,3.1394,3.1542,3.1542,3.1431,3.1283,3.1283,3.1161,3.0973,3.0973,3.0973,3.0973,3.0973,3.0973,3.0973,3.0973,3.0973,3.0973,0.0,0.0,0.0,3.0973,3.1123,0.0,3.1272,3.1447,0.0,3.178,0.0,3.1963,3.2109,3.2632,0.0,0.0,3.296,3.296,3.296,3.296,3.3276,3.4007,3.3492,3.3561,3.4279,3.4312,3.4581,3.5139,3.5139,3.5139,3.5139,3.5335,3.5593,3.5911,3.5561,3.54,3.5432,3.5911,3.5943,3.5721,3.5943,3.6383,3.6847,3.66,3.6691,3.6987,0.0,0.0,0.0,0.0,0.0,0.0,0.0,0.0,0.0,0.0,0.0,0.0,0.0,0.0,0.0,0.0,0.0,0.0,0.0,0.0,0.0,0.0,0.0,0.0,0.0,0.0,0.0,0.0,0.0,0.0,0.0,3.0973,3.0973,3.0973,3.0973,3.0973,3.0973,0.0,0.0,0.0,0.0,0.0,0.0,0.0,0.0,0.0,0.0,0.0,0.0,0.0,0.0,3.0973,3.0973,3.0973,3.0973,3.0973,0.0,3.0973,3.0973,3.0973,3.0973,3.0973,3.0973,3.0973,3.0973,3.0973,3.0973,3.0973,3.0973,0.0,3.0973,3.0973,0.0,0.0,0.0,0.0,3.1161,3.1261,3.1522,0.0,3.2155,0.0,3.2846,3.3381,3.3699,0.0,3.3388,3.3353,3.3665,3.3388,3.3699,3.4747,3.438,3.4514,3.527,3.527,3.5464,3.5879,3.5879,3.5879,3.5879,3.5879,3.6132,3.6507,3.6038,3.5879,3.5911,3.632,3.632,3.6008,3.6163,3.6476,3.6847,3.6631,3.6846,3.7208,0.0,0.0,0.0,0.0,0.0,0.0,0.0,0.0,0.0,0.0,2.7623,0.0,0.0,0.0,0.0,0.0,0.0,0.0,0.0,0.0,0.0,0.0,0.0,0.0,0.0,0.0,0.0,0.0,0.0,0.0,0.0,0.0,0.0,0.0,0.0,0.0,0.0,0.0,0.0,0.0,0.0,0.0,0.0,0.0,0.0,0.0,0.0,0.0,0.0,0.0,3.0973,3.0973,3.0973,3.0973,3.0973,3.0973,3.0973,3.0973,3.0973,3.0973,3.0973,3.0973,3.0973,3.0973,3.0973,3.1086,3.1123,3.1011,0.0,3.1123,3.1011,3.0973,3.0973,3.0973,0.0,3.0973,3.0973,3.0973,3.1272,3.1955,3.2426,3.296,3.3659,3.4143,3.4447,3.4447,3.3871,3.3768,3.4413,3.3837,3.4075,3.5367,3.5497,3.5847,3.6476,3.6507,3.6507,3.6507,3.6507,3.6507,3.6507,3.6507,3.6507,3.6507,3.6507,3.6507,3.6507,3.6507,3.6507,3.6507,3.6507,3.6569,3.6693,3.6693,3.6876,3.7118,0.0,0.0,0.0,0.0,0.0,0.0,0.0,0.0,0.0,0.0,2.8189,2.749,0.0,0.0,0.0,0.0,0.0,0.0,0.0,0.0,0.0,0.0,0.0,0.0,0.0,0.0,0.0,0.0,0.0,0.0,0.0,0.0,0.0,0.0,0.0,0.0,0.0,0.0,0.0,0.0,0.0,0.0,0.0,0.0,0.0,0.0,0.0,0.0,0.0,0.0,3.0973,3.0973,3.0973,3.0973,3.0973,3.0973,3.0973,3.0973,3.0973,3.0973,3.0973,3.0973,3.0973,3.0973,3.0973,3.1468,0.0,0.0,3.1468,3.17,3.1123,3.0973,3.0973,3.0973,0.0,0.0,0.0,0.0,3.1187,0.0,0.0,3.2854,3.3248,3.4447,0.0,0.0,3.5106,3.5044,3.5204,3.5106,3.5139,3.54,3.5975,3.6352,3.6507,3.6507,3.6507,3.6507,3.6507,3.6507,3.6507,3.6507,3.6507,3.6507,3.6507,3.6507,3.6507,3.6507,3.6507,3.6507,3.6507,3.6507,3.6538,3.6662,3.6754,3.6846,0.0,0.0,0.0,0.0,0.0,0.0,0.0,3.0025,2.9875,2.9535,2.8939,2.839,2.8059,2.7723,2.749,0.0,0.0,0.0,0.0,0.0,0.0,0.0,0.0,0.0,0.0,0.0,0.0,0.0,0.0,0.0,0.0,0.0,0.0,0.0,0.0,0.0,0.0,0.0,0.0,0.0,0.0,0.0,0.0,0.0,0.0,0.0,0.0,0.0,0.0,0.0,3.0973,3.0973,3.0973,3.0973,3.0973,3.0973,3.0973,3.0973,3.0973,3.0973,3.0973,3.0973,3.0973,3.1086,3.1468,0.0,0.0,0.0,3.1846,3.1882,3.1123,3.0973,0.0,0.0,0.0,0.0,0.0,0.0,0.0,0.0,0.0,3.407,0.0,3.5432,3.5975,3.5975,3.5975,3.5975,3.5975,3.5975,3.5975,3.5975,3.632,3.6507,3.6507,3.6507,3.6507,3.6507,3.6507,3.6507,3.6507,3.6507,3.6507,3.6507,3.6507,3.6507,3.6507,3.6507,3.6507,3.6507,3.6507,3.6507,3.6538,3.6569,3.6631,3.6723,0.0,0.0,0.0,0.0,0.0,0.0,0.0,3.0777,3.0569,3.0056,2.9813,2.9504,2.8967,2.8352,2.7927,0.0,0.0,0.0,0.0,0.0,0.0,0.0,0.0,0.0,0.0,0.0,0.0,0.0,0.0,0.0,0.0,0.0,0.0,0.0,0.0,0.0,0.0,0.0,0.0,0.0,0.0,0.0,0.0,0.0,0.0,0.0,0.0,0.0,0.0,0.0,3.0973,3.0973,3.0973,3.0973,3.0973,3.0973,3.0973,3.0973,3.0973,3.0973,3.0973,3.0973,3.0973,3.1198,3.1955,3.2218,0.0,0.0,3.2218,3.2137,3.1357,0.0,3.131,0.0,3.1809,0.0,0.0,0.0,0.0,0.0,0.0,0.0,3.5752,3.6195,0.0,3.6507,3.663,3.663,3.6507,3.663,3.663,3.6507,3.663,3.663,3.6507,3.6507,3.6507,3.6507,3.6507,3.6507,3.6507,3.6507,3.6507,3.6507,3.6507,3.6507,3.6507,3.6507,3.6507,3.6507,3.6507,3.6507,3.6507,3.6507,3.6569,3.6662,0.0,0.0,0.0,0.0,0.0,0.0,0.0,3.1655,3.1655,3.1597,3.0896,3.0389,3.0329,2.9721,2.9317,0.0,0.0,0.0,0.0,0.0,0.0,0.0,0.0,0.0,0.0,0.0,0.0,0.0,0.0,0.0,0.0,0.0,0.0,0.0,0.0,0.0,0.0,0.0,0.0,0.0,0.0,0.0,0.0,0.0,0.0,0.0,0.0,0.0,0.0,0.0,0.0,3.0973,3.0973,3.0973,3.0973,3.0973,0.0,0.0,3.0973,3.0973,3.0973,3.0973,3.0973,3.1198,3.1955,0.0,0.0,3.2218,3.2613,3.2861,3.211,3.2001,3.2218,0.0,0.0,3.2326,0.0,0.0,0.0,0.0,0.0,0.0,3.5234,3.5847,3.632,3.6476,3.7061,3.7123,3.6538,3.7061,3.7123,3.6507,3.7092,3.7123,3.6507,3.6507,3.6507,3.6507,3.6507,3.6507,3.6507,3.6507,3.6507,3.6507,3.6507,3.6507,3.6507,3.6507,3.6507,3.6507,3.6507,3.6507,3.6507,3.6507,3.6538,3.6569,0.0,0.0,0.0,0.0,0.0,0.0,3.1912,3.1912,3.1912,3.1912,3.1625,3.1423,3.1423,3.1073,3.051,2.9566,0.0,0.0,0.0,0.0,0.0,0.0,0.0,0.0,0.0,0.0,0.0,3.2318,0.0,0.0,0.0,0.0,0.0,0.0,0.0,0.0,0.0,0.0,0.0,0.0,0.0,0.0,0.0,0.0,0.0,0.0,0.0,0.0,0.0,0.0,0.0,0.0,3.2028,3.1726,0.0,0.0,3.0973,3.0973,3.0973,3.0973,3.0973,3.0973,3.132,3.1846,3.2577,0.0,3.3802,3.3463,3.3665,3.363,3.2897,3.2755,3.2861,0.0,0.0,0.0,0.0,0.0,0.0,0.0,3.5037,0.0,0.0,0.0,3.6442,3.7061,3.7738,3.7984,3.7707,3.7954,3.7984,3.7707,3.7954,3.7984,3.7707,3.7707,3.7707,3.7707,3.7707,3.7707,3.7707,3.7707,3.7707,3.7707,3.7707,3.7707,3.7707,3.7707,3.7461,3.7092,3.7092,3.6846,3.6507,3.6507,3.6507,3.6538,0.0,0.0,0.0,0.0,0.0,3.1856,3.1968,3.1996,3.2025,3.2053,3.2025,3.1996,3.1996,3.1912,3.1394,3.0269,3.0147,0.0,0.0,0.0,0.0,0.0,0.0,0.0,0.0,0.0,3.2526,3.3178,3.2684,3.229,0.0,0.0,0.0,0.0,0.0,0.0,0.0,0.0,0.0,0.0,0.0,0.0,0.0,0.0,0.0,0.0,0.0,0.0,0.0,0.0,0.0,0.0,0.0,0.0,0.0,0.0,3.1347,3.1048,3.1272,3.1161,3.0973,3.0973,3.1542,3.229,0.0,0.0,3.4312,3.4312,3.4312,3.4143,3.363,3.3526,3.3596,0.0,0.0,3.4413,3.4681,0.0,0.0,0.0,0.0,3.575,0.0,3.6378,3.6996,3.8046,3.8539,3.8908,3.9093,3.9093,3.8939,3.8508,3.8692,3.8723,3.8508,3.8508,3.8508,3.8508,3.8508,3.8508,3.8508,3.8508,3.8508,3.8508,3.8508,3.8508,3.8508,3.8508,3.8231,3.78,3.78,3.7523,3.7061,3.6876,3.6784,3.6753,0.0,0.0,0.0,0.0,0.0,0.0,3.1968,3.1996,3.2053,3.2163,3.2081,3.1996,3.1996,3.1996,3.194,3.1799,3.1597,0.0,0.0,0.0,0.0,0.0,0.0,0.0,0.0,0.0,3.2526,3.3178,3.3178,3.2826,3.211,3.2074,3.17,0.0,0.0,0.0,0.0,0.0,0.0,0.0,0.0,0.0,0.0,0.0,0.0,0.0,0.0,0.0,0.0,0.0,0.0,0.0,0.0,0.0,0.0,0.0,3.2137,3.1161,3.1882,3.1579,3.0973,3.0973,3.1542,3.229,0.0,0.0,3.4312,3.4312,3.4312,3.4312,3.4279,3.4279,3.4543,3.5359,3.4806,0.0,3.5559,3.4879,0.0,0.0,0.0,3.5619,3.5973,3.6901,3.8046,3.94,3.9459,3.9767,4.0443,4.0474,3.9859,3.8539,3.9154,3.9152,3.8508,3.8508,3.8508,3.8508,3.8508,3.8508,3.8508,3.8508,3.8508,3.8508,3.8508,3.8508,3.8508,3.8508,3.8508,3.8508,3.8508,3.8508,3.8415,3.7738,3.7492,3.74,0.0,0.0,0.0,0.0,0.0,0.0,0.0,3.2135,3.2191,3.233,3.2302,3.2274,3.2274,3.2191,3.2081,3.194,3.1769,0.0,0.0,0.0,0.0,0.0,0.0,0.0,0.0,0.0,3.3654,3.4769,3.424,3.3837,3.3567,3.3108,3.272,3.2497,3.2497,0.0,0.0,0.0,0.0,0.0,0.0,0.0,0.0,0.0,0.0,0.0,0.0,0.0,0.0,0.0,0.0,0.0,0.0,0.0,0.0,3.4471,3.3693,3.2541,3.2791,3.2684,3.2497,3.2497,3.3073,3.3636,3.3905,0.0,3.5133,3.5133,3.5133,3.5133,3.5133,3.5133,3.5198,3.5457,3.5294,0.0,0.0,0.0,0.0,3.5655,3.5847,3.6219,0.0,0.0,3.8569,3.9428,3.992,4.0259,4.0474,4.0505,4.029,3.9859,4.0074,4.0074,3.9859,3.9859,3.9859,3.9859,3.9859,3.9859,3.9859,3.9859,3.9859,3.9859,3.9859,3.9859,3.9859,3.9859,3.9582,3.9152,3.9152,3.8908,3.8477,3.8262,3.82,3.8077,0.0,0.0,0.0,0.0,0.0,0.0,0.0,3.2079,3.2163,3.233,3.2385,3.2382,3.2382,3.233,3.2191,3.2025,3.1968,0.0,0.0,0.0,0.0,0.0,0.0,0.0,0.0,3.3484,3.4173,3.5519,3.4971,3.461,3.4279,3.3837,3.3457,3.3178,3.3178,0.0,0.0,0.0,0.0,0.0,0.0,0.0,3.407,0.0,0.0,0.0,0.0,0.0,0.0,0.0,0.0,0.0,0.0,0.0,0.0,0.0,3.4835,3.4002,0.0,3.3422,3.3178,3.3178,3.3768,0.0,0.0,0.0,3.5519,3.5519,3.5519,3.5519,3.5519,3.5519,3.5519,3.5519,3.5554,3.5587,0.0,0.0,0.0,3.5688,0.0,0.0,0.0,3.8378,3.9185,3.9828,4.0259,4.0505,4.0505,4.0505,4.0505,4.0505,4.0505,4.0505,4.0505,4.0505,4.0505,4.0505,4.0505,4.0505,4.0505,4.0505,4.0505,4.0505,4.0505,4.0505,0.0,4.0505,4.0228,3.9859,3.9859,3.9613,3.9213,3.9,3.8877,3.8785,0.0,0.0,0.0,0.0,0.0,0.0,0.0,3.1912,3.2081,3.2191,3.233,3.2382,3.2382,3.2382,3.2302,3.2053,0.0,0.0,0.0,0.0,0.0,0.0,0.0,0.0,0.0,3.3544,3.4203,3.5519,3.5519,3.5133,3.438,3.438,3.4007,3.3353,3.3353,3.3388,0.0,0.0,0.0,0.0,3.5519,3.5519,0.0,0.0,0.0,0.0,0.0,0.0,0.0,0.0,0.0,0.0,0.0,0.0,0.0,0.0,0.0,0.0,0.0,3.3871,3.3353,3.3353,3.3871,3.438,3.438,0.0,0.0,3.5519,3.5519,3.5519,3.5519,3.5519,3.5489,3.5489,3.5621,3.5688,0.0,3.572,0.0,0.0,3.6645,0.0,3.8308,3.9054,3.9767,4.0443,4.0505,4.0505,4.0505,4.0505,4.0505,4.0505,4.0505,4.0505,4.0505,4.0505,4.0505,4.0505,4.0505,4.0505,4.0505,4.0505,4.0505,4.0505,4.0505,4.0505,4.0505,4.0505,4.0505,4.0505,4.0505,4.0505,4.0413,3.9797,3.9551,3.9459,0.0,0.0,0.0,0.0,0.0,0.0,0.0,0.0,0.0,0.0,3.2355,3.2382,3.2382,3.2382,3.2358,0.0,0.0,0.0,0.0,0.0,0.0,0.0,0.0,0.0,3.3638,3.4086,3.4651,3.5519,3.5519,3.5392,3.5198,3.5198,3.5133,3.4968,3.507,3.5106,0.0,0.0,0.0,0.0,3.5519,3.5519,0.0,0.0,0.0,0.0,3.5519,3.5519,0.0,0.0,0.0,0.0,0.0,0.0,0.0,0.0,3.5519,3.5457,3.5294,0.0,3.4968,3.4968,3.51,3.5198,0.0,0.0,0.0,0.0,0.0,3.5519,3.5519,3.5519,3.5522,3.5653,3.5589,3.5557,3.5688,0.0,0.0,3.6637,3.7111,3.7824,3.8886,3.9299,3.9767,4.0443,4.0505,4.0505,4.0505,4.0505,4.0505,4.0505,4.0505,4.0505,4.0505,4.0505,4.0505,4.0505,4.0505,4.0505,4.0505,4.0505,4.0505,4.0505,4.0505,4.0505,4.0505,4.0505,4.0505,4.0505,4.0505,4.0505,4.0474,4.032,4.0259,4.0201,0.0,0.0,0.0,0.0,0.0,0.0,0.0,0.0,0.0,0.0,0.0,3.2382,3.2382,3.2382,0.0,0.0,0.0,0.0,0.0,0.0,0.0,0.0,0.0,3.3364,3.4273,3.4573,3.5055,3.5748,3.5748,3.5748,3.5748,3.5748,3.5748,3.5748,3.5688,3.5655,3.5589,0.0,0.0,0.0,3.5519,0.0,0.0,0.0,0.0,0.0,3.5519,3.5519,0.0,3.5519,3.5519,3.5519,0.0,0.0,0.0,0.0,3.5519,3.5519,3.5519,3.5519,3.5519,3.5519,3.5519,3.5519,3.5519,0.0,0.0,0.0,0.0,3.5519,3.5519,3.5519,3.5522,3.5589,3.5589,0.0,0.0,0.0,3.6645,3.7042,3.7883,3.8659,3.9296,3.9733,4.0105,4.0474,4.0505,4.0505,4.0505,4.0505,4.0505,4.0505,4.0505,4.0505,4.0505,4.0505,4.0505,4.0505,4.0505,4.0505,4.0505,4.0505,4.0505,4.0505,4.0505,4.0505,4.0505,4.0505,4.0505,4.0505,4.0505,4.0505,4.0505,4.0505,4.0505,4.0478,0.0,0.0,0.0,0.0,0.0,0.0,0.0,0.0,0.0,0.0,0.0,0.0,0.0,0.0,0.0,0.0,0.0,0.0,0.0,0.0,0.0,0.0,0.0,3.3874,3.5003,3.5094,3.5428,3.6005,3.6005,3.6005,3.6005,3.6005,3.6005,3.6005,3.5782,3.5621,3.5522,3.5489,0.0,0.0,3.5519,0.0,0.0,0.0,0.0,0.0,0.0,0.0,0.0,3.5519,3.5519,3.5519,3.5519,0.0,0.0,0.0,0.0,0.0,3.5519,3.5519,3.5519,3.5519,3.5519,3.5519,3.5519,0.0,0.0,0.0,0.0,0.0,0.0,3.5522,0.0,0.0,0.0,0.0,3.6005,3.6523,3.6982,3.7294,3.853,3.9398,3.9579,4.0166,4.0505,4.0505,4.0505,4.0505,4.0505,4.0505,4.0505,4.0505,4.0505,4.0505,4.0505,4.0505,4.0505,4.0505,4.0505,4.0505,4.0505,4.0505,4.0505,4.0505,4.0505,4.0505,4.0505,4.0505,4.0505,4.0505,4.0505,4.0505,4.0505,4.0505,4.0543,4.0681,0.0,0.0,0.0,0.0,0.0,0.0,0.0,0.0,0.0,0.0,0.0,0.0,0.0,0.0,0.0,0.0,0.0,0.0,0.0,0.0,0.0,3.4261,3.4115,3.4422,3.5156,3.5612,3.5914,3.6005,3.6005,3.6005,3.6005,3.6005,3.6005,3.5973,3.5683,3.5557,3.5655,3.5554,3.5519,3.5519,3.5519,0.0,0.0,0.0,0.0,0.0,0.0,0.0,0.0,3.5519,3.5519,3.5519,3.5519,0.0,0.0,0.0,0.0,0.0,3.5522,3.5519,3.5519,3.5519,3.5519,3.5519,0.0,0.0,0.0,0.0,0.0,0.0,0.0,3.5589,3.5655,0.0,0.0,3.6005,0.0,0.0,3.6744,3.7907,3.8407,3.9057,4.0086,4.0374,4.0505,4.0505,4.0505,4.0505,4.0505,4.0505,4.0505,4.0505,4.0505,4.0505,4.0505,4.0505,4.0505,4.0505,4.0505,4.0505,4.0505,4.0505,4.0505,4.0505,4.0505,4.0505,4.0505,4.0505,4.0505,4.0505,4.0505,4.0505,4.0505,4.0505,4.0854,4.1426,0.0,0.0,0.0,0.0,0.0,0.0,0.0,0.0,0.0,0.0,0.0,0.0,0.0,0.0,0.0,0.0,0.0,0.0,0.0,0.0,0.0,3.4998,3.4939,3.5216,3.5891,3.6136,3.6258,3.6258,3.6163,3.6163,3.6258,3.6258,3.6163,3.6005,3.5844,3.575,3.5688,3.5554,3.5519,3.5519,0.0,0.0,0.0,0.0,0.0,0.0,0.0,0.0,0.0,0.0,3.5554,3.5589,3.5522,0.0,0.0,0.0,0.0,0.0,3.5589,3.5554,3.5522,3.5716,3.5619,3.5519,0.0,0.0,0.0,0.0,0.0,0.0,0.0,0.0,3.5878,3.5878,0.0,3.6068,3.6164,3.6838,3.7573,3.8284,3.9087,3.9797,4.0339,4.047,4.0505,4.0505,4.0505,4.0505,4.0505,4.0505,4.0505,4.0505,4.0505,4.0505,4.0505,4.0505,4.0505,4.0505,4.0505,4.0505,4.0505,4.0505,4.0505,4.0505,4.0505,4.0505,4.0505,4.0505,4.0505,4.0539,4.0888,4.1057,4.1091,4.1459,4.1558,4.1591,0.0,0.0,0.0,0.0,0.0,0.0,0.0,0.0,0.0,0.0,0.0,0.0,0.0,0.0,0.0,0.0,0.0,0.0,0.0,0.0,3.4352,3.546,3.5675,3.5953,3.6476,3.6507,3.6507,3.6507,3.6352,3.6352,3.6507,3.6445,3.6289,3.6068,3.6005,3.591,3.5752,3.5683,3.5587,3.5554,0.0,0.0,0.0,0.0,0.0,0.0,0.0,0.0,0.0,0.0,0.0,0.0,0.0,0.0,0.0,3.5651,3.5619,3.5651,3.575,3.5686,3.5683,3.5941,0.0,0.0,0.0,0.0,0.0,0.0,0.0,0.0,0.0,3.591,0.0,3.6037,3.6068,3.6131,3.6472,3.7422,3.8284,3.869,3.9613,4.032,4.0474,4.0505,4.0505,4.0505,4.0505,4.0505,4.0505,4.0505,4.0505,4.0505,4.0505,4.0505,4.0505,4.0505,4.0505,4.0505,4.0646,4.0749,4.0749,4.0888,4.0956,4.0956,4.0956,4.0956,4.0956,4.0956,4.0885,4.0817,4.1459,4.1723,4.1819,4.2489,4.2426,4.2078,0.0,0.0,0.0,0.0,0.0,0.0,0.0,0.0,0.0,0.0,0.0,0.0,0.0,0.0,0.0,0.0,0.0,0.0,0.0,0.0,3.5368,3.5521,3.6076,3.6445,3.6507,3.6507,3.6507,3.6507,3.6476,3.6476,3.6507,3.632,3.6196,3.6164,3.6068,3.6005,3.5973,3.5973,3.5878,3.5688,3.5688,0.0,0.0,0.0,0.0,0.0,0.0,0.0,0.0,0.0,0.0,0.0,0.0,0.0,3.572,3.591,3.5973,3.5973,3.5973,3.5973,3.5973,3.6005,3.5846,0.0,3.5688,3.5688,0.0,3.5554,0.0,0.0,0.0,3.5621,3.5816,3.6133,3.6164,3.6472,3.7306,3.7491,3.8014,3.9275,3.949,3.9797,4.0443,4.0505,4.0505,4.0505,4.0505,4.0505,4.0505,4.0505,4.0505,4.0505,4.0505,4.0505,4.0505,4.0505,4.0505,4.0505,4.1125,4.1426,4.1459,4.2078,4.2363,4.2363,4.2363,4.2363,4.2363,4.2363,4.1981,4.1492,4.2173,4.2426,4.252,4.3166,4.3406,4.3466,0.0,0.0,0.0,0.0,0.0,0.0,0.0,0.0,0.0,0.0,0.0,0.0,0.0,0.0,0.0,0.0,0.0,0.0,0.0,3.5367,3.5706,3.6076,3.6721,3.6877,3.6538,3.6507,3.6507,3.6507,3.6507,3.6383,3.6195,3.632,3.632,3.6196,3.6163,3.6101,3.6132,3.5879,3.5752,3.5688,3.5621,3.5554,0.0,0.0,0.0,0.0,0.0,0.0,0.0,0.0,3.5686,3.5844,3.5878,3.5943,3.6006,3.6005,3.6005,3.6037,3.61,3.5943,3.5879,3.6226,3.61,0.0,0.0,3.5784,3.5878,3.5814,3.5973,0.0,0.0,0.0,3.6258,3.6352,3.6383,3.666,3.74,3.7861,3.8477,3.9367,3.9859,4.0228,4.0474,4.0505,4.0505,4.0505,4.0888,4.0922,4.0539,4.0919,4.0922,4.0539,4.0888,4.1125,4.1125,4.1125,4.1327,4.1754,4.1591,4.1492,4.1525,4.2205,4.252,4.252,4.252,4.252,4.252,4.252,4.2363,4.2173,4.2862,4.3106,4.3196,4.3914,4.3914,4.3647,0.0,0.0,0.0,0.0,0.0,0.0,0.0,0.0,0.0,0.0,0.0,0.0,0.0,0.0,0.0,0.0,0.0,0.0,3.6336,3.6368,3.6587,3.7057,3.7298,3.7208,3.6785,3.66,3.6507,3.6507,3.6507,3.6383,3.6163,3.6383,3.6414,3.6289,3.6289,3.6289,3.6289,3.6038,3.5911,3.5847,3.575,3.5716,0.0,0.0,0.0,0.0,0.0,0.0,0.0,0.0,3.591,3.6005,3.6005,3.6068,3.6132,3.61,3.6037,3.6037,3.6164,3.6038,3.5943,3.632,0.0,0.0,3.5911,3.5943,3.6068,3.6005,3.6068,0.0,0.0,0.0,0.0,0.0,3.6661,3.7061,3.7738,3.8385,3.9062,3.9736,4.0228,4.0505,4.0505,4.0681,4.0817,4.0817,4.1426,4.1624,4.1158,4.1558,4.1624,4.1158,4.1591,4.1819,4.1819,4.1819,4.2046,4.252,4.2237,4.2141,4.2141,4.2831,4.3169,4.3169,4.3169,4.3169,4.3169,4.3169,4.3169,4.3199,4.3406,4.3647,4.3914,4.4412,4.4265,4.3943,0.0,0.0,0.0,0.0,0.0,0.0,0.0,0.0,3.5637,3.6226,3.6306,0.0,0.0,0.0,0.0,0.0,0.0,0.0,3.8218,3.8278,3.8278,3.8306,3.7709,3.7417,3.7417,3.6816,3.6538,3.6507,3.6507,3.6507,3.6507,3.6507,3.6507,3.6507,3.6507,3.6507,3.6507,3.6476,3.6383,3.6196,3.6196,3.6132,3.6005,0.0,0.0,0.0,0.0,0.0,0.0,0.0,3.6005,3.6005,3.6005,3.6005,3.6037,3.6133,3.6132,3.6037,3.6164,3.6196,3.6196,0.0,0.0,0.0,3.6227,3.6196,3.6164,3.6037,0.0,3.61,3.6414,3.6352,0.0,3.6476,3.7061,3.7738,3.8415,3.9059,3.9736,4.0413,4.0505,4.0505,4.0505,4.1125,4.1525,4.1525,4.2141,4.252,4.252,4.252,4.252,4.252,4.252,4.252,4.252,4.252,4.252,4.252,4.3196,4.3495,4.3529,4.4265,4.4615,4.4615,4.4615,4.4615,4.4615,4.4615,4.4615,4.4525,4.3827,4.3943,4.4615,4.4615,4.4615,4.4643,0.0,0.0,0.0,0.0,0.0,0.0,0.0,0.0,3.7236,3.6898,3.6858,0.0,0.0,0.0,0.0,0.0,0.0,0.0,3.8278,3.7911,3.7854,3.8278,3.7709,3.7417,3.7417,3.7208,3.6938,3.6507,3.6507,3.6507,3.6507,3.6507,3.6507,3.6507,3.6507,3.6507,3.6507,3.6815,3.6906,3.6845,3.6723,3.6662,3.6569,0.0,0.0,0.0,0.0,0.0,0.0,0.0,0.0,0.0,3.6258,3.6258,3.6195,3.6352,3.6383,3.6352,3.6383,3.6226,0.0,3.6352,0.0,0.0,0.0,3.6414,0.0,0.0,3.6352,3.6383,3.6476,3.6845,0.0,3.7184,3.7769,3.8446,3.9123,3.9367,3.9736,4.0413,4.0922,4.1194,4.1194,4.1788,4.2205,4.2205,4.2831,4.3015,4.252,4.2953,4.2984,4.252,4.2953,4.3196,4.3196,4.3196,4.3469,4.3943,4.3647,4.3495,4.3529,4.4265,4.4615,4.4615,4.4615,4.4615,4.4615,4.4615,4.4615,4.4587,4.4384,4.4412,4.4615,4.4615,4.4615,4.4643,0.0,0.0,0.0,0.0,0.0,0.0,0.0,0.0,3.8524,3.8329,3.8288,3.8379,0.0,0.0,0.0,0.0,0.0,0.0,0.0,3.8451,3.8395,3.9001,3.8226,3.7767,3.7767,3.7767,3.7562,3.7238,3.7238,3.7238,3.7238,3.7238,3.7238,3.7238,3.7238,3.7238,3.7207,3.7472,3.7442,3.7237,3.7383,3.7294,3.7087,0.0,0.0,0.0,0.0,0.0,0.0,0.0,0.0,0.0,3.6352,3.6352,3.632,3.6289,3.6289,3.6289,3.6195,3.61,0.0,3.6258,3.6258,3.6258,3.6445,0.0,0.0,0.0,3.6507,3.6569,3.6846,3.7215,0.0,3.7861,3.8674,3.9428,3.9864,4.0376,4.0854,4.1262,4.1656,4.1885,4.1885,4.252,4.2892,4.2892,4.3558,4.3768,4.335,4.3739,4.3768,4.335,4.3739,4.3943,4.3943,4.3943,4.4179,4.4615,4.415,4.3943,4.3943,4.4412,4.4615,4.4615,4.4615,4.4615,4.4615,4.4615,4.4615,4.4615,4.4615,4.4615,4.4615,4.4671,4.4671,4.4643,0.0,0.0,3.9216,3.9242,0.0,0.0,0.0,0.0,3.9487,4.0037,4.0113,3.9876,0.0,0.0,0.0,0.0,0.0,0.0,0.0,0.0,3.9487,4.0087,3.9001,3.8362,3.8362,3.8362,3.839,3.8446,3.8334,3.8306,3.8306,3.8306,3.8306,3.8306,3.8306,3.8306,3.8306,3.8362,3.8084,3.7592,3.8169,3.8055,3.7623,3.8108,0.0,0.0,0.0,0.0,0.0,0.0,0.0,0.0,3.6289,3.6352,3.6414,3.6195,3.6068,3.6005,3.5879,3.5911,0.0,3.6037,3.6258,0.0,3.6507,3.6507,3.6507,3.6507,0.0,3.6847,3.7464,3.7744,3.8054,3.8673,3.9847,4.0673,4.0673,4.1724,4.252,4.252,4.2552,4.2583,4.2583,4.3196,4.3617,4.3617,4.4207,4.4615,4.4615,4.4615,4.4615,4.4615,4.4615,4.4615,4.4615,4.4615,4.4615,4.4615,4.4615,4.4615,4.4615,4.4615,4.4615,4.4615,4.4615,4.4615,4.4615,4.4615,4.4615,4.4615,4.4615,4.4615,4.4643,4.4748,4.472,4.4699,0.0,0.0,3.9355,3.9825,0.0,0.0,0.0,0.0,0.0,4.0087,0.0,0.0,0.0,0.0,0.0,0.0,0.0,0.0,0.0,0.0,3.9487,4.0087,3.9375,3.9001,3.9001,3.9001,3.9242,3.9722,3.875,3.8306,3.8306,3.8306,3.8306,3.8306,3.8306,3.8306,3.8334,3.881,3.892,3.881,3.8947,3.892,3.8783,3.8418,3.8222,0.0,0.0,0.0,0.0,0.0,0.0,0.0,3.6383,3.6352,3.6352,3.6937,3.6662,3.629,3.6845,3.6538,0.0,0.0,3.6445,3.6507,3.6507,3.6507,3.6507,3.6507,3.7343,3.8087,3.8244,3.9592,4.0697,4.0858,4.1561,4.2075,4.2075,4.2329,4.252,4.252,4.2953,4.3287,4.3287,4.3943,4.4384,4.4384,4.4497,4.4615,4.4615,4.4615,4.4615,4.4615,4.4615,4.4615,4.4615,4.4615,4.4615,4.4615,4.4615,4.4615,4.4615,4.4615,4.4615,4.4615,4.4615,4.4615,4.4615,4.4615,4.4615,4.4615,4.4615,4.4637,4.4748,4.4776,4.4858,4.4913,0.0,0.0,0.0,0.0,0.0,0.0,0.0,0.0,0.0,0.0,0.0,0.0,0.0,4.0113,0.0,0.0,4.0113,4.0113,4.0113,3.954,3.9322,3.967,3.9644,3.9644,3.9644,3.9644,3.9773,4.0113,3.9454,3.9162,3.9162,3.9162,3.9162,3.9162,3.9162,3.9162,3.9189,3.948,3.9487,3.9249,3.9513,3.9461,3.9189,3.9162,3.9001,3.8756,3.8756,0.0,0.0,0.0,0.0,0.0,0.0,0.0,3.7265,3.7589,3.7413,3.7086,3.7147,0.0,0.0,3.6507,0.0,3.6569,3.6877,3.6938,3.6997,3.7296,3.7953,3.8705,3.9296,4.0559,4.1612,4.1936,4.2539,4.2984,4.2984,4.329,4.3499,4.3499,4.3827,4.403,4.403,4.4384,4.4615,4.4615,4.4615,4.4615,4.4615,4.4615,4.4615,4.4615,4.4615,4.4615,4.4615,4.4615,4.4615,4.4615,4.4615,4.4615,4.4615,4.4615,4.4615,4.4615,4.4615,4.4615,4.4615,4.4615,4.4643,4.4665,4.4643,4.4665,4.4803,4.4886,4.4913,4.494,0.0,0.0,0.0,0.0,0.0,0.0,0.0,0.0,0.0,0.0,0.0,0.0,0.0,4.0113,4.0113,0.0,0.0,0.0,4.0113,3.9644,3.9382,3.9382,3.9825,4.0113,4.0113,4.0113,4.0113,4.0113,4.0113,4.0113,4.0113,4.0113,0.0,4.0113,4.0113,4.0113,4.0113,4.0113,3.9799,3.9408,3.9901,3.9799,3.9435,3.9901,3.9799,3.9382,3.9382,3.8974,3.8446,3.8446,0.0,0.0,0.0,0.0,3.8278,3.8218,3.8101,3.7905,3.7442,0.0,3.7177,3.6785,3.6723,0.0,3.7298,3.7506,3.7709,3.8306,3.8756,3.9319,4.0378,4.1366,4.2206,4.2764,4.335,4.3676,4.3676,4.4207,4.4615,4.4615,4.4615,4.4615,4.4615,4.4615,4.4615,4.4615,4.4615,4.4615,4.4615,4.4615,4.4615,4.4615,4.4615,4.4615,4.4615,4.4615,4.4615,4.4615,4.4615,4.4615,4.4615,4.4615,4.4615,4.4615,4.4615,4.4615,4.4615,4.4615,4.4665,4.4776,4.4665,4.4692,4.4858,4.4995,4.4968,4.4913,0.0,0.0,0.0,0.0,0.0,0.0,0.0,0.0,0.0,0.0,4.0113,4.0113,4.0113,4.0113,4.0113,4.0113,4.0113,4.0113,4.0113,0.0,0.0,3.9952,4.0062,4.0113,4.0113,4.0113,4.0113,4.0113,4.0113,4.0113,0.0,0.0,0.0,4.0113,0.0,4.0113,4.0113,4.0113,4.0028,4.0011,4.0087,4.0062,3.9978,0.0,0.0,0.0,0.0,0.0,3.9082,3.9082,3.8756,0.0,0.0,0.0,3.839,3.8892,3.8525,3.8129,0.0,0.0,3.7854,0.0,3.7594,3.7799,0.0,0.0,3.8334,0.0,4.0117,4.1073,4.1229,4.2879,4.4192,4.4293,4.4384,4.444,4.444,4.4525,4.4615,4.4615,4.4615,4.4615,4.4615,4.4615,4.4615,4.4615,4.4615,4.4615,4.4615,4.4615,4.4615,4.4615,4.4615,4.4615,4.4615,4.4615,4.4615,4.4615,4.4615,4.4615,4.4615,4.4615,4.4615,4.4615,4.4615,4.4615,4.4615,4.4615,4.4665,4.4803,4.4776,4.4858,4.4995,4.5123,4.515,4.515,0.0,0.0,0.0,0.0,0.0,0.0,0.0,0.0,0.0,0.0,0.0,4.0113,4.0113,4.0113,4.0113,4.0113,4.0113,4.0113,4.0113,4.0113,4.0113,4.0113,4.0113,4.0113,4.0113,4.0113,4.0113,4.0113,4.0113,4.0113,0.0,4.0113,4.0113,0.0,0.0,0.0,0.0,4.0113,4.0113,4.0113,4.0113,4.0113,0.0,0.0,0.0,0.0,0.0,0.0,0.0,0.0,3.9506,3.9322,3.9322,0.0,0.0,0.0,3.9454,3.9183,3.9189,3.8728,3.8169,0.0,3.8055,3.8254,3.8395,3.8618,3.8974,3.9592,4.0534,4.1406,4.1835,4.3002,4.4079,4.4547,4.4615,4.4615,4.4615,4.4615,4.4615,4.4615,4.4615,4.4615,4.4615,4.4615,4.4615,4.4615,4.4615,4.4615,4.4615,4.4615,4.4615,4.4615,4.4615,4.4615,4.4615,4.4615,4.4615,4.4615,4.4615,4.4615,4.4615,4.4615,4.4615,4.4615,4.4665,4.4699,4.4615,4.4665,4.4776,4.4913,4.4831,4.494,4.5096,4.5177,4.5203,4.5203,0.0,0.0,0.0,0.0,0.0,0.0,0.0,0.0,0.0,0.0,0.0,4.0113,4.0113,0.0,0.0,0.0,4.0113,4.0113,4.0113,4.0113,4.0113,4.0113,4.0113,4.0113,4.0113,4.0113,4.0113,4.0113,4.0113,4.0113,4.0113,4.0113,4.0113,0.0,4.0113,0.0,0.0,0.0,0.0,0.0,0.0,0.0,0.0,0.0,0.0,0.0,0.0,0.0,0.0,0.0,0.0,4.0113,4.0113,4.0113,0.0,0.0,0.0,0.0,0.0,0.0,3.8701,3.8557,3.8613,3.881,0.0,0.0,3.9566,0.0,4.0527,4.1136,4.188,4.2794,4.3606,4.4181,4.4479,4.4615,4.4615,4.4615,4.4615,4.4615,4.4615,4.4615,4.4615,4.4615,4.4615,4.4615,4.4615,4.4615,4.4615,4.4615,4.4615,4.4615,4.4615,4.4615,4.4615,4.4615,4.4615,4.4671,4.4615,4.4643,4.4671,4.4615,4.4643,4.4671,4.4748,4.4748,4.4726,4.4776,4.4913,4.5049,4.4913,4.4961,4.5203,4.523,4.523,4.5203,0.0,0.0,0.0,0.0,0.0,0.0,0.0,0.0,0.0,0.0,0.0,4.0113,4.0113,4.0113,4.0113,4.0113,4.0113,4.0113,4.0113,4.0113,4.0113,4.0113,4.0113,0.0,4.0113,4.0113,4.0113,4.0113,4.0113,4.0113,4.0113,4.0113,4.0113,4.0113,4.0113,4.0113,4.0113,0.0,0.0,0.0,4.0113,4.0113,0.0,0.0,0.0,0.0,0.0,0.0,0.0,0.0,0.0,0.0,4.0113,4.0113,4.0113,0.0,0.0,0.0,0.0,3.9935,0.0,3.9242,3.9487,0.0,0.0,0.0,4.0062,4.0113,4.0146,4.0383,4.1136,4.2429,4.3409,4.3443,4.4079,4.4615,4.4615,4.4615,4.4615,4.4615,4.4615,4.4615,4.4615,4.4615,4.4615,4.4615,4.4615,4.4615,4.4615,4.4615,4.4615,4.4615,4.4615,4.4615,4.4615,4.4615,4.4637,4.4776,4.4671,4.4671,4.4776,4.4671,4.4699,4.4776,4.4803,4.4886,4.4968,4.4858,4.4968,4.5177,4.5049,4.5103,4.5203,4.5344,4.5318,4.5203,0.0,0.0,0.0,0.0,0.0,0.0,0.0,0.0,0.0,0.0,0.0,0.0,0.0,4.0113,4.0113,4.0113,4.0113,4.0113,4.0113,4.0113,4.0113,4.0113,4.0113,4.0113,4.0113,4.0113,4.0113,4.0113,4.0113,4.0113,4.0113,4.0113,4.0113,4.0113,4.0113,4.0113,4.0113,4.0113,0.0,0.0,4.0113,4.0113,4.0113,0.0,0.0,0.0,0.0,0.0,0.0,0.0,0.0,0.0,4.0113,4.0113,4.0113,4.0113,0.0,0.0,0.0,0.0,0.0,3.9825,3.9876,3.9986,3.9799,3.9927,4.0113,4.0113,4.0113,4.018,4.0451,4.1305,4.2151,4.2625,4.2929,4.3098,4.3098,4.3098,4.3098,4.3098,4.3098,4.3098,4.3098,4.3098,4.3098,4.3098,4.3098,4.3335,4.3809,4.3842,4.4079,4.4581,4.4615,4.4615,4.4615,4.4615,4.4671,4.4803,4.4748,4.4803,4.494,4.4776,4.4858,4.5042,4.4968,4.4968,4.4988,4.5049,4.5096,4.5177,4.515,4.5238,4.5344,4.5371,4.5572,4.5803,0.0,0.0,0.0,0.0,0.0,4.0113,4.0113,4.0113,4.0113,4.0113,0.0,0.0,0.0,0.0,4.0113,4.0113,4.0113,4.0113,4.0113,4.0113,4.0113,4.0113,4.035,4.0485,4.0485,4.0485,4.0587,4.0857,4.0587,4.062,0.0,4.0857,4.0857,4.0857,4.0857,4.0553,0.0,0.0,0.0,4.0113,4.0113,4.0113,4.0113,0.0,0.0,0.0,0.0,0.0,0.0,0.0,0.0,0.0,0.0,4.0113,4.0113,4.0113,0.0,0.0,4.0113,0.0,0.0,0.0,0.0,4.0113,4.0113,4.0113,4.0113,4.0113,4.0113,4.0113,4.0113,4.0519,4.1068,4.1813,4.2117,4.2286,4.2286,4.2286,4.2286,4.2286,4.2286,4.2286,4.2286,4.2286,4.2286,4.2286,4.2286,4.2523,4.2997,4.3031,4.3403,4.4181,4.4181,4.4344,4.4615,4.4637,4.472,4.4858,4.4858,4.494,4.5042,4.494,4.4995,4.5177,4.5096,4.5103,4.5157,4.5328,4.5459,4.5546,4.5459,4.5546,4.5649,4.5649,4.5905,4.6179,0.0,0.0,4.0113,4.0113,4.0113,4.0113,4.0113,4.0113,4.0113,4.0113,0.0,0.0,0.0,0.0,0.0,4.018,4.018,4.018,4.018,4.018,4.018,4.018,4.0832,4.1238,4.1238,4.1238,4.1576,4.2286,4.1576,0.0,0.0,0.0,4.2286,4.2286,4.2286,4.1474,4.018,0.0,4.018,4.018,0.0,4.0146,4.0146,0.0,0.0,0.0,4.0113,4.0113,0.0,4.0113,0.0,0.0,0.0,4.0113,4.0113,4.0113,0.0,0.0,0.0,0.0,0.0,0.0,0.0,0.0,4.0113,4.0113,4.0113,4.0113,4.0113,4.0113,4.0113,4.0113,4.035,4.1068,4.1779,4.2219,4.2219,4.2219,4.2219,4.2219,4.2219,4.2219,4.2219,4.2219,4.2219,4.2219,4.2219,4.2219,4.2252,4.2286,4.2625,4.3341,4.3375,4.3741,4.4513,4.4686,4.4824,4.4988,4.4988,4.5069,4.523,4.5069,4.5096,4.5257,4.5257,4.531,4.5476,4.5784,4.6035,4.6193,4.601,4.6035,4.6193,4.6193,4.6217,4.6291,0.0,4.0113,4.0113,4.0113,4.0113,4.0113,4.0113,4.0113,4.0113,0.0,0.0,0.0,0.0,0.0,4.1677,4.1677,4.1677,4.1677,4.1677,4.1677,4.1677,4.1677,4.188,4.1982,4.1982,4.1982,4.2083,0.0,0.0,0.0,0.0,0.0,0.0,0.0,4.2286,4.2049,4.1677,4.1677,0.0,4.1677,4.1677,4.1373,0.0,0.0,0.0,0.0,0.0,4.0113,4.0113,0.0,4.0113,4.0113,0.0,0.0,0.0,0.0,0.0,0.0,4.0113,0.0,0.0,0.0,0.0,0.0,4.0113,4.0113,4.0113,4.0113,4.0113,4.0113,4.0113,4.0113,4.018,4.0383,4.0587,4.0722,4.0722,4.0722,4.0722,4.0722,4.0722,4.0722,4.0722,4.0722,4.0722,4.0722,4.0722,4.0933,4.1474,4.2016,4.2388,4.2591,4.2591,4.2692,4.2929,4.3668,4.4075,4.4236,4.4856,4.5415,4.5895,4.5734,4.5935,4.6424,4.6328,4.6352,4.6483,4.6217,4.6363,4.6719,4.6637,4.666,4.6719,4.6719,4.6913,4.7182,4.1027,4.1027,4.1027,4.1027,4.1027,4.1027,4.1027,4.1027,4.1027,0.0,0.0,0.0,0.0,0.0,0.0,4.2286,4.2286,4.2286,4.2286,4.2286,4.2286,4.2286,4.2591,4.276,4.276,4.276,0.0,0.0,0.0,0.0,0.0,0.0,0.0,0.0,4.3261,4.3261,0.0,0.0,0.0,0.0,4.2286,0.0,0.0,4.1644,4.1204,0.0,0.0,0.0,4.0113,4.0113,4.0113,0.0,0.0,0.0,0.0,0.0,0.0,0.0,0.0,0.0,0.0,0.0,0.0,0.0,4.0113,4.0113,4.0113,4.0113,4.0113,4.0113,4.0113,4.0113,4.0113,4.0113,4.0113,4.0113,4.0113,4.0113,4.0113,4.0113,4.0113,4.0113,4.0113,4.0113,4.0113,4.0113,4.0113,4.0282,4.0696,4.1136,4.1534,4.1918,4.1918,4.2113,4.2471,4.3045,4.3586,4.3973,4.4751,4.548,4.6193,4.628,4.6543,4.6926,4.6799,4.6936,4.716,4.689,4.6959,4.7182,4.7182,4.7182,4.7182,4.7182,4.7378,4.7591,0.0,4.2286,4.2286,4.2286,4.2286,4.2286,4.2286,4.2286,4.2286,0.0,0.0,0.0,0.0,0.0,0.0,0.0,4.2584,4.2584,4.2584,4.2584,4.2584,4.2584,4.32,4.3511,4.3511,4.3511,0.0,0.0,0.0,0.0,0.0,0.0,0.0,0.0,4.4615,4.4615,4.4615,0.0,0.0,4.2584,4.2584,4.2489,0.0,0.0,4.1948,4.1339,4.1339,4.0899,4.035,4.0248,4.018,0.0,0.0,0.0,0.0,0.0,4.0113,0.0,0.0,0.0,0.0,0.0,4.0113,0.0,4.0113,4.0113,4.0113,4.0113,4.0113,4.0113,4.0113,4.0113,4.0113,4.0113,4.0113,4.0113,4.0113,4.0113,4.0113,4.0113,4.0113,4.0113,4.0113,4.0113,4.0113,4.0113,4.0113,4.0113,4.0113,4.0113,4.0468,4.124,4.1291,4.1733,4.2509,4.2781,4.3294,4.4009,4.4712,4.5481,4.6257,4.674,4.7004,4.7049,4.7049,4.7291,4.7674,4.7674,4.7674,4.7674,4.7674,4.7674,4.7674,4.7674,4.7674,4.7736,4.2286,4.2286,4.2286,4.2286,4.2286,4.2286,4.2286,4.2286,4.2286,4.2286,4.2828,0.0,0.0,0.0,0.0,0.0,0.0,4.4175,4.4175,4.4175,4.4175,4.4175,4.431,4.4378,4.4378,4.4378,4.4445,0.0,0.0,0.0,0.0,0.0,0.0,0.0,4.4615,4.4615,4.4615,0.0,0.0,4.4175,4.4175,4.3741,4.32,4.32,4.2726,4.2083,4.2083,4.1982,4.1779,4.117,4.0595,4.0113,0.0,0.0,0.0,4.0113,0.0,0.0,0.0,0.0,0.0,0.0,0.0,0.0,4.0113,4.0113,4.0113,4.0113,4.0113,4.0113,4.0113,4.0113,4.0113,4.0113,4.0113,4.0113,4.0113,4.0113,4.0113,4.0113,4.0113,4.0113,4.0113,4.0113,4.0113,4.0113,4.0113,4.0113,4.0113,4.0113,4.0231,4.0526,4.0841,4.1138,4.1405,4.2494,4.3129,4.3305,4.4862,4.5829,4.6377,4.7132,4.7653,4.8015,4.8015,4.8075,4.8153,4.8153,4.8153,4.8153,4.8153,4.8153,4.8153,4.8153,4.8153,4.819,4.3464,4.3464,4.3464,4.3464,4.3464,4.3464,4.3464,4.3741,4.4012,4.4012,4.4654,0.0,0.0,0.0,0.0,0.0,0.0,0.0,0.0,0.0,4.4615,4.4615,4.4615,4.4615,4.4615,4.4615,4.4615,0.0,0.0,0.0,0.0,0.0,0.0,0.0,0.0,0.0,0.0,0.0,4.4615,4.4615,4.4615,0.0,4.4012,4.4012,4.3538,4.2861,4.2861,4.2625,4.2219,4.188,4.1474,0.0,4.0764,4.0629,4.0561,0.0,4.0113,4.0113,0.0,0.0,0.0,4.0113,0.0,0.0,0.0,4.0113,4.0113,4.0113,4.0113,4.0113,4.0113,4.0113,4.0113,4.0113,4.0113,4.0113,4.0113,4.0113,4.0113,4.0113,4.0113,4.0113,4.0113,4.0113,4.0113,4.0113,4.0113,4.0113,4.0113,4.0163,4.0328,4.0683,4.0978,4.1263,4.1652,4.2342,4.2825,4.3195,4.4369,4.5446,4.6411,4.7034,4.7709,4.8306,4.8306,4.8306,4.8306,4.8306,4.8306,4.8306,4.8306,4.8306,4.8306,4.8306,4.8306,4.8306,4.5021,4.5021,4.5021,4.5021,4.5021,4.5021,4.5021,4.5534,4.5906,4.5906,0.0,0.0,0.0,0.0,0.0,0.0,0.0,0.0,0.0,0.0,4.4987,4.4818,4.4818,4.475,4.4615,4.4615,4.4615,4.4615,0.0,0.0,0.0,0.0,0.0,0.0,0.0,0.0,0.0,0.0,0.0,4.4615,0.0,4.4615,4.4615,4.4615,4.4181,4.3639,4.3639,4.3166,4.2489,4.2489,4.2422,4.2185,4.161,4.1407,0.0,0.0,0.0,0.0,0.0,0.0,0.0,0.0,0.0,4.0113,0.0,0.0,0.0,4.0113,4.0113,4.0113,0.0,4.0113,4.0113,4.0113,4.0113,4.0113,4.0113,4.0113,4.0113,4.0113,4.0113,4.0113,4.0113,4.0113,4.0113,4.0113,4.0179,4.0229,4.0229,4.0427,4.0754,4.1253,4.1477,4.1825,4.2338,4.2418,4.2745,4.3371,4.4111,4.5101,4.6335,4.6997,4.77,4.8306,4.8306,4.8306,4.8306,4.8306,4.8306,4.8306,4.8306,4.8306,4.8306,4.8306,4.8306,4.8306,4.6549,4.6549,4.6549,4.6549,4.6549,4.6549,4.6549,4.6616,0.0,0.0,0.0,0.0,0.0,0.0,0.0,0.0,0.0,0.0,4.6684,0.0,0.0,4.5602,4.5568,4.5263,4.4615,4.4615,4.4615,4.4615,0.0,0.0,0.0,0.0,0.0,0.0,4.4615,0.0,0.0,0.0,4.4615,0.0,4.4615,4.4615,0.0,4.4615,4.4547,4.4479,4.4479,4.3944,4.3274,0.0,4.2828,4.2286,0.0,4.2185,4.2016,4.1305,0.0,0.0,0.0,0.0,0.0,0.0,4.0113,0.0,4.0113,0.0,4.0113,4.0113,0.0,4.0113,0.0,0.0,0.0,4.0113,4.0113,4.0113,4.0113,4.0113,4.0113,4.0113,4.0113,4.0113,4.0113,4.0113,4.0113,4.0113,4.05,4.0707,4.0707,4.1243,4.1622,4.1817,4.2297,4.2616,4.2825,4.3178,4.3375,4.3485,4.4986,4.5792,4.5993,4.7516,4.8233,4.8306,4.8306,4.8306,4.8306,4.8306,4.8306,4.8306,4.8306,4.8306,4.8306,4.8306,4.8306,4.8306,4.6955,4.6786,4.6786,4.6786,4.6786,4.6786,4.6786,4.7158,0.0,0.0,0.0,0.0,0.0,0.0,0.0,0.0,0.0,4.7462,4.7462,0.0,0.0,0.0,4.6346,4.6177,4.5872,4.5901,4.5669,4.5229,4.5229,0.0,0.0,0.0,0.0,0.0,4.4615,0.0,4.4615,0.0,4.4615,0.0,0.0,4.4615,0.0,4.4615,4.4615,4.4615,4.4615,4.4378,4.4079,0.0,4.3876,0.0,0.0,0.0,0.0,4.2155,0.0,0.0,0.0,0.0,0.0,0.0,0.0,0.0,4.0838,0.0,4.0563,0.0,0.0,0.0,0.0,0.0,0.0,0.0,4.0279,4.0113,4.0113,4.0113,4.0113,4.0113,4.0113,4.0113,4.0113,4.0353,4.0524,4.0524,4.0932,4.123,4.1333,4.1644,4.1987,4.2358,4.2635,4.2957,4.3232,4.3428,4.3515,4.3497,4.4672,4.5443,4.5957,4.7095,4.7846,4.8306,4.8306,4.8306,4.8306,4.8306,4.8306,4.8306,4.8306,4.8306,4.8306,4.8306,4.8306,4.8306,4.7597,0.0,4.7394,4.7394,4.7394,4.7394,4.7394,4.7868,4.8409,0.0,0.0,0.0,4.9018,4.9018,0.0,0.0,4.8511,4.8206,4.8206,0.0,4.7293,0.0,4.709,0.0,4.6786,4.6786,4.6549,4.6007,4.6007,0.0,0.0,0.0,0.0,0.0,0.0,4.4615,4.4615,0.0,4.4716,4.4919,4.4919,4.4993,4.519,4.4987,4.4919,4.4919,4.4919,4.4784,4.4615,4.4615,4.4692,4.4701,4.4096,4.4186,4.4277,0.0,0.0,0.0,4.2594,0.0,0.0,0.0,0.0,0.0,0.0,0.0,0.0,0.0,4.1543,0.0,0.0,0.0,0.0,0.0,0.0,4.0514,4.0514,4.0514,4.05,4.0303,4.0427,4.0466,4.0466,4.0802,4.0978,4.0978,4.1432,4.1739,4.1903,4.2133,4.2438,4.2882,4.2995,4.3196,4.3497,4.3515,4.3608,4.3828,4.4635,4.5443,4.625,4.7039,4.7736,4.8306,4.8306,4.8306,4.8306,4.8306,4.8306,4.8306,4.8306,4.8306,4.8306,4.8306,4.8306,4.8306,4.8951,4.8951,0.0,4.8951,4.8951,4.8951,4.8951,4.8951,4.8984,4.9018,4.9018,4.9018,4.9018,4.9018,4.9018,0.0,0.0,4.8951,4.8951,4.8951,4.8612,0.0,0.0,4.753,0.0,4.6786,4.6786,4.6752,0.0,0.0,0.0,0.0,0.0,0.0,4.4919,4.4615,4.4615,4.4615,4.4993,4.5669,4.5669,4.6075,4.665,0.0,4.5669,4.5669,4.5669,4.5196,4.4615,4.4615,4.4906,4.5294,4.5259,4.5259,0.0,0.0,0.0,0.0,0.0,0.0,0.0,4.393,0.0,0.0,0.0,0.0,4.1521,0.0,0.0,0.0,0.0,0.0,0.0,0.0,0.0,0.0,0.0,4.1666,4.1445,4.0849,4.1185,4.1477,4.1477,4.1477,4.1499,4.1499,4.1909,4.2236,4.2358,4.2882,4.3233,4.3376,4.3445,4.3497,4.3515,4.3515,4.3901,4.4654,4.548,4.6287,4.7076,4.7902,4.8269,4.8306,4.8306,4.8306,4.8306,4.8306,4.8306,4.8306,4.8306,4.8306,4.8306,4.8306,4.8306,4.8306,4.9018,0.0,0.0,4.9018,4.9018,4.9018,4.9018,4.9018,4.9018,4.9018,4.9018,4.9018,4.9018,4.9018,4.9018,4.9018,4.9018,4.9018,4.9018,4.9018,0.0,4.8646,0.0,4.8511,0.0,0.0,4.8037,0.0,0.0,0.0,0.0,0.0,0.0,0.0,0.0,4.6041,0.0,0.0,0.0,0.0,0.0,4.6853,4.7462,0.0,4.664,4.694,4.694,4.6797,4.6522,4.6008,4.5979,4.5983,4.5492,4.5775,4.6233,4.561,4.6047,4.6467,4.5197,4.532,4.5678,4.4991,4.4378,4.3906,4.3668,0.0,0.0,0.0,0.0,0.0,0.0,0.0,0.0,0.0,0.0,0.0,0.0,0.0,4.2071,4.176,4.1609,4.1543,4.1609,4.1825,4.1994,4.2077,4.2458,4.2749,4.292,4.3087,4.3286,4.3463,4.3497,4.3515,4.3515,4.3515,4.3901,4.4709,4.5516,4.6324,4.7113,4.792,4.8306,4.8306,4.8306,4.8306,4.8306,4.8306,4.8306,4.8306,4.8306,4.8306,4.8306,4.8306,4.8306,4.8306,4.9796,4.9796,4.9627,4.9086,4.9018,4.9018,4.9018,4.9018,4.9018,4.9018,4.9221,4.939,4.939,4.9627,4.9796,4.9796,4.9796,4.9796,4.9796,4.956,0.0,4.939,4.9154,4.9018,0.0,0.0,0.0,0.0,0.0,4.8071,0.0,0.0,0.0,0.0,0.0,4.6786,4.6786,4.6786,4.6955,0.0,0.0,4.8192,0.0,0.0,4.7997,4.7729,4.7954,4.7831,4.7575,4.7306,4.7352,4.7343,4.6539,4.6764,4.7214,4.6566,4.6868,4.7234,4.6351,4.6507,4.6794,4.6287,4.5719,4.5234,4.4995,4.4297,4.3696,0.0,0.0,0.0,0.0,0.0,0.0,0.0,0.0,0.0,0.0,4.2596,4.271,4.2557,4.2221,4.2035,4.2133,4.2358,4.2554,4.2557,4.2806,4.305,4.3196,4.3214,4.3304,4.3497,4.3515,4.3515,4.3515,4.3791,4.4342,4.5149,4.5957,4.6764,4.7553,4.8086,4.8306,4.8306,4.8306,4.8306,4.8306,4.8306,4.8306,4.8306,4.8306,4.8306,4.8306,4.8306,4.8401,4.8458,5.1185,5.1185,5.0777,4.9357,4.9086,4.9052,4.9052,4.9052,4.9086,4.912,4.9729,5.0135,5.0135,5.0777,5.1185,5.1185,5.1185,5.1185,5.1185,5.0541,0.0,0.0,4.9424,4.9052,4.9018,0.0,0.0,0.0,0.0,0.0,0.0,0.0,0.0,0.0,4.7225,0.0,4.6887,4.6917,4.7352,4.8154,4.9423,4.993,4.9988,5.0507,4.9589,4.8116,4.8724,4.8432,4.7857,4.8408,4.8916,4.9222,4.8413,4.8163,4.8043,4.7257,4.6985,4.6985,4.6949,4.732,4.7699,4.7699,4.712,4.654,4.6504,4.5424,4.4395,4.4323,0.0,0.0,0.0,0.0,0.0,0.0,0.0,0.0,0.0,0.0,4.3359,4.3214,4.305,4.2901,4.292,4.3012,4.3067,4.292,4.3012,4.3141,0.0,4.3214,4.3304,4.3497,4.3515,4.3515,4.3515,4.4305,4.5112,4.592,4.6709,4.7516,4.8306,4.8306,4.8306,4.8306,4.8306,4.8306,4.8306,4.8306,4.8306,4.8306,4.8325,4.8344,4.8363,4.8344,4.855,4.8781,5.1185,5.1185,5.105,5.0678,5.0168,4.983,4.983,4.983,4.9999,5.0574,5.0811,5.0913,5.0913,5.1116,5.1185,5.1185,5.1185,5.1185,5.1185,0.0,0.0,5.0101,4.9898,4.956,4.9018,4.9018,4.9018,4.9018,0.0,0.0,4.9018,0.0,0.0,0.0,0.0,4.8443,4.8474,4.8885,4.9447,5.0015,5.0355,5.048,5.0507,5.0643,5.0395,5.0063,5.0665,5.0471,4.9888,4.9958,5.0029,4.9995,4.9234,4.9277,4.9406,4.8648,4.8373,4.8265,4.7652,4.7593,4.7699,4.7699,4.7533,4.7249,4.6751,4.6295,4.5642,4.458,4.418,4.3888,4.3415,0.0,0.0,0.0,0.0,0.0,0.0,0.0,0.0,4.3214,4.3105,4.3123,4.3251,4.3178,4.3123,4.3142,4.3123,4.3141,4.3196,4.3286,4.3375,4.3497,4.3515,4.3515,4.3515,4.4305,4.5112,4.592,4.6709,4.7516,4.8306,4.8306,4.8306,4.8306,4.8306,4.8306,4.8306,4.8306,4.8306,4.8325,4.8587,4.8833,4.9015,4.8764,4.8864,4.9161,5.2232,5.2232,5.2097,5.1758,5.1352,5.0947,5.0642,5.0574,5.0744,5.1151,5.1488,5.1691,5.1691,5.1995,5.2232,5.2232,5.2232,5.2232,5.2232,0.0,0.0,5.1082,5.0744,5.0236,4.9492,4.9492,0.0,4.9018,0.0,0.0,4.9018,0.0,0.0,0.0,0.0,4.9018,4.9015,4.9644,4.993,5.0039,5.0778,5.0938,0.0,5.1286,5.1312,5.1183,5.1786,5.1601,5.1112,5.1298,5.1359,5.1191,5.0424,5.038,5.0452,4.9655,4.9184,4.8822,4.8415,4.8031,4.7699,4.7777,4.772,4.7611,4.73,4.69,4.6412,4.5602,4.4928,4.4327,4.3907,4.3596,0.0,0.0,0.0,0.0,0.0,0.0,0.0,0.0,4.3286,4.3304,4.341,4.3251,4.3141,4.3196,4.316,4.3215,4.3269,4.3376,4.3447,4.3497,4.3515,4.3644,4.4011,4.4819,4.5626,4.6434,4.7223,4.7846,4.8306,4.8306,4.8306,4.8306,4.8306,4.8306,4.8306,4.8306,4.8401,4.8569,4.8902,4.9224,4.9498,4.9302,4.9363,4.9498,5.3484,5.345,5.3281,5.257,5.2469,5.2232,5.1623,5.1388,5.1386,5.1488,5.2063,5.2469,5.2469,5.3078,5.3518,5.3518,5.3518,5.3518,5.3518,5.2841,5.2401,5.23,5.1691,5.1014,5.0236,5.0236,4.9864,0.0,0.0,0.0,0.0,0.0,0.0,0.0,0.0,0.0,0.0,4.9674,4.9703,4.9466,5.0973,5.1312,5.1043,5.2114,5.2162,5.1786,5.2317,5.2114,5.1676,5.2317,5.248,5.2371,5.1683,5.1466,5.1285,5.051,4.9764,4.9242,4.924,4.8581,4.7922,4.7985,4.7892,4.7777,4.7881,4.7401,4.6915,4.6825,4.5807,4.4821,4.4601,4.4017,0.0,0.0,0.0,0.0,0.0,0.0,0.0,0.0,0.0,0.0,4.3515,4.3269,4.3178,4.3214,4.3233,4.3269,4.3394,4.3412,4.3428,4.3497,4.3515,4.3901,4.4691,4.5516,4.6324,4.7113,4.7939,4.8306,4.8306,4.8344,4.8382,4.8382,4.8402,4.8421,4.8421,4.8421,4.8622,4.8949,4.9256,4.957,4.9857,4.9857,4.9857,4.983,5.3213,5.3382,5.345,5.3315,5.3281,5.3247,5.3112,5.2536,5.2367,5.301,5.3213,5.3281,5.3281,5.3416,5.3518,5.3518,5.3518,5.3518,5.3518,5.3382,0.0,5.2334,5.2198,5.1758,5.1048,5.1014,5.0642,0.0,0.0,0.0,0.0,0.0,0.0,0.0,0.0,0.0,4.9762,4.9878,0.0,5.1157,5.1475,5.1835,5.2209,5.241,5.2434,5.2364,5.2457,5.2114,5.1676,5.2317,5.248,5.248,5.2335,5.2299,5.2118,5.1321,5.0995,5.0741,5.0097,4.9379,4.8841,4.8756,4.827,4.7902,4.7988,4.7838,4.7583,4.7068,4.6684,4.6243,4.5662,4.4949,0.0,0.0,0.0,0.0,0.0,0.0,0.0,0.0,0.0,4.3428,4.3497,4.3429,4.3359,4.3376,4.3376,4.3376,4.3394,4.3445,4.3497,4.3515,4.3515,4.3901,4.4691,4.5516,4.6324,4.7113,4.7939,4.8306,4.8306,4.8605,4.8711,4.8729,4.8999,4.9129,4.9129,4.9129,4.9333,4.9613,4.9669,4.991,5.0212,5.0212,5.0212,5.0212,5.3179,5.3348,5.3518,5.3518,5.3518,5.3518,5.3518,5.3179,5.3078,5.345,5.3518,5.3518,5.3518,5.3518,5.3518,5.3518,5.3518,5.3518,5.3518,5.3518,5.3348,5.2942,5.2909,5.257,5.1792,5.1792,5.142,5.0676,0.0,0.0,0.0,0.0,0.0,0.0,0.0,4.9644,0.0,0.0,5.0651,5.1157,5.1475,5.1786,5.2066,5.2387,5.248,5.248,5.248,5.2317,5.2114,5.241,5.248,5.248,5.248,5.248,5.2408,5.2045,5.1611,5.1235,5.0845,5.0257,4.961,4.9174,4.8816,4.8478,4.8161,4.8068,4.7959,4.7733,4.7236,4.6666,4.5955,4.5187,4.4544,4.4195,4.3754,0.0,0.0,0.0,4.3515,0.0,0.0,0.0,0.0,4.3463,4.3445,4.3445,4.3429,4.3429,4.3445,4.348,4.3515,4.3515,4.3901,4.4525,4.5296,4.614,4.6948,4.7755,4.8292,4.8569,4.8587,4.8898,4.9048,4.9064,4.924,4.9317,4.9333,4.9498,4.9641,4.9817,5.0,5.0175,5.0283,5.0283,5.0283,5.0283,5.3179,5.3348,5.3518,5.3518,5.3518,5.3518,5.3518,5.3518,5.3518,5.3518,5.3518,5.3518,5.3518,5.3518,5.3518,5.3518,5.3518,5.3518,5.3518,5.3518,5.3518,5.3518,5.3518,5.3213,5.257,5.257,5.2198,0.0,0.0,0.0,0.0,0.0,0.0,0.0,0.0,0.0,5.0414,5.0969,5.1297,5.1432,5.1912,5.2212,5.2301,5.2665,5.277,5.2733,5.2552,5.248,5.248,5.248,5.248,5.248,5.248,5.248,5.248,5.248,5.2045,5.1561,5.1615,5.1137,5.0438,4.9825,4.945,4.9111,4.857,4.8297,4.8226,4.8287,4.7735,4.7018,4.6212,4.5608,4.5095,4.4764,4.4158,0.0,0.0,0.0,0.0,0.0,0.0,0.0,4.3515,4.3515,4.3515,4.3515,4.3445,4.3428,4.3497,4.3515,4.3515,4.3515,4.4268,4.5112,4.5883,4.6765,4.7611,4.8402,4.8746,4.8919,4.8936,4.9256,4.9409,4.9424,4.9483,4.9512,4.9527,4.9803,4.9897,4.9923,5.02,5.0283,5.0283,5.0283,5.0283,5.0321,5.3179,5.3348,5.3518,5.3518,5.3518,5.3518,5.3518,5.3518,5.3518,5.3518,5.3518,5.3518,5.3518,5.3518,5.3518,5.3518,5.3518,5.3518,5.3518,5.3518,5.3518,5.3518,5.3518,5.345,5.3382,5.3382,5.301,0.0,0.0,5.1488,5.0101,0.0,0.0,0.0,5.1699,5.1968,5.1998,5.2606,5.3191,5.368,5.3732,5.4112,5.4508,5.3832,5.3603,5.3494,5.277,5.248,5.248,5.248,5.248,5.248,5.248,5.248,5.248,5.248,5.2444,5.2371,5.2394,5.1936,5.1449,5.1326,5.0326,4.9375,4.9301,4.8736,4.8226,4.8287,4.825,4.792,4.7149,4.6929,4.6415,4.4948,4.4635,4.4342,0.0,0.0,4.3515,4.3515,0.0,0.0,4.3515,4.3515,4.3515,4.3515,4.3497,4.3497,4.3515,4.3515,4.3515,4.3515,4.4268,4.5112,4.5883,4.7013,4.7947,4.8764,4.9097,4.9256,4.9271,4.9599,4.9762,4.9776,5.0076,5.0212,5.0212,5.0236,5.0248,5.0248,5.0271,5.0283,5.0283,5.0283,5.0283,5.0397,5.3179,5.3348,5.3653,5.4093,5.416,5.4296,5.4769,5.4837,5.4837,5.4837,5.4431,5.4329,5.4769,5.4837,5.4837,5.4837,5.4431,5.416,5.416,5.3754,5.3518,5.3518,5.3518,5.3518,5.3518,5.3518,5.3348,0.0,0.0,0.0,0.0,0.0,5.2227,5.1843,5.2851,5.3078,5.2701,5.3384,5.3982,5.4514,5.4138,5.4353,5.487,5.4544,5.4436,5.4327,5.3494,5.3204,5.3132,5.2661,5.248,5.248,5.248,5.248,5.248,5.248,5.2526,5.2559,5.2559,5.252,5.2309,5.1828,5.1313,5.0705,4.9751,4.9275,4.8891,4.8397,4.8306,4.8196,4.7883,4.7443,4.6892,4.6232,4.5315,4.4599,0.0,0.0,0.0,4.3515,0.0,4.3515,4.3515,4.3515,4.3515,4.3515,4.3515,4.3515,4.3515,4.3515,4.36,4.3779,4.4851,4.5783,4.6478,4.7698,4.86,4.9097,4.9439,4.9599,4.9599,4.9974,5.0088,5.01,5.0236,5.0283,5.0283,5.0283,5.0627,5.1085,5.1085,5.1391,5.1811,5.1811,5.1811,5.1849,5.3955,5.4024,5.4329,5.4837,5.4905,5.5108,5.5649,5.5681,5.5784,5.6021,5.5581,5.5344,5.5683,5.5681,5.5681,5.5681,5.5243,5.4905,5.4905,5.4228,5.3822,5.3822,5.3619,5.3518,5.3518,5.3651,5.3685,5.3518,5.3685,0.0,5.2592,5.3253,5.3385,5.3197,5.4229,5.442,5.4027,5.4661,5.5199,5.5534,5.5112,5.5224,5.5558,5.5305,5.5233,5.5124,5.4327,5.3892,5.3603,5.3023,5.2697,5.248,5.248,5.248,5.248,5.248,5.2536,5.259,5.259,5.2806,5.2871,5.2285,5.2077,5.1683,5.0565,4.9941,4.9353,4.8489,4.8306,4.8306,4.8306,4.7846,4.7369,4.7149,4.6159,4.5241,0.0,4.4195,0.0,4.3551,4.3515,4.3549,4.3651,4.3667,4.3664,4.3742,4.3742,4.3747,4.3631,4.3852,4.4165,4.4497,4.5836,4.6768,4.7252,4.8487,4.9209,4.9453,4.9803,4.9974,4.9974,5.02,5.0436,5.0665,5.0665,5.0818,5.1047,5.1047,5.1391,5.1964,5.1964,5.2308,5.2805,5.2805,5.2957,5.3225,5.5647,5.5647,5.5647,5.5716,5.5716,5.5716,5.5681,5.5681,5.5987,5.6697,5.6799,5.6494,5.5784,5.5681,5.5681,5.5681,5.5716,5.5716,5.5716,5.5006,5.4566,5.4566,5.389,5.3518,5.3518,5.4074,5.4074,5.3518,0.0,5.4011,5.3318,5.3917,5.4595,5.5396,5.5999,5.6248,5.6303,5.6897,5.7188,5.7152,5.7152,5.7188,5.708,5.6283,5.5993,5.5884,5.516,5.4363,5.3711,5.3675,5.3168,5.248,5.248,5.248,5.248,5.248,5.2536,5.259,5.259,5.2806,5.298,5.298,5.248,5.1977,5.1977,5.0749,4.9353,4.8489,4.8306,4.8306,4.8306,4.8306,4.8049,4.7223,4.7076,4.6526,4.4911,4.4691,0.0,4.3571,4.3515,4.3651,4.3955,4.3971,4.4109,4.4355,4.4383,4.4279,4.4002,4.4745,4.5311,4.5674,4.7252,4.8078,4.8093,4.9211,4.9803,4.9803,5.0113,5.0271,5.0271,5.0321,5.0779,5.157,5.157,5.204,5.2766,5.2766,5.2766,5.2805,5.2805,5.2805,5.2805,5.2805,5.3339,5.4218,5.5681,5.5681,5.5886,5.6359,5.6461,5.663,5.7137,5.7205,5.7273,5.7509,5.7543,5.7442,5.7239,5.7205,5.7205,5.7205,5.6731,5.6461,5.6461,5.5784,5.5141,5.46,5.4363,5.4025,5.3518,5.4074,5.4296,5.4106,5.4765,5.5168,5.5362,5.556,5.5786,5.6035,5.6635,5.6688,5.6339,5.6959,5.7188,5.7188,5.7188,5.7188,5.7152,5.6899,5.6826,5.6717,5.5921,5.5486,5.5196,5.4689,5.4001,5.3313,5.3313,5.2951,5.248,5.248,5.2536,5.2613,5.2717,5.2872,5.3039,5.3103,5.2983,5.2674,5.2123,5.0749,4.9537,4.9243,4.871,4.8306,4.8306,4.8306,4.8233,4.7957,4.7443,4.6929,4.6415,4.5883,4.5406,4.5149,4.4861,4.4691,4.4788,4.4483,4.4322,4.4383,4.496,4.527,4.5169,4.5394,4.5951,4.6806,4.7669,4.832,4.8783,4.944,4.991,5.0125,5.0248,5.0627,5.12,5.12,5.1658,5.2422,5.2422,5.2575,5.2805,5.2805,5.3148,5.3683,5.3683,5.4065,5.4639,5.5174,5.5556,5.5938,5.6528,5.6528,5.6664,5.7137,5.7205,5.7374,5.7814,5.7881,5.7881,5.7881,5.7881,5.7881,5.7881,5.7881,5.7881,5.7881,5.7476,5.7205,5.7205,5.6528,5.5991,5.5792,5.5314,5.4805,5.4325,5.4871,5.4918,5.4391,5.5308,5.595,5.6311,5.6528,5.6635,5.6635,5.7036,5.6984,5.6661,5.7036,5.7188,5.7188,5.7188,5.7188,5.7188,5.7188,5.7188,5.7116,5.6609,5.6247,5.5921,5.5486,5.4798,5.411,5.3784,5.3349,5.2878,5.2589,5.2536,5.2613,5.2761,5.2893,5.3039,5.3182,5.3203,5.3004,5.216,5.1226,5.0345,4.9721,4.915,4.8673,4.8379,4.8306,4.8306,4.8306,4.7883,4.7443,4.7149,4.6672,4.625,4.592,4.5739,4.5722,4.5848,4.566,4.5555,4.5647,4.6189,4.6618,4.6959,4.6865,4.7159,4.7997,4.8628,4.9124,4.9557,4.986,5.0088,5.0283,5.0627,5.1085,5.1608,5.1926,5.2499,5.3301,5.3301,5.3454,5.3798,5.3798,5.4104,5.46,5.46,5.4906,5.5517,5.6282,5.6816,5.7199,5.7881,5.7881,5.7881,5.7881,5.7881,5.7881,5.7881,5.7881,5.7881,5.7881,5.7881,5.7881,5.7881,5.7881,5.7881,5.7881,5.7881,5.7881,5.7881,5.7273,5.7153,5.7737,5.6542,5.5792,5.5761,5.6283,5.5929,5.4575,5.5801,5.6366,5.6366,5.6959,5.7188,5.7188,5.7188,5.7188,5.7188,5.7188,5.7188,5.7188,5.7188,5.7188,5.7188,5.7188,5.7188,5.7188,5.7188,5.6717,5.6066,5.6066,5.5595,5.487,5.411,5.3784,5.353,5.2733,5.2536,5.2613,5.2761,5.2893,5.3039,5.3146,5.3203,5.3004,5.2234,5.205,5.1593,5.0088,4.9684,4.9353,4.8526,4.8343,4.8306,4.8306,4.8306,4.8049,4.7296,4.7186,4.6911,4.6177,4.6345,4.6669,4.6989,4.7259,4.7528,4.7777,4.7865,4.8258,4.9071,4.8858,4.8871,4.9175,4.9901,5.0283,5.0283,5.0283,5.0321,5.0397,5.12,5.1658,5.1799,5.2537,5.3378,5.418,5.418,5.4639,5.5403,5.5403,5.5403,5.5403,5.5403,5.5441,5.5594,5.6396,5.7237,5.8116,5.7881,5.7881,5.7881,5.7881,5.7881,5.7881,5.7881,5.7881,5.7881,5.7881,5.7881,5.7881,5.7881,5.7881,5.7881,5.7881,5.7881,5.7881,5.7881,5.7712,5.7698,5.7805,5.7465,5.7249,5.7219,5.7252,5.7005,5.6546,5.6845,5.6984,5.6984,5.7138,5.7188,5.7188,5.7188,5.7188,5.7188,5.7188,5.7188,5.7188,5.7188,5.7188,5.7188,5.7188,5.7188,5.7188,5.7188,5.708,5.6899,5.6899,5.6391,5.5703,5.5522,5.4653,5.353,5.2733,5.2503,5.2572,5.2739,5.2828,5.2893,5.3124,5.3203,5.313,5.2968,5.2454,5.1867,5.1499,5.0455,4.9537,4.9353,4.8746,4.8306,4.8306,4.8306,4.8233,4.8049,4.7993,4.8052,4.8122,4.7868,4.7838,4.8191,4.7896,4.7732,4.7788,4.8411,4.8869,4.911,4.9625,4.9918,5.0015,5.0206,5.0283,5.0283,5.0283,5.0627,5.1314,5.1493,5.227,5.3492,5.3722,5.4256,5.5097,5.5097,5.5212,5.5403,5.5403,5.5403,5.5403,5.5403,5.5785,5.6434,5.7275,5.8116,5.8956,5.8896,5.8896,5.8896,5.8896,5.8896,5.8896,5.8896,5.8896,5.8896,5.8896,5.8896,5.8761,5.8457,5.8389,5.8254,5.7915,5.7881,5.7881,5.7881,5.7881,5.8038,5.8289,5.8288,5.8274,5.8207,5.8449,5.8267,5.7732,5.7732,5.755,5.7188,5.7188,5.7188,5.7188,5.7188,5.7188,5.7188,5.7188,5.7188,5.7188,5.7188,5.7188,5.7188,5.7188,5.7188,5.7188,5.7188,5.7188,5.7188,5.7188,5.6899,5.6464,5.6102,5.5414,5.4532,5.3419,5.2816,5.2549,5.2806,5.285,5.285,5.3124,5.3203,5.3203,5.3203,5.2858,5.2454,5.2087,5.1336,5.0492,4.9757,4.9206,4.8746,4.8379,4.8306,4.8363,4.8514,4.842,4.8477,4.8965,4.8802,4.8784,4.9119,4.9022,4.8945,4.8945,4.9366,4.9633,4.9633,5.0054,5.0283,5.0283,5.0283,5.0283,5.0283,5.0703,5.1123,5.1608,5.2384,5.3225,5.4104,5.4524,5.4944,5.5403,5.5403,5.5403,5.5403,5.5403,5.5403,5.5403,5.5403,5.5899,5.6715,5.7581,5.8421,5.9224,6.0114,6.0114,6.0114,6.0114,6.0114,6.0114,6.0114,6.0114,6.0114,6.0114,6.0114,5.9877,5.9235,5.9167,5.893,5.8287,5.8228,5.8162,5.7918,5.7881,5.8209,5.8875,5.9011,5.9066,5.9104,5.9669,5.9498,5.8601,5.8601,5.8166,5.7369,5.7369,5.7333,5.7188,5.7188,5.7188,5.7188,5.7188,5.7188,5.7188,5.7188,5.7188,5.7188,5.7188,5.7188,5.7188,5.7188,5.7188,5.7188,5.7188,5.7188,5.708,5.6391,5.6102,5.5764,5.4529,5.3466,5.274,5.293,5.2915,5.293,5.3124,5.3203,5.3203,5.3203,5.3203,5.3004,5.2307,5.2087,5.1557,5.0051,4.9684,4.9317,4.8453,4.8344,4.8477,4.8764,4.8623,4.8676,4.9317,4.9378,4.9512,4.9844,5.0113,5.0283,5.0283,5.0283,5.0283,5.0283,5.0283,5.0283,5.0283,5.0283,5.0359,5.0474,5.1238,5.1723,5.2002,5.3416,5.418,5.4333,5.5059,5.5403,5.5403,5.5403,5.5403,5.5403,5.5403,5.5403,5.5403,5.5517,5.6091,5.6893,5.7772,5.8588,5.9431,6.0114,6.0114,6.0114,6.0114,6.0114,6.0114,6.0114,6.0114,6.0114,6.0114,6.0114,6.0047,5.9945,5.9945,5.9877,5.9776,5.9754,5.9212,5.7952,5.7881,5.8209,5.8875,5.9513,6.0086,6.0653,6.066,6.0232,5.9434,5.9434,5.8999,5.8202,5.8202,5.784,5.7188,5.7188,5.7188,5.7188,5.7188,5.7188,5.7188,5.7188,5.7188,5.7188,5.7188,5.7188,5.7188,5.7188,5.7188,5.7188,5.7188,5.7188,5.7188,5.7043,5.6536,5.6006,5.5993,5.4878,5.3522,5.3098,5.3082,5.3161,5.3203,5.3203,5.3203,5.3203,5.3203,5.3167,5.3041,5.2454,5.172,5.0802,5.0068,4.9317,4.8453,4.855,4.8746,4.8799,4.8999,4.9302,4.9655,4.9697,4.9857,5.02,5.0259,5.0283,5.0283,5.0283,5.0283,5.0283,5.0283,5.0283,5.0283,5.0283,5.0665,5.1391,5.1544,5.2308,5.3722,5.3989,5.4486,5.5212,5.5326,5.5403,5.5403,5.5403,5.5403,5.5403,5.5403,5.5403,5.5479,5.6129,5.6931,5.781,5.8612,5.9536,6.0392,6.1332,6.1332,6.1332,6.1332,6.1332,6.1332,6.1332,6.1332,6.1332,6.1332,6.1332,6.1197,6.0791,6.0757,6.0744,6.0677,6.0662,6.0393,5.9737,5.8874,5.8598,5.8909,5.9611,6.0468,6.1515,6.1479,6.1037,6.0267,6.0267,5.9832,5.9072,5.9072,5.8637,5.784,5.784,5.7623,5.7188,5.7188,5.7188,5.7188,5.7188,5.7188,5.7188,5.7188,5.7188,5.7188,5.7188,5.7188,5.7188,5.7188,5.7188,5.7188,5.7188,5.6935,5.6622,5.643,5.5332,5.3939,5.32,5.3103,5.3203,5.3203,5.3203,5.3203,5.3203,5.3203,5.3203,5.3203,5.2894,5.2417,5.1573,5.1132,5.0492,4.9187,4.927,4.9351,4.9123,4.9209,4.9498,5.0012,4.9897,4.9923,5.0259,5.0283,5.0283,5.0283,5.0283,5.0283,5.0283,5.0283,5.0283,5.0283,5.0779,5.1188,5.1608,5.2499,5.3339,5.4104,5.46,5.5021,5.5403,5.5403,5.5403,5.5403,5.5403,5.5403,5.5403,5.5403,5.5403,5.5441,5.5823,5.6473,5.7237,5.7619,5.84,5.9288,6.2381,6.2381,6.2381,6.2381,6.2381,6.2381,6.2381,6.2381,6.2381,6.2381,6.2381,6.2178,6.1603,6.1569,6.1609,6.17,6.1742,6.1709,6.1722,6.062,5.9695,5.918,5.987,6.0807,6.1978,6.1978,6.1688,6.1073,6.1073,6.0665,5.9905,5.9905,5.947,5.8673,5.8673,5.8239,5.7478,5.7478,5.7369,5.7188,5.7188,5.7188,5.7188,5.7188,5.7188,5.7188,5.7188,5.7188,5.7188,5.7188,5.7188,5.7188,5.7188,5.7213,5.718,5.6782,5.5848,5.4708,5.3631,5.3271,5.3203,5.3203,5.3203,5.3203,5.3203,5.3203,5.3203,5.3203,5.3203,5.2968,5.216,5.1977,5.1536,5.0124,5.0195,5.023,4.9684,4.974,4.9938,5.0274,5.0076,5.0025,5.0259,5.0283,5.0283,5.0283,5.0283,5.0283,5.0283,5.0474,5.0703,5.0894,5.1353,5.1799,5.2193,5.3454,5.4218,5.4409,5.5097,5.5403,5.5403,5.5403,5.5403,5.5403,5.5403,5.5403,5.5403,5.5415,5.5441,5.5403,5.5645,5.6091,5.6639,5.6882,5.7479,5.8204,6.2381,6.2381,6.2381,6.2381,6.2381,6.2381,6.2381,6.2381,6.2381,6.2381,6.2381,6.2381,6.2313,6.2313,6.2595,6.3285,6.3241,6.3269,6.3335,6.3151,6.2115,6.0005,6.056,6.1286,6.1978,6.1978,6.1978,6.1906,6.1906,6.1471,6.0738,6.0738,6.0303,5.9506,5.9506,5.9072,5.8311,5.8311,5.7876,5.7188,5.7188,5.7188,5.7188,5.7188,5.7188,5.7188,5.7188,5.7188,5.7188,5.7188,5.7188,5.7188,5.7188,5.7289,5.7412,5.7462,5.7092,5.6271,5.473,5.3775,5.3203,5.3203,5.3203,5.3203,5.3203,5.3203,5.3203,5.3203,5.3203,5.2968,5.216,5.1977,5.172,5.0839,5.123,5.1356,5.0509,5.0992,5.1152,5.0386,5.0271,5.0259,5.0321,5.0283,5.0283,5.0283,5.0283,5.0283,5.0283,5.1085,5.1849,5.2575,5.1964,5.2346,5.3913,5.4027,5.4524,5.5288,5.5365,5.5403,5.5403,5.5403,5.5403,5.5403,5.5403,5.5403,5.5416,5.5523,5.5488,5.5492,5.6367,5.6675,5.669,5.7644,5.8138,5.8414,6.2381,6.2381,6.2381,6.2381,6.2381,6.2381,6.2381,6.2381,6.2381,6.2381,6.2381,6.2381,6.2381,6.2813,6.3383,6.4112,6.4557,6.4828,6.4808,6.4393,6.3315,6.1437,6.1536,6.172,6.1978,6.1978,6.1978,6.1978,6.1978,6.1833,6.1543,6.1543,6.1109,6.0339,6.0339,5.9905,5.9108,5.8601,5.8239,5.7913,5.7406,5.7188,5.7188,5.7188,5.7188,5.7188,5.7188,5.7188,5.7188,5.7188,5.7188,5.7188,5.7188,5.7239,5.7313,5.7534,5.7201,5.6675,5.6051,5.495,5.3812,5.3314,5.3203,5.3203,5.3203,5.3203,5.3203,5.3203,5.3203,5.3115,5.2821,5.2747,5.2537,5.1931,5.2228,5.2317,5.1722,5.2028,5.204,5.12,5.1123,5.0894,5.0359,5.0283,5.0283,5.0283,5.0818,5.1123,5.1123,5.1888,5.2728,5.3569,5.3301,5.3454,5.4104,5.4639,5.5059,5.5403,5.5403,5.5403,5.5403,5.5403,5.5403,5.5403,5.5403,5.5428,5.5511,5.5581,5.5599,5.5692,5.6053,5.6158,5.6154,5.6526,5.6763,5.6927,6.2381,6.2381,6.2381,6.2381,6.2381,6.2381,6.2381,6.2381,6.2381,6.2381,6.2381,6.2381,6.2381,6.3045,6.3788,6.4532,6.5273,6.5766,6.596,6.5317,6.4087,6.2265,6.2313,6.2259,6.2014,6.1978,6.1978,6.1978,6.1978,6.1978,6.1978,6.1978,6.1688,6.1181,6.1181,6.0738,5.9941,5.9398,5.8854,5.8347,5.7804,5.7442,5.7188,5.7188,5.7188,5.7188,5.7188,5.7188,5.7188,5.7188,5.7188,5.7188,5.7188,5.7239,5.7363,5.7631,5.7454,5.7116,5.6859,5.6014,5.4913,5.3849,5.3408,5.3203,5.3203,5.3203,5.3203,5.3203,5.3203,5.3203,5.3203,5.3203,5.315,5.292,5.3175,5.3231,5.2754,5.3021,5.2881,5.2079,5.1964,5.1735,5.1123,5.1085,5.1085,5.1085,5.1658,5.2117,5.2384,5.2919,5.3607,5.4486,5.4524,5.4524,5.4524,5.5097,5.5403,5.5403,5.5403,5.5403,5.5403,5.5403,5.5403,5.5403,5.5428,5.5499,5.5626,5.5696,5.574,5.5798,5.5845,5.5836,5.5798,5.5845,5.5943,5.6063,6.2381,6.2381,6.2381,6.2381,6.2381,6.2381,6.2381,6.2381,6.2381,6.2381,6.2381,6.2381,6.242,6.3045,6.3825,6.4532,6.5273,6.6012,6.6727,6.6062,6.4606,6.2331,6.2853,6.2838,6.2014,6.2014,6.2014,6.1978,6.1978,6.1978,6.1978,6.1978,6.1978,6.1978,6.1978,6.1543,6.081,6.081,5.9905,5.842,5.842,5.7913,5.7188,5.7188,5.7188,5.7188,5.7188,5.7188,5.7188,5.7188,5.7188,5.7188,5.7188,5.7388,5.7631,5.7927,5.7997,5.7813,5.7042,5.6822,5.6418,5.4803,5.3812,5.3203,5.3203,5.3203,5.3203,5.3203,5.3203,5.3203,5.3203,5.3225,5.3334,5.3643,5.4052,5.415,5.3701,5.3884,5.3798,5.2919,5.2805,5.2805,5.2805,5.2805,5.2805,5.2805,5.2805,5.3187,5.4065,5.4104,5.4524,5.5365,5.5403,5.5403,5.5403,5.5403,5.5403,5.5403,5.5403,5.5403,5.5403,5.5403,5.5403,5.5416,5.5535,5.5615,5.561,5.5891,5.5926,5.5817,5.5952,5.5917,5.5817,5.5952,5.6056,5.6149,6.2381,6.2381,6.2381,6.2381,6.2381,6.2381,6.2381,6.2381,6.2381,6.2381,6.2381,6.2615,6.3121,6.3825,6.4566,6.5305,6.6048,6.6578,6.6793,6.6569,6.5865,6.4642,6.4238,6.3671,6.2875,6.2838,6.2585,6.1978,6.1978,6.1978,6.1978,6.1978,6.1978,6.1978,6.1978,6.1869,6.1616,6.1064,6.052,6.0013,5.8854,5.8275,5.7985,5.7406,5.7188,5.7188,5.7188,5.7188,5.7213,5.7289,5.7338,5.7338,5.7437,5.7534,5.7631,5.781,5.7927,5.796,5.7703,5.7226,5.6418,5.4803,5.4216,5.3885,5.3335,5.3203,5.3203,5.3203,5.3203,5.3203,5.3203,5.34,5.3699,5.4052,5.443,5.4686,5.4849,5.4969,5.4677,5.3836,5.3722,5.3454,5.2843,5.2805,5.2805,5.2805,5.3378,5.4104,5.4982,5.5021,5.5135,5.5403,5.5403,5.5403,5.5403,5.5403,5.5403,5.5403,5.5403,5.5403,5.5403,5.5403,5.544,5.5535,5.5593,5.5717,5.5882,5.5968,5.6063,5.6155,5.6174,5.6181,5.6155,5.6213,5.6214,5.6242,6.2381,6.2381,6.2381,6.2381,6.2381,6.2381,6.2381,6.2381,6.2498,6.2813,6.2576,6.2774,6.3825,6.4323,6.4907,6.5665,6.6391,6.6786,6.6786,6.6786,6.6569,6.6098,6.5591,6.483,6.3708,6.3345,6.2947,6.2476,6.2186,6.1978,6.1978,6.1978,6.1978,6.1978,6.1978,6.1978,6.1978,6.1471,6.11,6.0738,5.976,5.8963,5.8347,5.784,5.7478,5.7188,5.7188,5.7188,5.7213,5.7338,5.7437,5.7486,5.7667,5.7655,5.7715,5.7857,5.795,5.7997,5.7997,5.7629,5.6969,5.5684,5.4876,5.4289,5.3812,5.3424,5.323,5.3359,5.3293,5.3293,5.36,5.368,5.3888,5.4413,5.467,5.4947,5.5364,5.5403,5.5212,5.4677,5.46,5.4409,5.3874,5.3836,5.3836,5.3836,5.4333,5.483,5.5365,5.5403,5.5403,5.5403,5.5403,5.5403,5.5403,5.5403,5.5403,5.5403,5.5403,5.5403,5.5403,5.5403,5.5477,5.5577,5.5654,5.5789,5.6001,5.6094,5.6201,5.6308,5.6308,5.6331,5.6339,5.6347,5.6368,5.6377,6.2381,6.2381,6.2381,6.2381,6.2381,6.242,6.2498,6.2498,6.2774,6.3496,6.3007,6.3158,6.4532,6.4703,6.5008,6.5728,6.6421,6.6786,6.6786,6.6786,6.6786,6.6786,6.6786,6.6098,6.4649,6.3816,6.3345,6.32,6.2476,6.205,6.1978,6.1978,6.1978,6.1978,6.1978,6.1978,6.1978,6.1978,6.158,6.0919,6.0846,5.9941,5.8601,5.8456,5.7949,5.7297,5.7224,5.7188,5.7213,5.7363,5.7486,5.7631,5.7786,5.781,5.7834,5.7973,5.7997,5.7997,5.7997,5.7997,5.7813,5.7079,5.5757,5.4583,5.4509,5.3885,5.3424,5.3735,5.3518,5.3461,5.4158,5.4034,5.4015,5.47,5.4821,5.4976,5.5364,5.5403,5.5403,5.5403,5.5403,5.5403,5.5403,5.5403,5.5403,5.5403,5.5403,5.5403,5.5403,5.5403,5.5403,5.5403,5.5403,5.5403,5.5403,5.5403,5.5403,5.5403,5.5403,5.5403,5.5403,5.5416,5.5502,5.561,5.575,5.5891,5.6025,5.6219,5.6302,5.6319,5.6319,5.6349,5.6394,5.639,5.6453,5.6485,6.2381,6.2381,6.2381,6.2381,6.2381,6.2581,6.3158,6.3271,6.3533,6.4253,6.4218,6.4463,6.5371,6.5468,6.576,6.6482,6.6697,6.6786,6.6786,6.6786,6.6786,6.6786,6.6786,6.6641,6.6279,6.5482,6.4468,6.32,6.3019,6.2621,6.1978,6.1978,6.1978,6.1978,6.1978,6.1978,6.1978,6.1978,6.1906,6.1652,6.1037,6.0593,6.0158,5.8891,5.8275,5.8058,5.7442,5.7188,5.7239,5.7461,5.7667,5.7786,5.7927,5.7881,5.7834,5.7973,5.7997,5.7997,5.7997,5.7997,5.796,5.7776,5.7005,5.6124,5.5464,5.473,5.4233,5.4588,5.4069,5.372,5.421,5.4446,5.4601,5.4776,5.5047,5.5286,5.539,5.5403,5.5403,5.5403,5.5403,5.5403,5.5403,5.5403,5.5403,5.5403,5.5403,5.5403,5.5403,5.5403,5.5403,5.5403,5.5403,5.5403,5.5403,5.5403,5.5403,5.5403,5.5403,5.5403,5.5403,5.5526,5.5621,5.575,5.59,5.6071,5.6226,5.6263,5.6324,5.6372,5.6372,5.6437,5.6468,5.6402,5.6453,5.6527,6.299,6.2922,6.2821,6.2448,6.2381,6.262,6.3383,6.3531,6.3897,6.4974,6.4839,6.5008,6.611,6.5918,6.6016,6.6727,6.6786,6.6786,6.6786,6.6786,6.6786,6.6786,6.6786,6.6786,6.6786,6.6388,6.5555,6.4323,6.3563,6.2983,6.2549,6.2186,6.1978,6.1978,6.1978,6.1978,6.1978,6.1978,6.1978,6.1942,6.1543,6.1136,6.0738,5.9868,5.9325,5.8854,5.8058,5.759,5.7412,5.7607,5.7786,5.7904,5.7973,5.795,5.7904,5.7973,5.7997,5.7997,5.7997,5.7997,5.7997,5.7997,5.7847,5.747,5.6657,5.5845,5.5289,5.5432,5.5002,5.4588,5.4799,5.4829,5.4851,5.5071,5.526,5.5403,5.5403,5.5403,5.5403,5.5403,5.5403,5.5403,5.5403,5.5403,5.5403,5.5403,5.5403,5.5403,5.5403,5.5403,5.5403,5.5403,5.5403,5.5403,5.5403,5.5403,5.5403,5.5403,5.5403,5.5415,5.5514,5.557,5.5717,5.59,5.5968,5.6109,5.6298,5.6286,5.6344,5.639,5.6449,5.6478,5.6545,5.6527,5.6533,5.6548,6.3835,6.37,6.3463,6.2719,6.2668,6.2987,6.3604,6.3788,6.4358,6.5728,6.5338,6.5439,6.6668,6.6233,6.6141,6.6727,6.6786,6.6786,6.6786,6.6786,6.6786,6.6786,6.6786,6.6786,6.6786,6.6786,6.6424,6.5591,6.4251,6.3454,6.3164,6.2512,6.215,6.1978,6.1978,6.1978,6.1978,6.1978,6.1978,6.1978,6.1978,6.158,6.0991,6.0846,6.0412,5.9724,5.8891,5.8271,5.7789,5.7799,5.7904,5.7997,5.7997,5.7997,5.7997,5.7997,5.7997,5.7997,5.7997,5.7997,5.7997,5.7997,5.8282,5.8442,5.7833,5.7072,5.6519,5.6516,5.6042,5.5589,5.5616,5.5203,5.5004,5.5364,5.5403,5.5403,5.5403,5.5403,5.5403,5.5403,5.5403,5.5403,5.5403,5.5403,5.5403,5.5403,5.5403,5.5403,5.5403,5.5403,5.5403,5.5403,5.5403,5.5403,5.5403,5.5403,5.5403,5.5403,5.5428,5.5502,5.5615,5.561,5.575,5.6001,5.6025,5.6139,5.6317,5.6303,5.6359,5.6402,5.6478,5.6548,5.6606,5.6606,5.6606,5.6606,6.4478,6.4444,6.4241,6.3497,6.3884,6.4366,6.4428,6.5008,6.5697,6.6512,6.6542,6.6608,6.6757,6.6697,6.6697,6.6786,6.6786,6.6786,6.6786,6.6786,6.6786,6.6786,6.6786,6.6786,6.6786,6.6786,6.6424,6.5591,6.5374,6.4541,6.32,6.3092,6.2657,6.1978,6.1978,6.1978,6.1978,6.1978,6.1978,6.1978,6.1978,6.1906,6.1761,6.1037,6.0738,6.0557,5.9724,5.9081,5.8531,5.7982,5.7904,5.7997,5.7997,5.7997,5.7997,5.7997,5.7997,5.7997,5.7997,5.7997,5.7997,5.7997,5.8282,5.8652,5.8896,5.8334,5.7822,5.81,5.7011,5.608,5.6382,5.5835,5.5351,5.539,5.5403,5.5403,5.5403,5.5403,5.5403,5.5403,5.5403,5.5403,5.5403,5.5403,5.5403,5.5403,5.5403,5.5403,5.5403,5.5403,5.5403,5.5403,5.5403,5.5403,5.5403,5.5403,5.5403,5.5403,5.5538,5.5593,5.5588,5.5738,5.5855,5.6001,5.6192,5.6278,5.6303,5.6359,5.6441,5.6478,5.655,5.6602,5.6606,5.6606,5.6606,5.6606,6.529,6.5222,6.4986,6.4241,6.4752,6.5241,6.5198,6.5878,6.6451,6.677,6.6786,6.6786,6.6786,6.6786,6.6786,6.6786,6.6786,6.6786,6.6786,6.6786,6.6786,6.6786,6.6786,6.6786,6.6786,6.6786,6.6641,6.6279,6.5808,6.5229,6.4504,6.3599,6.3019,6.2657,6.2195,6.1978,6.1978,6.1978,6.1978,6.1978,6.1978,6.1978,6.1942,6.1616,6.1471,6.139,6.0742,5.9779,5.8774,5.8639,5.8317,5.7997,5.7997,5.7997,5.7997,5.7997,5.7997,5.7997,5.7997,5.7997,5.8065,5.826,5.8628,5.9065,5.945,5.9441,5.9254,5.8919,5.8263,5.7658,5.7376,5.6625,5.6052,5.6052,5.5708,5.5403,5.5403,5.5403,5.5403,5.5403,5.5403,5.5403,5.5403,5.5403,5.5403,5.5403,5.5403,5.5403,5.5403,5.5403,5.5403,5.5403,5.5403,5.5403,5.5403,5.5403,5.5403,5.5403,5.5523,5.5632,5.5728,5.5845,5.6024,5.6185,5.6272,5.629,5.6314,5.6368,5.6453,5.6524,5.6555,5.6606,5.6606,5.6606,5.6606,5.6606]}]]